<?xml version="1.0" encoding="UTF-8" standalone="no" ?>
<gpx xmlns="http://www.topografix.com/GPX/1/1" xmlns:xsi="http://www.w3.org/2001/XMLSchema-instance" xsi:schemaLocation="http://www.topografix.com/GPX/1/1 http://www.topografix.com/GPX/1/1/gpx.xsd" version="1.1" creator="VisuGPX - https://www.visugpx.com">
  <metadata>
    <name>Sortie du 9 avril 2012</name>
    <desc><![CDATA[Les Châteaux de l\'Ouest du Haut Var]]></desc>
  </metadata>
  <trk>
    <name><![CDATA[Sortie du 9 avril 2012_1]]></name>
    <trkseg>
      <trkpt lat="43.51006" lon="5.73325">
        <ele>309.201172</ele>
        <time>2012-04-09T06:17:53Z</time>
      </trkpt>
      <trkpt lat="43.51047" lon="5.73334">
        <ele>309.201172</ele>
        <time>2012-04-09T06:18:01Z</time>
      </trkpt>
      <trkpt lat="43.51098" lon="5.73349">
        <ele>309.201172</ele>
        <time>2012-04-09T06:18:10Z</time>
      </trkpt>
      <trkpt lat="43.5114" lon="5.73368">
        <ele>309.201172</ele>
        <time>2012-04-09T06:18:18Z</time>
      </trkpt>
      <trkpt lat="43.51166" lon="5.73364">
        <ele>310.162476</ele>
        <time>2012-04-09T06:18:23Z</time>
      </trkpt>
      <trkpt lat="43.51171" lon="5.7336">
        <ele>310.643066</ele>
        <time>2012-04-09T06:18:24Z</time>
      </trkpt>
      <trkpt lat="43.5121" lon="5.73329">
        <ele>313.046509</ele>
        <time>2012-04-09T06:18:33Z</time>
      </trkpt>
      <trkpt lat="43.51246" lon="5.73307">
        <ele>314.969116</ele>
        <time>2012-04-09T06:18:41Z</time>
      </trkpt>
      <trkpt lat="43.5128" lon="5.73298">
        <ele>315.93042</ele>
        <time>2012-04-09T06:18:48Z</time>
      </trkpt>
      <trkpt lat="43.51314" lon="5.73296">
        <ele>316.891724</ele>
        <time>2012-04-09T06:18:55Z</time>
      </trkpt>
      <trkpt lat="43.51347" lon="5.73301">
        <ele>316.891724</ele>
        <time>2012-04-09T06:19:02Z</time>
      </trkpt>
      <trkpt lat="43.51383" lon="5.73308">
        <ele>316.411011</ele>
        <time>2012-04-09T06:19:09Z</time>
      </trkpt>
      <trkpt lat="43.51414" lon="5.73325">
        <ele>316.411011</ele>
        <time>2012-04-09T06:19:15Z</time>
      </trkpt>
      <trkpt lat="43.51451" lon="5.73349">
        <ele>315.93042</ele>
        <time>2012-04-09T06:19:23Z</time>
      </trkpt>
      <trkpt lat="43.51495" lon="5.73375">
        <ele>315.93042</ele>
        <time>2012-04-09T06:19:33Z</time>
      </trkpt>
      <trkpt lat="43.51534" lon="5.734">
        <ele>315.93042</ele>
        <time>2012-04-09T06:19:42Z</time>
      </trkpt>
      <trkpt lat="43.51562" lon="5.73404">
        <ele>316.411011</ele>
        <time>2012-04-09T06:19:48Z</time>
      </trkpt>
      <trkpt lat="43.51567" lon="5.73403">
        <ele>316.891724</ele>
        <time>2012-04-09T06:19:49Z</time>
      </trkpt>
      <trkpt lat="43.51606" lon="5.73383">
        <ele>318.333618</ele>
        <time>2012-04-09T06:19:58Z</time>
      </trkpt>
      <trkpt lat="43.5164" lon="5.73365">
        <ele>319.295044</ele>
        <time>2012-04-09T06:20:06Z</time>
      </trkpt>
      <trkpt lat="43.51682" lon="5.73342">
        <ele>320.737061</ele>
        <time>2012-04-09T06:20:16Z</time>
      </trkpt>
      <trkpt lat="43.51714" lon="5.73324">
        <ele>323.140381</ele>
        <time>2012-04-09T06:20:24Z</time>
      </trkpt>
      <trkpt lat="43.51747" lon="5.73297">
        <ele>324.582275</ele>
        <time>2012-04-09T06:20:32Z</time>
      </trkpt>
      <trkpt lat="43.5178" lon="5.73264">
        <ele>324.582275</ele>
        <time>2012-04-09T06:20:40Z</time>
      </trkpt>
      <trkpt lat="43.51824" lon="5.7323">
        <ele>326.504883</ele>
        <time>2012-04-09T06:20:50Z</time>
      </trkpt>
      <trkpt lat="43.51829" lon="5.73227">
        <ele>326.02417</ele>
        <time>2012-04-09T06:20:51Z</time>
      </trkpt>
      <trkpt lat="43.51838" lon="5.73223">
        <ele>326.02417</ele>
        <time>2012-04-09T06:20:53Z</time>
      </trkpt>
      <trkpt lat="43.51863" lon="5.73223">
        <ele>326.504883</ele>
        <time>2012-04-09T06:20:58Z</time>
      </trkpt>
      <trkpt lat="43.51878" lon="5.73237">
        <ele>326.504883</ele>
        <time>2012-04-09T06:21:02Z</time>
      </trkpt>
      <trkpt lat="43.51903" lon="5.73278">
        <ele>327.466187</ele>
        <time>2012-04-09T06:21:10Z</time>
      </trkpt>
      <trkpt lat="43.51909" lon="5.73311">
        <ele>328.427612</ele>
        <time>2012-04-09T06:21:15Z</time>
      </trkpt>
      <trkpt lat="43.51904" lon="5.73374">
        <ele>330.830933</ele>
        <time>2012-04-09T06:21:25Z</time>
      </trkpt>
      <trkpt lat="43.51903" lon="5.73385">
        <ele>330.830933</ele>
        <time>2012-04-09T06:21:27Z</time>
      </trkpt>
      <trkpt lat="43.51908" lon="5.73415">
        <ele>331.792114</ele>
        <time>2012-04-09T06:21:32Z</time>
      </trkpt>
      <trkpt lat="43.51923" lon="5.73431">
        <ele>331.792114</ele>
        <time>2012-04-09T06:21:36Z</time>
      </trkpt>
      <trkpt lat="43.51927" lon="5.73434">
        <ele>331.792114</ele>
        <time>2012-04-09T06:21:37Z</time>
      </trkpt>
      <trkpt lat="43.51966" lon="5.73448">
        <ele>332.272827</ele>
        <time>2012-04-09T06:21:45Z</time>
      </trkpt>
      <trkpt lat="43.5197" lon="5.7345">
        <ele>332.75354</ele>
        <time>2012-04-09T06:21:46Z</time>
      </trkpt>
      <trkpt lat="43.52012" lon="5.73451">
        <ele>335.156738</ele>
        <time>2012-04-09T06:21:55Z</time>
      </trkpt>
      <trkpt lat="43.52049" lon="5.73438">
        <ele>338.521484</ele>
        <time>2012-04-09T06:22:04Z</time>
      </trkpt>
      <trkpt lat="43.52062" lon="5.73433">
        <ele>338.521484</ele>
        <time>2012-04-09T06:22:07Z</time>
      </trkpt>
      <trkpt lat="43.52101" lon="5.73415">
        <ele>339.482666</ele>
        <time>2012-04-09T06:22:16Z</time>
      </trkpt>
      <trkpt lat="43.52141" lon="5.73398">
        <ele>341.885986</ele>
        <time>2012-04-09T06:22:25Z</time>
      </trkpt>
      <trkpt lat="43.52184" lon="5.7338">
        <ele>341.405273</ele>
        <time>2012-04-09T06:22:34Z</time>
      </trkpt>
      <trkpt lat="43.52217" lon="5.73367">
        <ele>340.924683</ele>
        <time>2012-04-09T06:22:41Z</time>
      </trkpt>
      <trkpt lat="43.5223" lon="5.73363">
        <ele>341.405273</ele>
        <time>2012-04-09T06:22:44Z</time>
      </trkpt>
      <trkpt lat="43.52251" lon="5.7337">
        <ele>341.885986</ele>
        <time>2012-04-09T06:22:49Z</time>
      </trkpt>
      <trkpt lat="43.52263" lon="5.73385">
        <ele>341.885986</ele>
        <time>2012-04-09T06:22:53Z</time>
      </trkpt>
      <trkpt lat="43.52265" lon="5.73389">
        <ele>342.366699</ele>
        <time>2012-04-09T06:22:54Z</time>
      </trkpt>
      <trkpt lat="43.52285" lon="5.7343">
        <ele>344.77002</ele>
        <time>2012-04-09T06:23:04Z</time>
      </trkpt>
      <trkpt lat="43.52306" lon="5.73463">
        <ele>347.173218</ele>
        <time>2012-04-09T06:23:13Z</time>
      </trkpt>
      <trkpt lat="43.52327" lon="5.73488">
        <ele>349.095825</ele>
        <time>2012-04-09T06:23:21Z</time>
      </trkpt>
      <trkpt lat="43.5235" lon="5.73496">
        <ele>350.057251</ele>
        <time>2012-04-09T06:23:28Z</time>
      </trkpt>
      <trkpt lat="43.52381" lon="5.73501">
        <ele>352.460571</ele>
        <time>2012-04-09T06:23:37Z</time>
      </trkpt>
      <trkpt lat="43.524" lon="5.73518">
        <ele>352.941162</ele>
        <time>2012-04-09T06:23:44Z</time>
      </trkpt>
      <trkpt lat="43.52422" lon="5.73533">
        <ele>354.383179</ele>
        <time>2012-04-09T06:23:52Z</time>
      </trkpt>
      <trkpt lat="43.52437" lon="5.73524">
        <ele>356.305786</ele>
        <time>2012-04-09T06:23:57Z</time>
      </trkpt>
      <trkpt lat="43.52456" lon="5.73503">
        <ele>358.228394</ele>
        <time>2012-04-09T06:24:04Z</time>
      </trkpt>
      <trkpt lat="43.52476" lon="5.73499">
        <ele>359.67041</ele>
        <time>2012-04-09T06:24:10Z</time>
      </trkpt>
      <trkpt lat="43.52505" lon="5.735">
        <ele>361.59314</ele>
        <time>2012-04-09T06:24:18Z</time>
      </trkpt>
      <trkpt lat="43.52527" lon="5.73511">
        <ele>362.07373</ele>
        <time>2012-04-09T06:24:25Z</time>
      </trkpt>
      <trkpt lat="43.52559" lon="5.7353">
        <ele>364.476929</ele>
        <time>2012-04-09T06:24:35Z</time>
      </trkpt>
      <trkpt lat="43.52575" lon="5.73531">
        <ele>366.399536</ele>
        <time>2012-04-09T06:24:40Z</time>
      </trkpt>
      <trkpt lat="43.52584" lon="5.73518">
        <ele>367.841553</ele>
        <time>2012-04-09T06:24:44Z</time>
      </trkpt>
      <trkpt lat="43.52592" lon="5.73483">
        <ele>372.16748</ele>
        <time>2012-04-09T06:24:52Z</time>
      </trkpt>
      <trkpt lat="43.52603" lon="5.73449">
        <ele>375.051514</ele>
        <time>2012-04-09T06:25:00Z</time>
      </trkpt>
      <trkpt lat="43.52616" lon="5.73426">
        <ele>380.819458</ele>
        <time>2012-04-09T06:25:06Z</time>
      </trkpt>
      <trkpt lat="43.52629" lon="5.73433">
        <ele>380.338745</ele>
        <time>2012-04-09T06:25:10Z</time>
      </trkpt>
      <trkpt lat="43.52645" lon="5.73458">
        <ele>379.377441</ele>
        <time>2012-04-09T06:25:17Z</time>
      </trkpt>
      <trkpt lat="43.52664" lon="5.73493">
        <ele>379.377441</ele>
        <time>2012-04-09T06:25:26Z</time>
      </trkpt>
      <trkpt lat="43.5268" lon="5.73534">
        <ele>380.338745</ele>
        <time>2012-04-09T06:25:35Z</time>
      </trkpt>
      <trkpt lat="43.527" lon="5.73568">
        <ele>384.184082</ele>
        <time>2012-04-09T06:25:43Z</time>
      </trkpt>
      <trkpt lat="43.52717" lon="5.73575">
        <ele>384.184082</ele>
        <time>2012-04-09T06:25:48Z</time>
      </trkpt>
      <trkpt lat="43.52736" lon="5.73569">
        <ele>384.664795</ele>
        <time>2012-04-09T06:25:53Z</time>
      </trkpt>
      <trkpt lat="43.52752" lon="5.7355">
        <ele>387.548584</ele>
        <time>2012-04-09T06:25:59Z</time>
      </trkpt>
      <trkpt lat="43.52755" lon="5.73531">
        <ele>388.51001</ele>
        <time>2012-04-09T06:26:03Z</time>
      </trkpt>
      <trkpt lat="43.52748" lon="5.73507">
        <ele>389.471191</ele>
        <time>2012-04-09T06:26:08Z</time>
      </trkpt>
      <trkpt lat="43.52744" lon="5.73487">
        <ele>389.471191</ele>
        <time>2012-04-09T06:26:12Z</time>
      </trkpt>
      <trkpt lat="43.52751" lon="5.7347">
        <ele>390.432617</ele>
        <time>2012-04-09T06:26:16Z</time>
      </trkpt>
      <trkpt lat="43.52755" lon="5.73468">
        <ele>390.432617</ele>
        <time>2012-04-09T06:26:17Z</time>
      </trkpt>
      <trkpt lat="43.52785" lon="5.73449">
        <ele>389.951904</ele>
        <time>2012-04-09T06:26:26Z</time>
      </trkpt>
      <trkpt lat="43.52802" lon="5.73438">
        <ele>389.951904</ele>
        <time>2012-04-09T06:26:31Z</time>
      </trkpt>
      <trkpt lat="43.52824" lon="5.73433">
        <ele>389.951904</ele>
        <time>2012-04-09T06:26:37Z</time>
      </trkpt>
      <trkpt lat="43.52841" lon="5.7344">
        <ele>390.432617</ele>
        <time>2012-04-09T06:26:42Z</time>
      </trkpt>
      <trkpt lat="43.52861" lon="5.73446">
        <ele>391.874512</ele>
        <time>2012-04-09T06:26:48Z</time>
      </trkpt>
      <trkpt lat="43.52875" lon="5.73433">
        <ele>396.200562</ele>
        <time>2012-04-09T06:26:53Z</time>
      </trkpt>
      <trkpt lat="43.52893" lon="5.73419">
        <ele>397.161743</ele>
        <time>2012-04-09T06:26:59Z</time>
      </trkpt>
      <trkpt lat="43.52909" lon="5.73424">
        <ele>399.565063</ele>
        <time>2012-04-09T06:27:04Z</time>
      </trkpt>
      <trkpt lat="43.52922" lon="5.73447">
        <ele>401.00708</ele>
        <time>2012-04-09T06:27:10Z</time>
      </trkpt>
      <trkpt lat="43.52941" lon="5.73468">
        <ele>402.449097</ele>
        <time>2012-04-09T06:27:17Z</time>
      </trkpt>
      <trkpt lat="43.52962" lon="5.73474">
        <ele>403.4104</ele>
        <time>2012-04-09T06:27:23Z</time>
      </trkpt>
      <trkpt lat="43.52989" lon="5.73478">
        <ele>403.891113</ele>
        <time>2012-04-09T06:27:31Z</time>
      </trkpt>
      <trkpt lat="43.53014" lon="5.73477">
        <ele>404.371704</ele>
        <time>2012-04-09T06:27:38Z</time>
      </trkpt>
      <trkpt lat="43.53026" lon="5.73465">
        <ele>405.813721</ele>
        <time>2012-04-09T06:27:42Z</time>
      </trkpt>
      <trkpt lat="43.53037" lon="5.73435">
        <ele>407.255615</ele>
        <time>2012-04-09T06:27:49Z</time>
      </trkpt>
      <trkpt lat="43.53049" lon="5.73411">
        <ele>410.139648</ele>
        <time>2012-04-09T06:27:55Z</time>
      </trkpt>
      <trkpt lat="43.53073" lon="5.73383">
        <ele>413.02356</ele>
        <time>2012-04-09T06:28:04Z</time>
      </trkpt>
      <trkpt lat="43.53082" lon="5.73362">
        <ele>415.907471</ele>
        <time>2012-04-09T06:28:09Z</time>
      </trkpt>
      <trkpt lat="43.53088" lon="5.73328">
        <ele>418.791504</ele>
        <time>2012-04-09T06:28:16Z</time>
      </trkpt>
      <trkpt lat="43.5309" lon="5.73288">
        <ele>419.752808</ele>
        <time>2012-04-09T06:28:24Z</time>
      </trkpt>
      <trkpt lat="43.5309" lon="5.73249">
        <ele>421.194824</ele>
        <time>2012-04-09T06:28:32Z</time>
      </trkpt>
      <trkpt lat="43.53096" lon="5.73211">
        <ele>422.636719</ele>
        <time>2012-04-09T06:28:40Z</time>
      </trkpt>
      <trkpt lat="43.53111" lon="5.73198">
        <ele>424.078735</ele>
        <time>2012-04-09T06:28:45Z</time>
      </trkpt>
      <trkpt lat="43.53127" lon="5.732">
        <ele>425.040161</ele>
        <time>2012-04-09T06:28:49Z</time>
      </trkpt>
      <trkpt lat="43.53158" lon="5.73195">
        <ele>426.962769</ele>
        <time>2012-04-09T06:28:56Z</time>
      </trkpt>
      <trkpt lat="43.53193" lon="5.73178">
        <ele>427.443359</ele>
        <time>2012-04-09T06:29:04Z</time>
      </trkpt>
      <trkpt lat="43.53217" lon="5.73162">
        <ele>427.92395</ele>
        <time>2012-04-09T06:29:10Z</time>
      </trkpt>
      <trkpt lat="43.53237" lon="5.73162">
        <ele>429.846558</ele>
        <time>2012-04-09T06:29:15Z</time>
      </trkpt>
      <trkpt lat="43.53247" lon="5.7317">
        <ele>430.807983</ele>
        <time>2012-04-09T06:29:18Z</time>
      </trkpt>
      <trkpt lat="43.5326" lon="5.73183">
        <ele>431.769165</ele>
        <time>2012-04-09T06:29:22Z</time>
      </trkpt>
      <trkpt lat="43.53281" lon="5.73185">
        <ele>432.730713</ele>
        <time>2012-04-09T06:29:27Z</time>
      </trkpt>
      <trkpt lat="43.53285" lon="5.73183">
        <ele>433.211304</ele>
        <time>2012-04-09T06:29:28Z</time>
      </trkpt>
      <trkpt lat="43.53301" lon="5.73159">
        <ele>435.614502</ele>
        <time>2012-04-09T06:29:34Z</time>
      </trkpt>
      <trkpt lat="43.53302" lon="5.73132">
        <ele>437.056519</ele>
        <time>2012-04-09T06:29:39Z</time>
      </trkpt>
      <trkpt lat="43.53301" lon="5.73127">
        <ele>438.017822</ele>
        <time>2012-04-09T06:29:40Z</time>
      </trkpt>
      <trkpt lat="43.53294" lon="5.73093">
        <ele>438.979126</ele>
        <time>2012-04-09T06:29:47Z</time>
      </trkpt>
      <trkpt lat="43.53303" lon="5.73071">
        <ele>441.863159</ele>
        <time>2012-04-09T06:29:52Z</time>
      </trkpt>
      <trkpt lat="43.53317" lon="5.73071">
        <ele>441.863159</ele>
        <time>2012-04-09T06:29:56Z</time>
      </trkpt>
      <trkpt lat="43.53332" lon="5.73076">
        <ele>443.305054</ele>
        <time>2012-04-09T06:30:00Z</time>
      </trkpt>
      <trkpt lat="43.5335" lon="5.73063">
        <ele>443.785767</ele>
        <time>2012-04-09T06:30:05Z</time>
      </trkpt>
      <trkpt lat="43.53359" lon="5.73051">
        <ele>444.266479</ele>
        <time>2012-04-09T06:30:08Z</time>
      </trkpt>
      <trkpt lat="43.53368" lon="5.7304">
        <ele>444.74707</ele>
        <time>2012-04-09T06:30:11Z</time>
      </trkpt>
      <trkpt lat="43.53388" lon="5.73037">
        <ele>445.708374</ele>
        <time>2012-04-09T06:30:16Z</time>
      </trkpt>
      <trkpt lat="43.53394" lon="5.73045">
        <ele>445.708374</ele>
        <time>2012-04-09T06:30:18Z</time>
      </trkpt>
      <trkpt lat="43.53406" lon="5.73058">
        <ele>446.189087</ele>
        <time>2012-04-09T06:30:22Z</time>
      </trkpt>
      <trkpt lat="43.53422" lon="5.7305">
        <ele>446.669678</ele>
        <time>2012-04-09T06:30:26Z</time>
      </trkpt>
      <trkpt lat="43.53425" lon="5.73046">
        <ele>446.669678</ele>
        <time>2012-04-09T06:30:27Z</time>
      </trkpt>
      <trkpt lat="43.53451" lon="5.73002">
        <ele>446.669678</ele>
        <time>2012-04-09T06:30:36Z</time>
      </trkpt>
      <trkpt lat="43.53477" lon="5.72967">
        <ele>446.669678</ele>
        <time>2012-04-09T06:30:43Z</time>
      </trkpt>
      <trkpt lat="43.53489" lon="5.72957">
        <ele>446.669678</ele>
        <time>2012-04-09T06:30:46Z</time>
      </trkpt>
      <trkpt lat="43.53513" lon="5.7295">
        <ele>447.150269</ele>
        <time>2012-04-09T06:30:51Z</time>
      </trkpt>
      <trkpt lat="43.53523" lon="5.72951">
        <ele>447.630981</ele>
        <time>2012-04-09T06:30:53Z</time>
      </trkpt>
      <trkpt lat="43.53544" lon="5.72965">
        <ele>448.592407</ele>
        <time>2012-04-09T06:30:58Z</time>
      </trkpt>
      <trkpt lat="43.53547" lon="5.7297">
        <ele>448.592407</ele>
        <time>2012-04-09T06:30:59Z</time>
      </trkpt>
      <trkpt lat="43.53557" lon="5.72993">
        <ele>449.553711</ele>
        <time>2012-04-09T06:31:03Z</time>
      </trkpt>
      <trkpt lat="43.53575" lon="5.73006">
        <ele>450.515015</ele>
        <time>2012-04-09T06:31:07Z</time>
      </trkpt>
      <trkpt lat="43.53588" lon="5.72993">
        <ele>451.476318</ele>
        <time>2012-04-09T06:31:10Z</time>
      </trkpt>
      <trkpt lat="43.5359" lon="5.72979">
        <ele>451.476318</ele>
        <time>2012-04-09T06:31:12Z</time>
      </trkpt>
      <trkpt lat="43.53593" lon="5.72951">
        <ele>451.957031</ele>
        <time>2012-04-09T06:31:16Z</time>
      </trkpt>
      <trkpt lat="43.53611" lon="5.72905">
        <ele>452.437622</ele>
        <time>2012-04-09T06:31:23Z</time>
      </trkpt>
      <trkpt lat="43.53623" lon="5.72886">
        <ele>452.918213</ele>
        <time>2012-04-09T06:31:26Z</time>
      </trkpt>
      <trkpt lat="43.53648" lon="5.72867">
        <ele>453.879639</ele>
        <time>2012-04-09T06:31:31Z</time>
      </trkpt>
      <trkpt lat="43.53659" lon="5.72864">
        <ele>454.360229</ele>
        <time>2012-04-09T06:31:33Z</time>
      </trkpt>
      <trkpt lat="43.53698" lon="5.72866">
        <ele>454.84082</ele>
        <time>2012-04-09T06:31:40Z</time>
      </trkpt>
      <trkpt lat="43.53735" lon="5.72871">
        <ele>456.76355</ele>
        <time>2012-04-09T06:31:47Z</time>
      </trkpt>
      <trkpt lat="43.53755" lon="5.72876">
        <ele>458.205566</ele>
        <time>2012-04-09T06:31:51Z</time>
      </trkpt>
      <trkpt lat="43.53773" lon="5.72894">
        <ele>459.647583</ele>
        <time>2012-04-09T06:31:56Z</time>
      </trkpt>
      <trkpt lat="43.53775" lon="5.729">
        <ele>459.647583</ele>
        <time>2012-04-09T06:31:57Z</time>
      </trkpt>
      <trkpt lat="43.53789" lon="5.7296">
        <ele>460.128174</ele>
        <time>2012-04-09T06:32:05Z</time>
      </trkpt>
      <trkpt lat="43.53806" lon="5.73003">
        <ele>461.57019</ele>
        <time>2012-04-09T06:32:11Z</time>
      </trkpt>
      <trkpt lat="43.53831" lon="5.73045">
        <ele>462.050781</ele>
        <time>2012-04-09T06:32:18Z</time>
      </trkpt>
      <trkpt lat="43.53854" lon="5.73089">
        <ele>463.012085</ele>
        <time>2012-04-09T06:32:25Z</time>
      </trkpt>
      <trkpt lat="43.53878" lon="5.73122">
        <ele>464.454102</ele>
        <time>2012-04-09T06:32:31Z</time>
      </trkpt>
      <trkpt lat="43.53895" lon="5.73164">
        <ele>465.896118</ele>
        <time>2012-04-09T06:32:37Z</time>
      </trkpt>
      <trkpt lat="43.5391" lon="5.73223">
        <ele>468.299316</ele>
        <time>2012-04-09T06:32:45Z</time>
      </trkpt>
      <trkpt lat="43.53927" lon="5.73262">
        <ele>469.260742</ele>
        <time>2012-04-09T06:32:51Z</time>
      </trkpt>
      <trkpt lat="43.53962" lon="5.73296">
        <ele>470.702637</ele>
        <time>2012-04-09T06:32:59Z</time>
      </trkpt>
      <trkpt lat="43.54001" lon="5.73327">
        <ele>471.66394</ele>
        <time>2012-04-09T06:33:08Z</time>
      </trkpt>
      <trkpt lat="43.54041" lon="5.73358">
        <ele>473.58667</ele>
        <time>2012-04-09T06:33:17Z</time>
      </trkpt>
      <trkpt lat="43.54078" lon="5.73387">
        <ele>475.989868</ele>
        <time>2012-04-09T06:33:26Z</time>
      </trkpt>
      <trkpt lat="43.54111" lon="5.73414">
        <ele>477.912476</ele>
        <time>2012-04-09T06:33:35Z</time>
      </trkpt>
      <trkpt lat="43.54136" lon="5.73432">
        <ele>479.835083</ele>
        <time>2012-04-09T06:33:41Z</time>
      </trkpt>
      <trkpt lat="43.54173" lon="5.73456">
        <ele>481.757812</ele>
        <time>2012-04-09T06:33:50Z</time>
      </trkpt>
      <trkpt lat="43.54205" lon="5.73476">
        <ele>483.68042</ele>
        <time>2012-04-09T06:33:58Z</time>
      </trkpt>
      <trkpt lat="43.54241" lon="5.735">
        <ele>486.08374</ele>
        <time>2012-04-09T06:34:07Z</time>
      </trkpt>
      <trkpt lat="43.5428" lon="5.73525">
        <ele>488.00647</ele>
        <time>2012-04-09T06:34:17Z</time>
      </trkpt>
      <trkpt lat="43.54314" lon="5.73547">
        <ele>489.929077</ele>
        <time>2012-04-09T06:34:26Z</time>
      </trkpt>
      <trkpt lat="43.54337" lon="5.73563">
        <ele>490.40979</ele>
        <time>2012-04-09T06:34:32Z</time>
      </trkpt>
      <trkpt lat="43.54367" lon="5.73587">
        <ele>490.890381</ele>
        <time>2012-04-09T06:34:40Z</time>
      </trkpt>
      <trkpt lat="43.54388" lon="5.73605">
        <ele>490.40979</ele>
        <time>2012-04-09T06:34:47Z</time>
      </trkpt>
      <trkpt lat="43.544" lon="5.73617">
        <ele>488.00647</ele>
        <time>2012-04-09T06:34:54Z</time>
      </trkpt>
      <trkpt lat="43.54402" lon="5.73619">
        <ele>487.525635</ele>
        <time>2012-04-09T06:34:58Z</time>
      </trkpt>
      <trkpt lat="43.54407" lon="5.73617">
        <ele>487.045044</ele>
        <time>2012-04-09T06:37:24Z</time>
      </trkpt>
      <trkpt lat="43.54407" lon="5.73617">
        <ele>486.564453</ele>
        <time>2012-04-09T06:37:25Z</time>
      </trkpt>
      <trkpt lat="43.54408" lon="5.73618">
        <ele>490.40979</ele>
        <time>2012-04-09T06:43:31Z</time>
      </trkpt>
      <trkpt lat="43.54409" lon="5.73617">
        <ele>489.929077</ele>
        <time>2012-04-09T06:43:32Z</time>
      </trkpt>
      <trkpt lat="43.54402" lon="5.73608">
        <ele>488.967773</ele>
        <time>2012-04-09T06:43:36Z</time>
      </trkpt>
      <trkpt lat="43.54391" lon="5.73601">
        <ele>488.967773</ele>
        <time>2012-04-09T06:43:41Z</time>
      </trkpt>
      <trkpt lat="43.54371" lon="5.73585">
        <ele>488.487183</ele>
        <time>2012-04-09T06:43:49Z</time>
      </trkpt>
      <trkpt lat="43.54349" lon="5.73569">
        <ele>488.00647</ele>
        <time>2012-04-09T06:43:57Z</time>
      </trkpt>
      <trkpt lat="43.54326" lon="5.73552">
        <ele>488.487183</ele>
        <time>2012-04-09T06:44:05Z</time>
      </trkpt>
      <trkpt lat="43.54302" lon="5.73536">
        <ele>488.967773</ele>
        <time>2012-04-09T06:44:12Z</time>
      </trkpt>
      <trkpt lat="43.54379" lon="5.73595">
        <ele>488.967773</ele>
        <time>2012-04-09T06:52:03Z</time>
      </trkpt>
      <trkpt lat="43.54417" lon="5.73627">
        <ele>488.487183</ele>
        <time>2012-04-09T06:52:10Z</time>
      </trkpt>
      <trkpt lat="43.54467" lon="5.7367">
        <ele>485.122437</ele>
        <time>2012-04-09T06:52:19Z</time>
      </trkpt>
      <trkpt lat="43.54524" lon="5.73723">
        <ele>480.796631</ele>
        <time>2012-04-09T06:52:28Z</time>
      </trkpt>
      <trkpt lat="43.5453" lon="5.7373">
        <ele>480.315918</ele>
        <time>2012-04-09T06:52:29Z</time>
      </trkpt>
      <trkpt lat="43.54569" lon="5.73754">
        <ele>477.431885</ele>
        <time>2012-04-09T06:52:34Z</time>
      </trkpt>
      <trkpt lat="43.54597" lon="5.73755">
        <ele>476.470581</ele>
        <time>2012-04-09T06:52:37Z</time>
      </trkpt>
      <trkpt lat="43.54654" lon="5.73741">
        <ele>473.106079</ele>
        <time>2012-04-09T06:52:43Z</time>
      </trkpt>
      <trkpt lat="43.54683" lon="5.73728">
        <ele>471.66394</ele>
        <time>2012-04-09T06:52:46Z</time>
      </trkpt>
      <trkpt lat="43.54775" lon="5.73657">
        <ele>467.338135</ele>
        <time>2012-04-09T06:52:56Z</time>
      </trkpt>
      <trkpt lat="43.5487" lon="5.73581">
        <ele>464.454102</ele>
        <time>2012-04-09T06:53:07Z</time>
      </trkpt>
      <trkpt lat="43.54945" lon="5.73523">
        <ele>462.050781</ele>
        <time>2012-04-09T06:53:16Z</time>
      </trkpt>
      <trkpt lat="43.5503" lon="5.73454">
        <ele>458.686157</ele>
        <time>2012-04-09T06:53:26Z</time>
      </trkpt>
      <trkpt lat="43.5511" lon="5.73389">
        <ele>455.802246</ele>
        <time>2012-04-09T06:53:35Z</time>
      </trkpt>
      <trkpt lat="43.55188" lon="5.73327">
        <ele>453.879639</ele>
        <time>2012-04-09T06:53:44Z</time>
      </trkpt>
      <trkpt lat="43.55273" lon="5.73258">
        <ele>450.034424</ele>
        <time>2012-04-09T06:53:54Z</time>
      </trkpt>
      <trkpt lat="43.55339" lon="5.73203">
        <ele>448.111816</ele>
        <time>2012-04-09T06:54:02Z</time>
      </trkpt>
      <trkpt lat="43.55361" lon="5.73164">
        <ele>447.150269</ele>
        <time>2012-04-09T06:54:06Z</time>
      </trkpt>
      <trkpt lat="43.55359" lon="5.73126">
        <ele>445.227661</ele>
        <time>2012-04-09T06:54:09Z</time>
      </trkpt>
      <trkpt lat="43.55365" lon="5.73104">
        <ele>444.266479</ele>
        <time>2012-04-09T06:54:11Z</time>
      </trkpt>
      <trkpt lat="43.55381" lon="5.73099">
        <ele>444.74707</ele>
        <time>2012-04-09T06:54:13Z</time>
      </trkpt>
      <trkpt lat="43.5539" lon="5.73101">
        <ele>444.74707</ele>
        <time>2012-04-09T06:54:14Z</time>
      </trkpt>
      <trkpt lat="43.55439" lon="5.73116">
        <ele>447.630981</ele>
        <time>2012-04-09T06:54:20Z</time>
      </trkpt>
      <trkpt lat="43.55484" lon="5.73111">
        <ele>449.553711</ele>
        <time>2012-04-09T06:54:26Z</time>
      </trkpt>
      <trkpt lat="43.55519" lon="5.73096">
        <ele>449.072998</ele>
        <time>2012-04-09T06:54:31Z</time>
      </trkpt>
      <trkpt lat="43.55555" lon="5.73057">
        <ele>448.592407</ele>
        <time>2012-04-09T06:54:37Z</time>
      </trkpt>
      <trkpt lat="43.55571" lon="5.7301">
        <ele>447.630981</ele>
        <time>2012-04-09T06:54:42Z</time>
      </trkpt>
      <trkpt lat="43.55593" lon="5.72935">
        <ele>444.266479</ele>
        <time>2012-04-09T06:54:49Z</time>
      </trkpt>
      <trkpt lat="43.55614" lon="5.72892">
        <ele>442.824463</ele>
        <time>2012-04-09T06:54:53Z</time>
      </trkpt>
      <trkpt lat="43.55621" lon="5.72882">
        <ele>442.343872</ele>
        <time>2012-04-09T06:54:54Z</time>
      </trkpt>
      <trkpt lat="43.55655" lon="5.72854">
        <ele>440.421265</ele>
        <time>2012-04-09T06:54:58Z</time>
      </trkpt>
      <trkpt lat="43.55722" lon="5.72826">
        <ele>439.459717</ele>
        <time>2012-04-09T06:55:05Z</time>
      </trkpt>
      <trkpt lat="43.55773" lon="5.72811">
        <ele>441.863159</ele>
        <time>2012-04-09T06:55:11Z</time>
      </trkpt>
      <trkpt lat="43.55808" lon="5.72801">
        <ele>443.305054</ele>
        <time>2012-04-09T06:55:16Z</time>
      </trkpt>
      <trkpt lat="43.5582" lon="5.728">
        <ele>443.785767</ele>
        <time>2012-04-09T06:55:18Z</time>
      </trkpt>
      <trkpt lat="43.55841" lon="5.72808">
        <ele>445.227661</ele>
        <time>2012-04-09T06:55:22Z</time>
      </trkpt>
      <trkpt lat="43.55879" lon="5.72841">
        <ele>447.630981</ele>
        <time>2012-04-09T06:55:30Z</time>
      </trkpt>
      <trkpt lat="43.55909" lon="5.72874">
        <ele>450.034424</ele>
        <time>2012-04-09T06:55:38Z</time>
      </trkpt>
      <trkpt lat="43.55947" lon="5.72908">
        <ele>451.476318</ele>
        <time>2012-04-09T06:55:47Z</time>
      </trkpt>
      <trkpt lat="43.55987" lon="5.72937">
        <ele>451.476318</ele>
        <time>2012-04-09T06:55:55Z</time>
      </trkpt>
      <trkpt lat="43.56037" lon="5.72964">
        <ele>450.515015</ele>
        <time>2012-04-09T06:56:03Z</time>
      </trkpt>
      <trkpt lat="43.56091" lon="5.72985">
        <ele>450.515015</ele>
        <time>2012-04-09T06:56:11Z</time>
      </trkpt>
      <trkpt lat="43.56156" lon="5.73005">
        <ele>449.553711</ele>
        <time>2012-04-09T06:56:20Z</time>
      </trkpt>
      <trkpt lat="43.56235" lon="5.73033">
        <ele>449.072998</ele>
        <time>2012-04-09T06:56:31Z</time>
      </trkpt>
      <trkpt lat="43.56275" lon="5.73058">
        <ele>449.072998</ele>
        <time>2012-04-09T06:56:37Z</time>
      </trkpt>
      <trkpt lat="43.56333" lon="5.73108">
        <ele>447.630981</ele>
        <time>2012-04-09T06:56:46Z</time>
      </trkpt>
      <trkpt lat="43.56368" lon="5.73128">
        <ele>445.708374</ele>
        <time>2012-04-09T06:56:51Z</time>
      </trkpt>
      <trkpt lat="43.56408" lon="5.7314">
        <ele>443.305054</ele>
        <time>2012-04-09T06:56:56Z</time>
      </trkpt>
      <trkpt lat="43.56446" lon="5.73171">
        <ele>440.901855</ele>
        <time>2012-04-09T06:57:01Z</time>
      </trkpt>
      <trkpt lat="43.56503" lon="5.73234">
        <ele>437.056519</ele>
        <time>2012-04-09T06:57:09Z</time>
      </trkpt>
      <trkpt lat="43.56539" lon="5.73294">
        <ele>433.691895</ele>
        <time>2012-04-09T06:57:15Z</time>
      </trkpt>
      <trkpt lat="43.56546" lon="5.73317">
        <ele>433.211304</ele>
        <time>2012-04-09T06:57:17Z</time>
      </trkpt>
      <trkpt lat="43.56571" lon="5.73353">
        <ele>430.807983</ele>
        <time>2012-04-09T06:57:21Z</time>
      </trkpt>
      <trkpt lat="43.56609" lon="5.73398">
        <ele>428.885376</ele>
        <time>2012-04-09T06:57:26Z</time>
      </trkpt>
      <trkpt lat="43.56616" lon="5.73409">
        <ele>428.404663</ele>
        <time>2012-04-09T06:57:27Z</time>
      </trkpt>
      <trkpt lat="43.5665" lon="5.73445">
        <ele>426.482056</ele>
        <time>2012-04-09T06:57:31Z</time>
      </trkpt>
      <trkpt lat="43.56672" lon="5.73478">
        <ele>424.559448</ele>
        <time>2012-04-09T06:57:34Z</time>
      </trkpt>
      <trkpt lat="43.56674" lon="5.73506">
        <ele>423.598022</ele>
        <time>2012-04-09T06:57:36Z</time>
      </trkpt>
      <trkpt lat="43.56665" lon="5.73546">
        <ele>421.675415</ele>
        <time>2012-04-09T06:57:39Z</time>
      </trkpt>
      <trkpt lat="43.56671" lon="5.73572">
        <ele>420.714111</ele>
        <time>2012-04-09T06:57:41Z</time>
      </trkpt>
      <trkpt lat="43.56677" lon="5.73584">
        <ele>420.233398</ele>
        <time>2012-04-09T06:57:42Z</time>
      </trkpt>
      <trkpt lat="43.56745" lon="5.73696">
        <ele>415.907471</ele>
        <time>2012-04-09T06:57:52Z</time>
      </trkpt>
      <trkpt lat="43.56781" lon="5.73729">
        <ele>415.42688</ele>
        <time>2012-04-09T06:57:56Z</time>
      </trkpt>
      <trkpt lat="43.56809" lon="5.73742">
        <ele>416.388184</ele>
        <time>2012-04-09T06:57:59Z</time>
      </trkpt>
      <trkpt lat="43.56834" lon="5.73775">
        <ele>418.310791</ele>
        <time>2012-04-09T06:58:03Z</time>
      </trkpt>
      <trkpt lat="43.56838" lon="5.73785">
        <ele>418.791504</ele>
        <time>2012-04-09T06:58:04Z</time>
      </trkpt>
      <trkpt lat="43.56863" lon="5.73863">
        <ele>421.675415</ele>
        <time>2012-04-09T06:58:12Z</time>
      </trkpt>
      <trkpt lat="43.56886" lon="5.7391">
        <ele>424.078735</ele>
        <time>2012-04-09T06:58:18Z</time>
      </trkpt>
      <trkpt lat="43.56899" lon="5.73938">
        <ele>425.040161</ele>
        <time>2012-04-09T06:58:22Z</time>
      </trkpt>
      <trkpt lat="43.56907" lon="5.73976">
        <ele>426.001343</ele>
        <time>2012-04-09T06:58:27Z</time>
      </trkpt>
      <trkpt lat="43.56899" lon="5.74003">
        <ele>427.443359</ele>
        <time>2012-04-09T06:58:31Z</time>
      </trkpt>
      <trkpt lat="43.56866" lon="5.7406">
        <ele>429.846558</ele>
        <time>2012-04-09T06:58:41Z</time>
      </trkpt>
      <trkpt lat="43.56844" lon="5.741">
        <ele>431.769165</ele>
        <time>2012-04-09T06:58:48Z</time>
      </trkpt>
      <trkpt lat="43.56812" lon="5.74175">
        <ele>434.172607</ele>
        <time>2012-04-09T06:59:00Z</time>
      </trkpt>
      <trkpt lat="43.56793" lon="5.74219">
        <ele>435.614502</ele>
        <time>2012-04-09T06:59:07Z</time>
      </trkpt>
      <trkpt lat="43.56785" lon="5.74245">
        <ele>436.575928</ele>
        <time>2012-04-09T06:59:11Z</time>
      </trkpt>
      <trkpt lat="43.56787" lon="5.74281">
        <ele>437.056519</ele>
        <time>2012-04-09T06:59:16Z</time>
      </trkpt>
      <trkpt lat="43.56795" lon="5.74299">
        <ele>437.056519</ele>
        <time>2012-04-09T06:59:19Z</time>
      </trkpt>
      <trkpt lat="43.56833" lon="5.7436">
        <ele>437.537109</ele>
        <time>2012-04-09T06:59:30Z</time>
      </trkpt>
      <trkpt lat="43.56867" lon="5.74416">
        <ele>438.017822</ele>
        <time>2012-04-09T06:59:40Z</time>
      </trkpt>
      <trkpt lat="43.56898" lon="5.74464">
        <ele>438.979126</ele>
        <time>2012-04-09T06:59:49Z</time>
      </trkpt>
      <trkpt lat="43.56924" lon="5.74491">
        <ele>440.901855</ele>
        <time>2012-04-09T06:59:56Z</time>
      </trkpt>
      <trkpt lat="43.56959" lon="5.74509">
        <ele>442.824463</ele>
        <time>2012-04-09T07:00:04Z</time>
      </trkpt>
      <trkpt lat="43.56997" lon="5.74531">
        <ele>444.266479</ele>
        <time>2012-04-09T07:00:13Z</time>
      </trkpt>
      <trkpt lat="43.5705" lon="5.74561">
        <ele>446.669678</ele>
        <time>2012-04-09T07:00:25Z</time>
      </trkpt>
      <trkpt lat="43.57102" lon="5.74594">
        <ele>448.592407</ele>
        <time>2012-04-09T07:00:37Z</time>
      </trkpt>
      <trkpt lat="43.57148" lon="5.74629">
        <ele>449.553711</ele>
        <time>2012-04-09T07:00:48Z</time>
      </trkpt>
      <trkpt lat="43.57187" lon="5.74659">
        <ele>450.034424</ele>
        <time>2012-04-09T07:00:57Z</time>
      </trkpt>
      <trkpt lat="43.57203" lon="5.74685">
        <ele>450.515015</ele>
        <time>2012-04-09T07:01:02Z</time>
      </trkpt>
      <trkpt lat="43.57204" lon="5.74705">
        <ele>450.995605</ele>
        <time>2012-04-09T07:01:05Z</time>
      </trkpt>
      <trkpt lat="43.57203" lon="5.74718">
        <ele>451.476318</ele>
        <time>2012-04-09T07:01:07Z</time>
      </trkpt>
      <trkpt lat="43.57209" lon="5.74751">
        <ele>451.957031</ele>
        <time>2012-04-09T07:01:12Z</time>
      </trkpt>
      <trkpt lat="43.57224" lon="5.74767">
        <ele>452.918213</ele>
        <time>2012-04-09T07:01:16Z</time>
      </trkpt>
      <trkpt lat="43.57249" lon="5.74774">
        <ele>453.398926</ele>
        <time>2012-04-09T07:01:21Z</time>
      </trkpt>
      <trkpt lat="43.57254" lon="5.74773">
        <ele>453.398926</ele>
        <time>2012-04-09T07:01:22Z</time>
      </trkpt>
      <trkpt lat="43.5728" lon="5.74768">
        <ele>454.360229</ele>
        <time>2012-04-09T07:01:27Z</time>
      </trkpt>
      <trkpt lat="43.57303" lon="5.74778">
        <ele>455.802246</ele>
        <time>2012-04-09T07:01:32Z</time>
      </trkpt>
      <trkpt lat="43.57311" lon="5.74787">
        <ele>456.282959</ele>
        <time>2012-04-09T07:01:34Z</time>
      </trkpt>
      <trkpt lat="43.57344" lon="5.74821">
        <ele>457.724976</ele>
        <time>2012-04-09T07:01:42Z</time>
      </trkpt>
      <trkpt lat="43.57383" lon="5.74853">
        <ele>459.647583</ele>
        <time>2012-04-09T07:01:51Z</time>
      </trkpt>
      <trkpt lat="43.57388" lon="5.74857">
        <ele>460.128174</ele>
        <time>2012-04-09T07:01:52Z</time>
      </trkpt>
      <trkpt lat="43.57402" lon="5.74878">
        <ele>460.608765</ele>
        <time>2012-04-09T07:01:56Z</time>
      </trkpt>
      <trkpt lat="43.57411" lon="5.74896">
        <ele>461.089478</ele>
        <time>2012-04-09T07:01:59Z</time>
      </trkpt>
      <trkpt lat="43.57432" lon="5.74913">
        <ele>461.57019</ele>
        <time>2012-04-09T07:02:04Z</time>
      </trkpt>
      <trkpt lat="43.57448" lon="5.74908">
        <ele>461.57019</ele>
        <time>2012-04-09T07:02:07Z</time>
      </trkpt>
      <trkpt lat="43.57462" lon="5.74898">
        <ele>462.050781</ele>
        <time>2012-04-09T07:02:10Z</time>
      </trkpt>
      <trkpt lat="43.57493" lon="5.7489">
        <ele>462.050781</ele>
        <time>2012-04-09T07:02:16Z</time>
      </trkpt>
      <trkpt lat="43.57531" lon="5.74889">
        <ele>463.492798</ele>
        <time>2012-04-09T07:02:23Z</time>
      </trkpt>
      <trkpt lat="43.57571" lon="5.74911">
        <ele>464.454102</ele>
        <time>2012-04-09T07:02:31Z</time>
      </trkpt>
      <trkpt lat="43.57608" lon="5.74936">
        <ele>464.454102</ele>
        <time>2012-04-09T07:02:38Z</time>
      </trkpt>
      <trkpt lat="43.57656" lon="5.74961">
        <ele>463.973389</ele>
        <time>2012-04-09T07:02:46Z</time>
      </trkpt>
      <trkpt lat="43.57706" lon="5.74981">
        <ele>463.492798</ele>
        <time>2012-04-09T07:02:54Z</time>
      </trkpt>
      <trkpt lat="43.57745" lon="5.7498">
        <ele>462.050781</ele>
        <time>2012-04-09T07:03:00Z</time>
      </trkpt>
      <trkpt lat="43.57788" lon="5.74967">
        <ele>459.647583</ele>
        <time>2012-04-09T07:03:06Z</time>
      </trkpt>
      <trkpt lat="43.5785" lon="5.74942">
        <ele>456.282959</ele>
        <time>2012-04-09T07:03:14Z</time>
      </trkpt>
      <trkpt lat="43.57923" lon="5.74912">
        <ele>453.398926</ele>
        <time>2012-04-09T07:03:23Z</time>
      </trkpt>
      <trkpt lat="43.57963" lon="5.74895">
        <ele>452.918213</ele>
        <time>2012-04-09T07:03:28Z</time>
      </trkpt>
      <trkpt lat="43.58026" lon="5.74872">
        <ele>451.476318</ele>
        <time>2012-04-09T07:03:36Z</time>
      </trkpt>
      <trkpt lat="43.58089" lon="5.74866">
        <ele>450.515015</ele>
        <time>2012-04-09T07:03:44Z</time>
      </trkpt>
      <trkpt lat="43.58166" lon="5.74863">
        <ele>450.034424</ele>
        <time>2012-04-09T07:03:54Z</time>
      </trkpt>
      <trkpt lat="43.58246" lon="5.74871">
        <ele>448.111816</ele>
        <time>2012-04-09T07:04:04Z</time>
      </trkpt>
      <trkpt lat="43.58253" lon="5.74871">
        <ele>448.111816</ele>
        <time>2012-04-09T07:04:05Z</time>
      </trkpt>
      <trkpt lat="43.58282" lon="5.74865">
        <ele>447.630981</ele>
        <time>2012-04-09T07:04:09Z</time>
      </trkpt>
      <trkpt lat="43.58328" lon="5.74836">
        <ele>447.150269</ele>
        <time>2012-04-09T07:04:16Z</time>
      </trkpt>
      <trkpt lat="43.58378" lon="5.74801">
        <ele>447.150269</ele>
        <time>2012-04-09T07:04:24Z</time>
      </trkpt>
      <trkpt lat="43.58429" lon="5.74773">
        <ele>447.150269</ele>
        <time>2012-04-09T07:04:32Z</time>
      </trkpt>
      <trkpt lat="43.58487" lon="5.74757">
        <ele>445.227661</ele>
        <time>2012-04-09T07:04:40Z</time>
      </trkpt>
      <trkpt lat="43.58554" lon="5.74744">
        <ele>441.863159</ele>
        <time>2012-04-09T07:04:49Z</time>
      </trkpt>
      <trkpt lat="43.58577" lon="5.74742">
        <ele>440.421265</ele>
        <time>2012-04-09T07:04:52Z</time>
      </trkpt>
      <trkpt lat="43.58606" lon="5.74755">
        <ele>439.459717</ele>
        <time>2012-04-09T07:04:56Z</time>
      </trkpt>
      <trkpt lat="43.5862" lon="5.74783">
        <ele>438.498535</ele>
        <time>2012-04-09T07:04:59Z</time>
      </trkpt>
      <trkpt lat="43.58645" lon="5.74864">
        <ele>438.017822</ele>
        <time>2012-04-09T07:05:07Z</time>
      </trkpt>
      <trkpt lat="43.58654" lon="5.74895">
        <ele>438.017822</ele>
        <time>2012-04-09T07:05:11Z</time>
      </trkpt>
      <trkpt lat="43.58657" lon="5.74912">
        <ele>438.017822</ele>
        <time>2012-04-09T07:05:15Z</time>
      </trkpt>
      <trkpt lat="43.58657" lon="5.74915">
        <ele>438.017822</ele>
        <time>2012-04-09T07:05:18Z</time>
      </trkpt>
      <trkpt lat="43.58657" lon="5.74916">
        <ele>438.498535</ele>
        <time>2012-04-09T07:05:22Z</time>
      </trkpt>
      <trkpt lat="43.58659" lon="5.74921">
        <ele>438.498535</ele>
        <time>2012-04-09T07:05:23Z</time>
      </trkpt>
      <trkpt lat="43.58672" lon="5.74923">
        <ele>438.498535</ele>
        <time>2012-04-09T07:05:27Z</time>
      </trkpt>
      <trkpt lat="43.58705" lon="5.74917">
        <ele>437.537109</ele>
        <time>2012-04-09T07:05:33Z</time>
      </trkpt>
      <trkpt lat="43.58766" lon="5.74909">
        <ele>436.095215</ele>
        <time>2012-04-09T07:05:42Z</time>
      </trkpt>
      <trkpt lat="43.58819" lon="5.74899">
        <ele>433.211304</ele>
        <time>2012-04-09T07:05:49Z</time>
      </trkpt>
      <trkpt lat="43.5886" lon="5.74882">
        <ele>431.288574</ele>
        <time>2012-04-09T07:05:54Z</time>
      </trkpt>
      <trkpt lat="43.58924" lon="5.74839">
        <ele>427.92395</ele>
        <time>2012-04-09T07:06:02Z</time>
      </trkpt>
      <trkpt lat="43.58978" lon="5.74813">
        <ele>425.520752</ele>
        <time>2012-04-09T07:06:08Z</time>
      </trkpt>
      <trkpt lat="43.59024" lon="5.74809">
        <ele>424.078735</ele>
        <time>2012-04-09T07:06:13Z</time>
      </trkpt>
      <trkpt lat="43.59071" lon="5.74823">
        <ele>422.156006</ele>
        <time>2012-04-09T07:06:18Z</time>
      </trkpt>
      <trkpt lat="43.59127" lon="5.74859">
        <ele>419.272217</ele>
        <time>2012-04-09T07:06:24Z</time>
      </trkpt>
      <trkpt lat="43.59205" lon="5.74904">
        <ele>414.946167</ele>
        <time>2012-04-09T07:06:32Z</time>
      </trkpt>
      <trkpt lat="43.59251" lon="5.74911">
        <ele>412.062256</ele>
        <time>2012-04-09T07:06:36Z</time>
      </trkpt>
      <trkpt lat="43.59347" lon="5.74896">
        <ele>405.813721</ele>
        <time>2012-04-09T07:06:44Z</time>
      </trkpt>
      <trkpt lat="43.59407" lon="5.74899">
        <ele>403.4104</ele>
        <time>2012-04-09T07:06:49Z</time>
      </trkpt>
      <trkpt lat="43.59465" lon="5.74921">
        <ele>400.045898</ele>
        <time>2012-04-09T07:06:54Z</time>
      </trkpt>
      <trkpt lat="43.59555" lon="5.74958">
        <ele>395.719849</ele>
        <time>2012-04-09T07:07:02Z</time>
      </trkpt>
      <trkpt lat="43.59612" lon="5.74971">
        <ele>393.797241</ele>
        <time>2012-04-09T07:07:07Z</time>
      </trkpt>
      <trkpt lat="43.59681" lon="5.7497">
        <ele>391.874512</ele>
        <time>2012-04-09T07:07:13Z</time>
      </trkpt>
      <trkpt lat="43.59767" lon="5.74963">
        <ele>389.471191</ele>
        <time>2012-04-09T07:07:21Z</time>
      </trkpt>
      <trkpt lat="43.59817" lon="5.74969">
        <ele>388.51001</ele>
        <time>2012-04-09T07:07:26Z</time>
      </trkpt>
      <trkpt lat="43.59913" lon="5.7499">
        <ele>388.51001</ele>
        <time>2012-04-09T07:07:36Z</time>
      </trkpt>
      <trkpt lat="43.59962" lon="5.74991">
        <ele>388.51001</ele>
        <time>2012-04-09T07:07:41Z</time>
      </trkpt>
      <trkpt lat="43.60006" lon="5.74974">
        <ele>388.029297</ele>
        <time>2012-04-09T07:07:46Z</time>
      </trkpt>
      <trkpt lat="43.60067" lon="5.74952">
        <ele>387.067993</ele>
        <time>2012-04-09T07:07:53Z</time>
      </trkpt>
      <trkpt lat="43.60105" lon="5.74954">
        <ele>387.067993</ele>
        <time>2012-04-09T07:07:57Z</time>
      </trkpt>
      <trkpt lat="43.60169" lon="5.74973">
        <ele>385.145386</ele>
        <time>2012-04-09T07:08:04Z</time>
      </trkpt>
      <trkpt lat="43.60232" lon="5.74992">
        <ele>383.222656</ele>
        <time>2012-04-09T07:08:11Z</time>
      </trkpt>
      <trkpt lat="43.60282" lon="5.75007">
        <ele>381.78064</ele>
        <time>2012-04-09T07:08:18Z</time>
      </trkpt>
      <trkpt lat="43.60326" lon="5.7502">
        <ele>379.858032</ele>
        <time>2012-04-09T07:08:26Z</time>
      </trkpt>
      <trkpt lat="43.60375" lon="5.75035">
        <ele>378.416138</ele>
        <time>2012-04-09T07:08:34Z</time>
      </trkpt>
      <trkpt lat="43.60434" lon="5.75053">
        <ele>376.49353</ele>
        <time>2012-04-09T07:08:43Z</time>
      </trkpt>
      <trkpt lat="43.60492" lon="5.7507">
        <ele>375.051514</ele>
        <time>2012-04-09T07:08:51Z</time>
      </trkpt>
      <trkpt lat="43.60549" lon="5.75088">
        <ele>373.609497</ele>
        <time>2012-04-09T07:08:58Z</time>
      </trkpt>
      <trkpt lat="43.60597" lon="5.75102">
        <ele>371.68689</ele>
        <time>2012-04-09T07:09:04Z</time>
      </trkpt>
      <trkpt lat="43.60619" lon="5.75125">
        <ele>370.244873</ele>
        <time>2012-04-09T07:09:08Z</time>
      </trkpt>
      <trkpt lat="43.60638" lon="5.75133">
        <ele>369.283691</ele>
        <time>2012-04-09T07:09:11Z</time>
      </trkpt>
      <trkpt lat="43.60645" lon="5.75131">
        <ele>368.802979</ele>
        <time>2012-04-09T07:09:12Z</time>
      </trkpt>
      <trkpt lat="43.60684" lon="5.75129">
        <ele>366.880249</ele>
        <time>2012-04-09T07:09:17Z</time>
      </trkpt>
      <trkpt lat="43.60765" lon="5.75153">
        <ele>364.476929</ele>
        <time>2012-04-09T07:09:26Z</time>
      </trkpt>
      <trkpt lat="43.60825" lon="5.75177">
        <ele>362.554321</ele>
        <time>2012-04-09T07:09:33Z</time>
      </trkpt>
      <trkpt lat="43.60874" lon="5.75207">
        <ele>362.07373</ele>
        <time>2012-04-09T07:09:39Z</time>
      </trkpt>
      <trkpt lat="43.60927" lon="5.75255">
        <ele>361.112427</ele>
        <time>2012-04-09T07:09:46Z</time>
      </trkpt>
      <trkpt lat="43.60979" lon="5.75318">
        <ele>360.151123</ele>
        <time>2012-04-09T07:09:54Z</time>
      </trkpt>
      <trkpt lat="43.60989" lon="5.75333">
        <ele>359.67041</ele>
        <time>2012-04-09T07:09:56Z</time>
      </trkpt>
      <trkpt lat="43.60998" lon="5.7537">
        <ele>359.189697</ele>
        <time>2012-04-09T07:10:00Z</time>
      </trkpt>
      <trkpt lat="43.61012" lon="5.75401">
        <ele>358.708984</ele>
        <time>2012-04-09T07:10:04Z</time>
      </trkpt>
      <trkpt lat="43.6104" lon="5.75436">
        <ele>357.747803</ele>
        <time>2012-04-09T07:10:09Z</time>
      </trkpt>
      <trkpt lat="43.6107" lon="5.75536">
        <ele>356.305786</ele>
        <time>2012-04-09T07:10:18Z</time>
      </trkpt>
      <trkpt lat="43.6108" lon="5.75602">
        <ele>356.305786</ele>
        <time>2012-04-09T07:10:24Z</time>
      </trkpt>
      <trkpt lat="43.61086" lon="5.75703">
        <ele>356.305786</ele>
        <time>2012-04-09T07:10:33Z</time>
      </trkpt>
      <trkpt lat="43.61083" lon="5.75774">
        <ele>356.786377</ele>
        <time>2012-04-09T07:10:40Z</time>
      </trkpt>
      <trkpt lat="43.61078" lon="5.75854">
        <ele>358.228394</ele>
        <time>2012-04-09T07:10:49Z</time>
      </trkpt>
      <trkpt lat="43.61072" lon="5.75941">
        <ele>361.112427</ele>
        <time>2012-04-09T07:10:59Z</time>
      </trkpt>
      <trkpt lat="43.61068" lon="5.76014">
        <ele>362.554321</ele>
        <time>2012-04-09T07:11:07Z</time>
      </trkpt>
      <trkpt lat="43.61066" lon="5.76033">
        <ele>363.035034</ele>
        <time>2012-04-09T07:11:09Z</time>
      </trkpt>
      <trkpt lat="43.61057" lon="5.76069">
        <ele>362.07373</ele>
        <time>2012-04-09T07:11:13Z</time>
      </trkpt>
      <trkpt lat="43.6103" lon="5.76118">
        <ele>361.112427</ele>
        <time>2012-04-09T07:11:19Z</time>
      </trkpt>
      <trkpt lat="43.60991" lon="5.76178">
        <ele>359.67041</ele>
        <time>2012-04-09T07:11:26Z</time>
      </trkpt>
      <trkpt lat="43.60952" lon="5.76227">
        <ele>359.189697</ele>
        <time>2012-04-09T07:11:33Z</time>
      </trkpt>
      <trkpt lat="43.609" lon="5.7628">
        <ele>358.228394</ele>
        <time>2012-04-09T07:11:42Z</time>
      </trkpt>
      <trkpt lat="43.60836" lon="5.76345">
        <ele>357.26709</ele>
        <time>2012-04-09T07:11:53Z</time>
      </trkpt>
      <trkpt lat="43.60788" lon="5.76391">
        <ele>357.26709</ele>
        <time>2012-04-09T07:12:01Z</time>
      </trkpt>
      <trkpt lat="43.60739" lon="5.7644">
        <ele>358.228394</ele>
        <time>2012-04-09T07:12:10Z</time>
      </trkpt>
      <trkpt lat="43.60691" lon="5.76487">
        <ele>358.708984</ele>
        <time>2012-04-09T07:12:19Z</time>
      </trkpt>
      <trkpt lat="43.60634" lon="5.76545">
        <ele>359.67041</ele>
        <time>2012-04-09T07:12:30Z</time>
      </trkpt>
      <trkpt lat="43.60597" lon="5.76582">
        <ele>361.59314</ele>
        <time>2012-04-09T07:12:38Z</time>
      </trkpt>
      <trkpt lat="43.60564" lon="5.76613">
        <ele>362.554321</ele>
        <time>2012-04-09T07:12:45Z</time>
      </trkpt>
      <trkpt lat="43.60536" lon="5.76652">
        <ele>363.515747</ele>
        <time>2012-04-09T07:12:52Z</time>
      </trkpt>
      <trkpt lat="43.60516" lon="5.76696">
        <ele>364.476929</ele>
        <time>2012-04-09T07:12:58Z</time>
      </trkpt>
      <trkpt lat="43.60497" lon="5.76748">
        <ele>365.918945</ele>
        <time>2012-04-09T07:13:05Z</time>
      </trkpt>
      <trkpt lat="43.60483" lon="5.76818">
        <ele>367.841553</ele>
        <time>2012-04-09T07:13:14Z</time>
      </trkpt>
      <trkpt lat="43.60482" lon="5.76869">
        <ele>368.802979</ele>
        <time>2012-04-09T07:13:20Z</time>
      </trkpt>
      <trkpt lat="43.60494" lon="5.76938">
        <ele>370.244873</ele>
        <time>2012-04-09T07:13:28Z</time>
      </trkpt>
      <trkpt lat="43.60508" lon="5.77005">
        <ele>372.648193</ele>
        <time>2012-04-09T07:13:36Z</time>
      </trkpt>
      <trkpt lat="43.60516" lon="5.77055">
        <ele>374.570801</ele>
        <time>2012-04-09T07:13:42Z</time>
      </trkpt>
      <trkpt lat="43.60531" lon="5.77092">
        <ele>373.128906</ele>
        <time>2012-04-09T07:13:47Z</time>
      </trkpt>
      <trkpt lat="43.60551" lon="5.77123">
        <ele>371.206299</ele>
        <time>2012-04-09T07:13:51Z</time>
      </trkpt>
      <trkpt lat="43.60561" lon="5.77166">
        <ele>369.283691</ele>
        <time>2012-04-09T07:13:55Z</time>
      </trkpt>
      <trkpt lat="43.60563" lon="5.77286">
        <ele>364.957642</ele>
        <time>2012-04-09T07:14:04Z</time>
      </trkpt>
      <trkpt lat="43.60566" lon="5.77355">
        <ele>362.07373</ele>
        <time>2012-04-09T07:14:09Z</time>
      </trkpt>
      <trkpt lat="43.60582" lon="5.77405">
        <ele>360.151123</ele>
        <time>2012-04-09T07:14:13Z</time>
      </trkpt>
      <trkpt lat="43.60594" lon="5.77427">
        <ele>359.189697</ele>
        <time>2012-04-09T07:14:15Z</time>
      </trkpt>
      <trkpt lat="43.60621" lon="5.77504">
        <ele>356.305786</ele>
        <time>2012-04-09T07:14:21Z</time>
      </trkpt>
      <trkpt lat="43.60624" lon="5.77518">
        <ele>356.305786</ele>
        <time>2012-04-09T07:14:22Z</time>
      </trkpt>
      <trkpt lat="43.60626" lon="5.77571">
        <ele>354.86377</ele>
        <time>2012-04-09T07:14:26Z</time>
      </trkpt>
      <trkpt lat="43.60612" lon="5.77654">
        <ele>354.86377</ele>
        <time>2012-04-09T07:14:33Z</time>
      </trkpt>
      <trkpt lat="43.60596" lon="5.77745">
        <ele>355.344482</ele>
        <time>2012-04-09T07:14:41Z</time>
      </trkpt>
      <trkpt lat="43.60578" lon="5.77858">
        <ele>353.421875</ele>
        <time>2012-04-09T07:14:51Z</time>
      </trkpt>
      <trkpt lat="43.60561" lon="5.77968">
        <ele>352.460571</ele>
        <time>2012-04-09T07:15:01Z</time>
      </trkpt>
      <trkpt lat="43.60548" lon="5.78051">
        <ele>353.421875</ele>
        <time>2012-04-09T07:15:09Z</time>
      </trkpt>
      <trkpt lat="43.60537" lon="5.78131">
        <ele>353.421875</ele>
        <time>2012-04-09T07:15:17Z</time>
      </trkpt>
      <trkpt lat="43.60531" lon="5.78214">
        <ele>353.421875</ele>
        <time>2012-04-09T07:15:25Z</time>
      </trkpt>
      <trkpt lat="43.60524" lon="5.78338">
        <ele>353.902588</ele>
        <time>2012-04-09T07:15:37Z</time>
      </trkpt>
      <trkpt lat="43.60518" lon="5.78452">
        <ele>354.383179</ele>
        <time>2012-04-09T07:15:48Z</time>
      </trkpt>
      <trkpt lat="43.60522" lon="5.78522">
        <ele>354.383179</ele>
        <time>2012-04-09T07:15:55Z</time>
      </trkpt>
      <trkpt lat="43.60529" lon="5.7864">
        <ele>357.26709</ele>
        <time>2012-04-09T07:16:06Z</time>
      </trkpt>
      <trkpt lat="43.60529" lon="5.78722">
        <ele>356.786377</ele>
        <time>2012-04-09T07:16:13Z</time>
      </trkpt>
      <trkpt lat="43.60527" lon="5.78825">
        <ele>355.344482</ele>
        <time>2012-04-09T07:16:22Z</time>
      </trkpt>
      <trkpt lat="43.60526" lon="5.78927">
        <ele>354.383179</ele>
        <time>2012-04-09T07:16:31Z</time>
      </trkpt>
      <trkpt lat="43.60517" lon="5.78994">
        <ele>352.460571</ele>
        <time>2012-04-09T07:16:37Z</time>
      </trkpt>
      <trkpt lat="43.60501" lon="5.79107">
        <ele>351.499146</ele>
        <time>2012-04-09T07:16:47Z</time>
      </trkpt>
      <trkpt lat="43.60489" lon="5.79172">
        <ele>350.537842</ele>
        <time>2012-04-09T07:16:53Z</time>
      </trkpt>
      <trkpt lat="43.60473" lon="5.79212">
        <ele>350.537842</ele>
        <time>2012-04-09T07:16:57Z</time>
      </trkpt>
      <trkpt lat="43.60426" lon="5.79287">
        <ele>351.499146</ele>
        <time>2012-04-09T07:17:06Z</time>
      </trkpt>
      <trkpt lat="43.60391" lon="5.79347">
        <ele>351.499146</ele>
        <time>2012-04-09T07:17:13Z</time>
      </trkpt>
      <trkpt lat="43.60352" lon="5.79433">
        <ele>352.460571</ele>
        <time>2012-04-09T07:17:22Z</time>
      </trkpt>
      <trkpt lat="43.60313" lon="5.79519">
        <ele>354.86377</ele>
        <time>2012-04-09T07:17:31Z</time>
      </trkpt>
      <trkpt lat="43.60281" lon="5.79593">
        <ele>355.344482</ele>
        <time>2012-04-09T07:17:39Z</time>
      </trkpt>
      <trkpt lat="43.6025" lon="5.79681">
        <ele>356.305786</ele>
        <time>2012-04-09T07:17:48Z</time>
      </trkpt>
      <trkpt lat="43.60226" lon="5.79786">
        <ele>357.26709</ele>
        <time>2012-04-09T07:17:58Z</time>
      </trkpt>
      <trkpt lat="43.60219" lon="5.79861">
        <ele>358.228394</ele>
        <time>2012-04-09T07:18:05Z</time>
      </trkpt>
      <trkpt lat="43.6021" lon="5.79945">
        <ele>359.189697</ele>
        <time>2012-04-09T07:18:13Z</time>
      </trkpt>
      <trkpt lat="43.60196" lon="5.79993">
        <ele>359.67041</ele>
        <time>2012-04-09T07:18:18Z</time>
      </trkpt>
      <trkpt lat="43.60171" lon="5.8004">
        <ele>362.07373</ele>
        <time>2012-04-09T07:18:24Z</time>
      </trkpt>
      <trkpt lat="43.60157" lon="5.8006">
        <ele>363.035034</ele>
        <time>2012-04-09T07:18:27Z</time>
      </trkpt>
      <trkpt lat="43.60135" lon="5.80111">
        <ele>363.035034</ele>
        <time>2012-04-09T07:18:33Z</time>
      </trkpt>
      <trkpt lat="43.60113" lon="5.80187">
        <ele>365.438354</ele>
        <time>2012-04-09T07:18:41Z</time>
      </trkpt>
      <trkpt lat="43.60101" lon="5.8025">
        <ele>367.360962</ele>
        <time>2012-04-09T07:18:48Z</time>
      </trkpt>
      <trkpt lat="43.60095" lon="5.80341">
        <ele>369.283691</ele>
        <time>2012-04-09T07:18:58Z</time>
      </trkpt>
      <trkpt lat="43.60092" lon="5.80427">
        <ele>372.16748</ele>
        <time>2012-04-09T07:19:07Z</time>
      </trkpt>
      <trkpt lat="43.60088" lon="5.80515">
        <ele>373.128906</ele>
        <time>2012-04-09T07:19:16Z</time>
      </trkpt>
      <trkpt lat="43.60077" lon="5.80612">
        <ele>372.16748</ele>
        <time>2012-04-09T07:19:26Z</time>
      </trkpt>
      <trkpt lat="43.60066" lon="5.80691">
        <ele>370.725586</ele>
        <time>2012-04-09T07:19:34Z</time>
      </trkpt>
      <trkpt lat="43.6006" lon="5.80787">
        <ele>371.68689</ele>
        <time>2012-04-09T07:19:43Z</time>
      </trkpt>
      <trkpt lat="43.60053" lon="5.80901">
        <ele>371.68689</ele>
        <time>2012-04-09T07:19:54Z</time>
      </trkpt>
      <trkpt lat="43.60041" lon="5.80977">
        <ele>371.206299</ele>
        <time>2012-04-09T07:20:01Z</time>
      </trkpt>
      <trkpt lat="43.60024" lon="5.81065">
        <ele>370.244873</ele>
        <time>2012-04-09T07:20:09Z</time>
      </trkpt>
      <trkpt lat="43.60007" lon="5.8114">
        <ele>370.244873</ele>
        <time>2012-04-09T07:20:16Z</time>
      </trkpt>
      <trkpt lat="43.59986" lon="5.81246">
        <ele>371.68689</ele>
        <time>2012-04-09T07:20:26Z</time>
      </trkpt>
      <trkpt lat="43.59965" lon="5.81347">
        <ele>373.128906</ele>
        <time>2012-04-09T07:20:36Z</time>
      </trkpt>
      <trkpt lat="43.59944" lon="5.8145">
        <ele>375.532104</ele>
        <time>2012-04-09T07:20:47Z</time>
      </trkpt>
      <trkpt lat="43.59925" lon="5.81554">
        <ele>378.416138</ele>
        <time>2012-04-09T07:20:58Z</time>
      </trkpt>
      <trkpt lat="43.59918" lon="5.8164">
        <ele>381.78064</ele>
        <time>2012-04-09T07:21:07Z</time>
      </trkpt>
      <trkpt lat="43.59911" lon="5.81739">
        <ele>383.222656</ele>
        <time>2012-04-09T07:21:17Z</time>
      </trkpt>
      <trkpt lat="43.59914" lon="5.81814">
        <ele>382.261353</ele>
        <time>2012-04-09T07:21:24Z</time>
      </trkpt>
      <trkpt lat="43.59926" lon="5.81923">
        <ele>382.261353</ele>
        <time>2012-04-09T07:21:34Z</time>
      </trkpt>
      <trkpt lat="43.59932" lon="5.81988">
        <ele>382.742065</ele>
        <time>2012-04-09T07:21:40Z</time>
      </trkpt>
      <trkpt lat="43.59932" lon="5.82082">
        <ele>383.222656</ele>
        <time>2012-04-09T07:21:49Z</time>
      </trkpt>
      <trkpt lat="43.59929" lon="5.82166">
        <ele>382.742065</ele>
        <time>2012-04-09T07:21:57Z</time>
      </trkpt>
      <trkpt lat="43.59926" lon="5.82285">
        <ele>382.261353</ele>
        <time>2012-04-09T07:22:08Z</time>
      </trkpt>
      <trkpt lat="43.59922" lon="5.82403">
        <ele>382.742065</ele>
        <time>2012-04-09T07:22:19Z</time>
      </trkpt>
      <trkpt lat="43.59915" lon="5.82488">
        <ele>382.742065</ele>
        <time>2012-04-09T07:22:27Z</time>
      </trkpt>
      <trkpt lat="43.59906" lon="5.82597">
        <ele>383.222656</ele>
        <time>2012-04-09T07:22:37Z</time>
      </trkpt>
      <trkpt lat="43.59901" lon="5.82696">
        <ele>383.222656</ele>
        <time>2012-04-09T07:22:46Z</time>
      </trkpt>
      <trkpt lat="43.59888" lon="5.82806">
        <ele>382.742065</ele>
        <time>2012-04-09T07:22:56Z</time>
      </trkpt>
      <trkpt lat="43.59875" lon="5.82915">
        <ele>383.222656</ele>
        <time>2012-04-09T07:23:06Z</time>
      </trkpt>
      <trkpt lat="43.59864" lon="5.83">
        <ele>382.742065</ele>
        <time>2012-04-09T07:23:14Z</time>
      </trkpt>
      <trkpt lat="43.59853" lon="5.83057">
        <ele>383.222656</ele>
        <time>2012-04-09T07:23:20Z</time>
      </trkpt>
      <trkpt lat="43.59839" lon="5.83104">
        <ele>384.664795</ele>
        <time>2012-04-09T07:23:26Z</time>
      </trkpt>
      <trkpt lat="43.59814" lon="5.83169">
        <ele>387.548584</ele>
        <time>2012-04-09T07:23:36Z</time>
      </trkpt>
      <trkpt lat="43.5979" lon="5.83211">
        <ele>390.432617</ele>
        <time>2012-04-09T07:23:44Z</time>
      </trkpt>
      <trkpt lat="43.59771" lon="5.8324">
        <ele>391.393799</ele>
        <time>2012-04-09T07:23:51Z</time>
      </trkpt>
      <trkpt lat="43.59744" lon="5.83275">
        <ele>392.835938</ele>
        <time>2012-04-09T07:23:59Z</time>
      </trkpt>
      <trkpt lat="43.59718" lon="5.83297">
        <ele>394.758545</ele>
        <time>2012-04-09T07:24:06Z</time>
      </trkpt>
      <trkpt lat="43.59688" lon="5.8332">
        <ele>397.161743</ele>
        <time>2012-04-09T07:24:14Z</time>
      </trkpt>
      <trkpt lat="43.59665" lon="5.83354">
        <ele>399.565063</ele>
        <time>2012-04-09T07:24:21Z</time>
      </trkpt>
      <trkpt lat="43.5964" lon="5.83397">
        <ele>402.449097</ele>
        <time>2012-04-09T07:24:29Z</time>
      </trkpt>
      <trkpt lat="43.59617" lon="5.83446">
        <ele>404.371704</ele>
        <time>2012-04-09T07:24:37Z</time>
      </trkpt>
      <trkpt lat="43.59591" lon="5.83501">
        <ele>406.774902</ele>
        <time>2012-04-09T07:24:46Z</time>
      </trkpt>
      <trkpt lat="43.59566" lon="5.83545">
        <ele>409.178345</ele>
        <time>2012-04-09T07:24:54Z</time>
      </trkpt>
      <trkpt lat="43.59535" lon="5.83595">
        <ele>410.139648</ele>
        <time>2012-04-09T07:25:03Z</time>
      </trkpt>
      <trkpt lat="43.59509" lon="5.83639">
        <ele>411.100952</ele>
        <time>2012-04-09T07:25:11Z</time>
      </trkpt>
      <trkpt lat="43.59487" lon="5.83685">
        <ele>412.542847</ele>
        <time>2012-04-09T07:25:19Z</time>
      </trkpt>
      <trkpt lat="43.59459" lon="5.83748">
        <ele>415.42688</ele>
        <time>2012-04-09T07:25:30Z</time>
      </trkpt>
      <trkpt lat="43.5944" lon="5.83803">
        <ele>418.310791</ele>
        <time>2012-04-09T07:25:39Z</time>
      </trkpt>
      <trkpt lat="43.59423" lon="5.83865">
        <ele>419.752808</ele>
        <time>2012-04-09T07:25:49Z</time>
      </trkpt>
      <trkpt lat="43.59408" lon="5.83921">
        <ele>421.194824</ele>
        <time>2012-04-09T07:25:58Z</time>
      </trkpt>
      <trkpt lat="43.59395" lon="5.83974">
        <ele>421.675415</ele>
        <time>2012-04-09T07:26:07Z</time>
      </trkpt>
      <trkpt lat="43.59388" lon="5.84018">
        <ele>421.194824</ele>
        <time>2012-04-09T07:26:14Z</time>
      </trkpt>
      <trkpt lat="43.59387" lon="5.84053">
        <ele>420.714111</ele>
        <time>2012-04-09T07:26:19Z</time>
      </trkpt>
      <trkpt lat="43.59379" lon="5.84078">
        <ele>420.233398</ele>
        <time>2012-04-09T07:26:23Z</time>
      </trkpt>
      <trkpt lat="43.59375" lon="5.84083">
        <ele>419.752808</ele>
        <time>2012-04-09T07:26:24Z</time>
      </trkpt>
      <trkpt lat="43.59365" lon="5.84095">
        <ele>419.752808</ele>
        <time>2012-04-09T07:26:27Z</time>
      </trkpt>
      <trkpt lat="43.59337" lon="5.84125">
        <ele>418.791504</ele>
        <time>2012-04-09T07:26:35Z</time>
      </trkpt>
      <trkpt lat="43.5931" lon="5.84153">
        <ele>418.791504</ele>
        <time>2012-04-09T07:26:42Z</time>
      </trkpt>
      <trkpt lat="43.59291" lon="5.84184">
        <ele>417.8302</ele>
        <time>2012-04-09T07:26:48Z</time>
      </trkpt>
      <trkpt lat="43.59274" lon="5.84228">
        <ele>417.349609</ele>
        <time>2012-04-09T07:26:55Z</time>
      </trkpt>
      <trkpt lat="43.59256" lon="5.84289">
        <ele>418.310791</ele>
        <time>2012-04-09T07:27:04Z</time>
      </trkpt>
      <trkpt lat="43.59239" lon="5.84352">
        <ele>419.272217</ele>
        <time>2012-04-09T07:27:14Z</time>
      </trkpt>
      <trkpt lat="43.59223" lon="5.84413">
        <ele>420.714111</ele>
        <time>2012-04-09T07:27:24Z</time>
      </trkpt>
      <trkpt lat="43.59208" lon="5.84471">
        <ele>421.675415</ele>
        <time>2012-04-09T07:27:34Z</time>
      </trkpt>
      <trkpt lat="43.59195" lon="5.84516">
        <ele>422.636719</ele>
        <time>2012-04-09T07:27:41Z</time>
      </trkpt>
      <trkpt lat="43.59182" lon="5.84567">
        <ele>425.040161</ele>
        <time>2012-04-09T07:27:49Z</time>
      </trkpt>
      <trkpt lat="43.59183" lon="5.84599">
        <ele>426.001343</ele>
        <time>2012-04-09T07:27:54Z</time>
      </trkpt>
      <trkpt lat="43.59195" lon="5.84636">
        <ele>427.443359</ele>
        <time>2012-04-09T07:28:01Z</time>
      </trkpt>
      <trkpt lat="43.59213" lon="5.84668">
        <ele>428.885376</ele>
        <time>2012-04-09T07:28:09Z</time>
      </trkpt>
      <trkpt lat="43.59221" lon="5.84684">
        <ele>429.846558</ele>
        <time>2012-04-09T07:28:14Z</time>
      </trkpt>
      <trkpt lat="43.59229" lon="5.84703">
        <ele>430.327271</ele>
        <time>2012-04-09T07:28:20Z</time>
      </trkpt>
      <trkpt lat="43.59241" lon="5.8472">
        <ele>430.807983</ele>
        <time>2012-04-09T07:28:27Z</time>
      </trkpt>
      <trkpt lat="43.59255" lon="5.84738">
        <ele>431.769165</ele>
        <time>2012-04-09T07:28:36Z</time>
      </trkpt>
      <trkpt lat="43.59258" lon="5.8474">
        <ele>432.25</ele>
        <time>2012-04-09T07:28:40Z</time>
      </trkpt>
      <trkpt lat="43.59259" lon="5.8474">
        <ele>435.614502</ele>
        <time>2012-04-09T07:29:19Z</time>
      </trkpt>
      <trkpt lat="43.59265" lon="5.84748">
        <ele>435.133911</ele>
        <time>2012-04-09T07:29:22Z</time>
      </trkpt>
      <trkpt lat="43.59276" lon="5.84769">
        <ele>433.211304</ele>
        <time>2012-04-09T07:29:27Z</time>
      </trkpt>
      <trkpt lat="43.59288" lon="5.84801">
        <ele>430.807983</ele>
        <time>2012-04-09T07:29:32Z</time>
      </trkpt>
      <trkpt lat="43.593" lon="5.84847">
        <ele>428.885376</ele>
        <time>2012-04-09T07:29:38Z</time>
      </trkpt>
      <trkpt lat="43.59314" lon="5.84907">
        <ele>425.520752</ele>
        <time>2012-04-09T07:29:44Z</time>
      </trkpt>
      <trkpt lat="43.59325" lon="5.84967">
        <ele>422.636719</ele>
        <time>2012-04-09T07:29:49Z</time>
      </trkpt>
      <trkpt lat="43.59341" lon="5.85059">
        <ele>417.8302</ele>
        <time>2012-04-09T07:29:56Z</time>
      </trkpt>
      <trkpt lat="43.59361" lon="5.8511">
        <ele>415.42688</ele>
        <time>2012-04-09T07:30:00Z</time>
      </trkpt>
      <trkpt lat="43.59366" lon="5.85123">
        <ele>414.946167</ele>
        <time>2012-04-09T07:30:01Z</time>
      </trkpt>
      <trkpt lat="43.59383" lon="5.85195">
        <ele>412.062256</ele>
        <time>2012-04-09T07:30:06Z</time>
      </trkpt>
      <trkpt lat="43.59386" lon="5.8521">
        <ele>411.100952</ele>
        <time>2012-04-09T07:30:07Z</time>
      </trkpt>
      <trkpt lat="43.59414" lon="5.85259">
        <ele>408.697632</ele>
        <time>2012-04-09T07:30:11Z</time>
      </trkpt>
      <trkpt lat="43.59444" lon="5.8528">
        <ele>406.774902</ele>
        <time>2012-04-09T07:30:14Z</time>
      </trkpt>
      <trkpt lat="43.59466" lon="5.85284">
        <ele>405.813721</ele>
        <time>2012-04-09T07:30:16Z</time>
      </trkpt>
      <trkpt lat="43.59567" lon="5.85285">
        <ele>401.487793</ele>
        <time>2012-04-09T07:30:25Z</time>
      </trkpt>
      <trkpt lat="43.5959" lon="5.85298">
        <ele>400.526489</ele>
        <time>2012-04-09T07:30:28Z</time>
      </trkpt>
      <trkpt lat="43.59596" lon="5.85318">
        <ele>400.045898</ele>
        <time>2012-04-09T07:30:30Z</time>
      </trkpt>
      <trkpt lat="43.596" lon="5.85394">
        <ele>399.084351</ele>
        <time>2012-04-09T07:30:37Z</time>
      </trkpt>
      <trkpt lat="43.59604" lon="5.85458">
        <ele>399.084351</ele>
        <time>2012-04-09T07:30:43Z</time>
      </trkpt>
      <trkpt lat="43.59611" lon="5.85503">
        <ele>399.565063</ele>
        <time>2012-04-09T07:30:47Z</time>
      </trkpt>
      <trkpt lat="43.59632" lon="5.85567">
        <ele>400.526489</ele>
        <time>2012-04-09T07:30:53Z</time>
      </trkpt>
      <trkpt lat="43.59656" lon="5.85614">
        <ele>401.00708</ele>
        <time>2012-04-09T07:30:58Z</time>
      </trkpt>
      <trkpt lat="43.59662" lon="5.85621">
        <ele>401.487793</ele>
        <time>2012-04-09T07:30:59Z</time>
      </trkpt>
      <trkpt lat="43.59696" lon="5.85644">
        <ele>402.449097</ele>
        <time>2012-04-09T07:31:04Z</time>
      </trkpt>
      <trkpt lat="43.59756" lon="5.85654">
        <ele>403.4104</ele>
        <time>2012-04-09T07:31:13Z</time>
      </trkpt>
      <trkpt lat="43.59815" lon="5.85664">
        <ele>404.852295</ele>
        <time>2012-04-09T07:31:22Z</time>
      </trkpt>
      <trkpt lat="43.59839" lon="5.85669">
        <ele>404.371704</ele>
        <time>2012-04-09T07:31:26Z</time>
      </trkpt>
      <trkpt lat="43.59879" lon="5.85695">
        <ele>402.929688</ele>
        <time>2012-04-09T07:31:32Z</time>
      </trkpt>
      <trkpt lat="43.59941" lon="5.85745">
        <ele>401.00708</ele>
        <time>2012-04-09T07:31:41Z</time>
      </trkpt>
      <trkpt lat="43.59992" lon="5.85775">
        <ele>401.00708</ele>
        <time>2012-04-09T07:31:48Z</time>
      </trkpt>
      <trkpt lat="43.60026" lon="5.85794">
        <ele>401.968506</ele>
        <time>2012-04-09T07:31:53Z</time>
      </trkpt>
      <trkpt lat="43.60048" lon="5.85826">
        <ele>402.929688</ele>
        <time>2012-04-09T07:31:58Z</time>
      </trkpt>
      <trkpt lat="43.60051" lon="5.85842">
        <ele>403.891113</ele>
        <time>2012-04-09T07:32:00Z</time>
      </trkpt>
      <trkpt lat="43.60051" lon="5.85911">
        <ele>405.813721</ele>
        <time>2012-04-09T07:32:09Z</time>
      </trkpt>
      <trkpt lat="43.60054" lon="5.85983">
        <ele>407.255615</ele>
        <time>2012-04-09T07:32:18Z</time>
      </trkpt>
      <trkpt lat="43.60061" lon="5.86058">
        <ele>407.736328</ele>
        <time>2012-04-09T07:32:26Z</time>
      </trkpt>
      <trkpt lat="43.60081" lon="5.86102">
        <ele>406.774902</ele>
        <time>2012-04-09T07:32:31Z</time>
      </trkpt>
      <trkpt lat="43.60087" lon="5.86109">
        <ele>406.774902</ele>
        <time>2012-04-09T07:32:32Z</time>
      </trkpt>
      <trkpt lat="43.60114" lon="5.86131">
        <ele>406.294312</ele>
        <time>2012-04-09T07:32:36Z</time>
      </trkpt>
      <trkpt lat="43.60131" lon="5.86167">
        <ele>405.813721</ele>
        <time>2012-04-09T07:32:40Z</time>
      </trkpt>
      <trkpt lat="43.60129" lon="5.86188">
        <ele>405.333008</ele>
        <time>2012-04-09T07:32:42Z</time>
      </trkpt>
      <trkpt lat="43.60123" lon="5.86219">
        <ele>404.371704</ele>
        <time>2012-04-09T07:32:45Z</time>
      </trkpt>
      <trkpt lat="43.60129" lon="5.86246">
        <ele>403.4104</ele>
        <time>2012-04-09T07:32:48Z</time>
      </trkpt>
      <trkpt lat="43.60145" lon="5.86249">
        <ele>402.929688</ele>
        <time>2012-04-09T07:32:50Z</time>
      </trkpt>
      <trkpt lat="43.60175" lon="5.86266">
        <ele>404.852295</ele>
        <time>2012-04-09T07:32:55Z</time>
      </trkpt>
      <trkpt lat="43.60181" lon="5.8628">
        <ele>406.294312</ele>
        <time>2012-04-09T07:32:57Z</time>
      </trkpt>
      <trkpt lat="43.60204" lon="5.86345">
        <ele>407.736328</ele>
        <time>2012-04-09T07:33:06Z</time>
      </trkpt>
      <trkpt lat="43.60222" lon="5.86401">
        <ele>406.774902</ele>
        <time>2012-04-09T07:33:12Z</time>
      </trkpt>
      <trkpt lat="43.60246" lon="5.86485">
        <ele>404.852295</ele>
        <time>2012-04-09T07:33:20Z</time>
      </trkpt>
      <trkpt lat="43.6027" lon="5.86573">
        <ele>403.891113</ele>
        <time>2012-04-09T07:33:29Z</time>
      </trkpt>
      <trkpt lat="43.6029" lon="5.86644">
        <ele>405.333008</ele>
        <time>2012-04-09T07:33:37Z</time>
      </trkpt>
      <trkpt lat="43.6031" lon="5.86675">
        <ele>406.294312</ele>
        <time>2012-04-09T07:33:42Z</time>
      </trkpt>
      <trkpt lat="43.60317" lon="5.86687">
        <ele>406.774902</ele>
        <time>2012-04-09T07:33:44Z</time>
      </trkpt>
      <trkpt lat="43.60329" lon="5.86726">
        <ele>407.736328</ele>
        <time>2012-04-09T07:33:49Z</time>
      </trkpt>
      <trkpt lat="43.6035" lon="5.86821">
        <ele>409.178345</ele>
        <time>2012-04-09T07:34:00Z</time>
      </trkpt>
      <trkpt lat="43.60362" lon="5.86873">
        <ele>410.620239</ele>
        <time>2012-04-09T07:34:07Z</time>
      </trkpt>
      <trkpt lat="43.60373" lon="5.86922">
        <ele>413.02356</ele>
        <time>2012-04-09T07:34:15Z</time>
      </trkpt>
      <trkpt lat="43.60385" lon="5.86958">
        <ele>415.42688</ele>
        <time>2012-04-09T07:34:22Z</time>
      </trkpt>
      <trkpt lat="43.60405" lon="5.87008">
        <ele>417.8302</ele>
        <time>2012-04-09T07:34:31Z</time>
      </trkpt>
      <trkpt lat="43.60425" lon="5.87053">
        <ele>419.752808</ele>
        <time>2012-04-09T07:34:40Z</time>
      </trkpt>
      <trkpt lat="43.60427" lon="5.87058">
        <ele>419.752808</ele>
        <time>2012-04-09T07:34:41Z</time>
      </trkpt>
      <trkpt lat="43.60433" lon="5.87074">
        <ele>420.233398</ele>
        <time>2012-04-09T07:34:44Z</time>
      </trkpt>
      <trkpt lat="43.60449" lon="5.87106">
        <ele>419.272217</ele>
        <time>2012-04-09T07:34:51Z</time>
      </trkpt>
      <trkpt lat="43.60463" lon="5.87138">
        <ele>420.714111</ele>
        <time>2012-04-09T07:34:57Z</time>
      </trkpt>
      <trkpt lat="43.60476" lon="5.87166">
        <ele>423.598022</ele>
        <time>2012-04-09T07:35:03Z</time>
      </trkpt>
      <trkpt lat="43.60502" lon="5.87214">
        <ele>426.482056</ele>
        <time>2012-04-09T07:35:14Z</time>
      </trkpt>
      <trkpt lat="43.60523" lon="5.87254">
        <ele>428.404663</ele>
        <time>2012-04-09T07:35:23Z</time>
      </trkpt>
      <trkpt lat="43.60547" lon="5.87299">
        <ele>430.807983</ele>
        <time>2012-04-09T07:35:33Z</time>
      </trkpt>
      <trkpt lat="43.60567" lon="5.87337">
        <ele>432.25</ele>
        <time>2012-04-09T07:35:42Z</time>
      </trkpt>
      <trkpt lat="43.60571" lon="5.87346">
        <ele>432.730713</ele>
        <time>2012-04-09T07:35:44Z</time>
      </trkpt>
      <trkpt lat="43.6058" lon="5.8739">
        <ele>434.172607</ele>
        <time>2012-04-09T07:35:52Z</time>
      </trkpt>
      <trkpt lat="43.60587" lon="5.87439">
        <ele>435.133911</ele>
        <time>2012-04-09T07:36:01Z</time>
      </trkpt>
      <trkpt lat="43.60591" lon="5.87474">
        <ele>437.056519</ele>
        <time>2012-04-09T07:36:07Z</time>
      </trkpt>
      <trkpt lat="43.6059" lon="5.87523">
        <ele>438.979126</ele>
        <time>2012-04-09T07:36:15Z</time>
      </trkpt>
      <trkpt lat="43.60595" lon="5.87568">
        <ele>440.901855</ele>
        <time>2012-04-09T07:36:22Z</time>
      </trkpt>
      <trkpt lat="43.60603" lon="5.87626">
        <ele>444.266479</ele>
        <time>2012-04-09T07:36:31Z</time>
      </trkpt>
      <trkpt lat="43.60606" lon="5.87689">
        <ele>445.708374</ele>
        <time>2012-04-09T07:36:41Z</time>
      </trkpt>
      <trkpt lat="43.60607" lon="5.87709">
        <ele>447.150269</ele>
        <time>2012-04-09T07:36:44Z</time>
      </trkpt>
      <trkpt lat="43.60623" lon="5.87769">
        <ele>450.515015</ele>
        <time>2012-04-09T07:36:54Z</time>
      </trkpt>
      <trkpt lat="43.60645" lon="5.87817">
        <ele>451.476318</ele>
        <time>2012-04-09T07:37:03Z</time>
      </trkpt>
      <trkpt lat="43.60669" lon="5.87859">
        <ele>449.553711</ele>
        <time>2012-04-09T07:37:11Z</time>
      </trkpt>
      <trkpt lat="43.60672" lon="5.87865">
        <ele>449.553711</ele>
        <time>2012-04-09T07:37:12Z</time>
      </trkpt>
      <trkpt lat="43.60705" lon="5.87922">
        <ele>447.630981</ele>
        <time>2012-04-09T07:37:21Z</time>
      </trkpt>
      <trkpt lat="43.60735" lon="5.87976">
        <ele>445.708374</ele>
        <time>2012-04-09T07:37:28Z</time>
      </trkpt>
      <trkpt lat="43.6077" lon="5.88038">
        <ele>445.708374</ele>
        <time>2012-04-09T07:37:36Z</time>
      </trkpt>
      <trkpt lat="43.60794" lon="5.88079">
        <ele>446.189087</ele>
        <time>2012-04-09T07:37:42Z</time>
      </trkpt>
      <trkpt lat="43.60822" lon="5.88128">
        <ele>446.189087</ele>
        <time>2012-04-09T07:37:50Z</time>
      </trkpt>
      <trkpt lat="43.60857" lon="5.88172">
        <ele>446.189087</ele>
        <time>2012-04-09T07:37:59Z</time>
      </trkpt>
      <trkpt lat="43.60874" lon="5.88209">
        <ele>445.708374</ele>
        <time>2012-04-09T07:38:04Z</time>
      </trkpt>
      <trkpt lat="43.60888" lon="5.88262">
        <ele>444.74707</ele>
        <time>2012-04-09T07:38:10Z</time>
      </trkpt>
      <trkpt lat="43.60909" lon="5.88294">
        <ele>444.74707</ele>
        <time>2012-04-09T07:38:15Z</time>
      </trkpt>
      <trkpt lat="43.60919" lon="5.88302">
        <ele>444.266479</ele>
        <time>2012-04-09T07:38:17Z</time>
      </trkpt>
      <trkpt lat="43.60936" lon="5.88315">
        <ele>444.266479</ele>
        <time>2012-04-09T07:38:20Z</time>
      </trkpt>
      <trkpt lat="43.60959" lon="5.88348">
        <ele>442.824463</ele>
        <time>2012-04-09T07:38:25Z</time>
      </trkpt>
      <trkpt lat="43.60962" lon="5.88357">
        <ele>442.343872</ele>
        <time>2012-04-09T07:38:26Z</time>
      </trkpt>
      <trkpt lat="43.60967" lon="5.88376">
        <ele>441.382446</ele>
        <time>2012-04-09T07:38:28Z</time>
      </trkpt>
      <trkpt lat="43.60998" lon="5.88437">
        <ele>438.979126</ele>
        <time>2012-04-09T07:38:35Z</time>
      </trkpt>
      <trkpt lat="43.61029" lon="5.88491">
        <ele>439.459717</ele>
        <time>2012-04-09T07:38:42Z</time>
      </trkpt>
      <trkpt lat="43.61057" lon="5.8854">
        <ele>440.421265</ele>
        <time>2012-04-09T07:38:50Z</time>
      </trkpt>
      <trkpt lat="43.61093" lon="5.88605">
        <ele>441.863159</ele>
        <time>2012-04-09T07:39:01Z</time>
      </trkpt>
      <trkpt lat="43.61109" lon="5.88648">
        <ele>441.382446</ele>
        <time>2012-04-09T07:39:07Z</time>
      </trkpt>
      <trkpt lat="43.61125" lon="5.88704">
        <ele>439.94043</ele>
        <time>2012-04-09T07:39:13Z</time>
      </trkpt>
      <trkpt lat="43.61154" lon="5.88814">
        <ele>438.017822</ele>
        <time>2012-04-09T07:39:24Z</time>
      </trkpt>
      <trkpt lat="43.61169" lon="5.88872">
        <ele>438.017822</ele>
        <time>2012-04-09T07:39:30Z</time>
      </trkpt>
      <trkpt lat="43.61191" lon="5.88956">
        <ele>436.575928</ele>
        <time>2012-04-09T07:39:39Z</time>
      </trkpt>
      <trkpt lat="43.6121" lon="5.89023">
        <ele>435.614502</ele>
        <time>2012-04-09T07:39:46Z</time>
      </trkpt>
      <trkpt lat="43.61216" lon="5.89044">
        <ele>435.614502</ele>
        <time>2012-04-09T07:39:48Z</time>
      </trkpt>
      <trkpt lat="43.61231" lon="5.89071">
        <ele>434.65332</ele>
        <time>2012-04-09T07:39:52Z</time>
      </trkpt>
      <trkpt lat="43.61235" lon="5.89074">
        <ele>434.65332</ele>
        <time>2012-04-09T07:39:53Z</time>
      </trkpt>
      <trkpt lat="43.61246" lon="5.89081">
        <ele>434.172607</ele>
        <time>2012-04-09T07:39:58Z</time>
      </trkpt>
      <trkpt lat="43.61246" lon="5.89081">
        <ele>433.691895</ele>
        <time>2012-04-09T07:40:00Z</time>
      </trkpt>
      <trkpt lat="43.61246" lon="5.8908">
        <ele>434.172607</ele>
        <time>2012-04-09T07:40:10Z</time>
      </trkpt>
      <trkpt lat="43.61252" lon="5.89084">
        <ele>435.133911</ele>
        <time>2012-04-09T07:40:13Z</time>
      </trkpt>
      <trkpt lat="43.61268" lon="5.89092">
        <ele>435.133911</ele>
        <time>2012-04-09T07:40:17Z</time>
      </trkpt>
      <trkpt lat="43.61286" lon="5.89106">
        <ele>434.172607</ele>
        <time>2012-04-09T07:40:21Z</time>
      </trkpt>
      <trkpt lat="43.61317" lon="5.89148">
        <ele>430.807983</ele>
        <time>2012-04-09T07:40:27Z</time>
      </trkpt>
      <trkpt lat="43.61328" lon="5.89163">
        <ele>429.846558</ele>
        <time>2012-04-09T07:40:29Z</time>
      </trkpt>
      <trkpt lat="43.61356" lon="5.8918">
        <ele>427.443359</ele>
        <time>2012-04-09T07:40:33Z</time>
      </trkpt>
      <trkpt lat="43.61384" lon="5.89195">
        <ele>425.040161</ele>
        <time>2012-04-09T07:40:37Z</time>
      </trkpt>
      <trkpt lat="43.61397" lon="5.89226">
        <ele>423.598022</ele>
        <time>2012-04-09T07:40:40Z</time>
      </trkpt>
      <trkpt lat="43.61402" lon="5.89235">
        <ele>423.117432</ele>
        <time>2012-04-09T07:40:41Z</time>
      </trkpt>
      <trkpt lat="43.61419" lon="5.89281">
        <ele>420.714111</ele>
        <time>2012-04-09T07:40:45Z</time>
      </trkpt>
      <trkpt lat="43.61418" lon="5.89294">
        <ele>420.233398</ele>
        <time>2012-04-09T07:40:46Z</time>
      </trkpt>
      <trkpt lat="43.61412" lon="5.89407">
        <ele>414.946167</ele>
        <time>2012-04-09T07:40:54Z</time>
      </trkpt>
      <trkpt lat="43.6141" lon="5.89435">
        <ele>413.984863</ele>
        <time>2012-04-09T07:40:56Z</time>
      </trkpt>
      <trkpt lat="43.61425" lon="5.89476">
        <ele>411.100952</ele>
        <time>2012-04-09T07:41:00Z</time>
      </trkpt>
      <trkpt lat="43.61434" lon="5.89478">
        <ele>410.620239</ele>
        <time>2012-04-09T07:41:01Z</time>
      </trkpt>
      <trkpt lat="43.61469" lon="5.8949">
        <ele>409.178345</ele>
        <time>2012-04-09T07:41:05Z</time>
      </trkpt>
      <trkpt lat="43.61508" lon="5.89499">
        <ele>407.736328</ele>
        <time>2012-04-09T07:41:09Z</time>
      </trkpt>
      <trkpt lat="43.61517" lon="5.89495">
        <ele>407.255615</ele>
        <time>2012-04-09T07:41:10Z</time>
      </trkpt>
      <trkpt lat="43.61591" lon="5.8946">
        <ele>405.813721</ele>
        <time>2012-04-09T07:41:18Z</time>
      </trkpt>
      <trkpt lat="43.61633" lon="5.89442">
        <ele>403.4104</ele>
        <time>2012-04-09T07:41:22Z</time>
      </trkpt>
      <trkpt lat="43.61708" lon="5.89409">
        <ele>400.526489</ele>
        <time>2012-04-09T07:41:29Z</time>
      </trkpt>
      <trkpt lat="43.61754" lon="5.89394">
        <ele>398.60376</ele>
        <time>2012-04-09T07:41:33Z</time>
      </trkpt>
      <trkpt lat="43.61807" lon="5.89371">
        <ele>398.60376</ele>
        <time>2012-04-09T07:41:38Z</time>
      </trkpt>
      <trkpt lat="43.6184" lon="5.89338">
        <ele>400.045898</ele>
        <time>2012-04-09T07:41:42Z</time>
      </trkpt>
      <trkpt lat="43.61872" lon="5.89316">
        <ele>400.045898</ele>
        <time>2012-04-09T07:41:46Z</time>
      </trkpt>
      <trkpt lat="43.61891" lon="5.89314">
        <ele>400.045898</ele>
        <time>2012-04-09T07:41:48Z</time>
      </trkpt>
      <trkpt lat="43.61946" lon="5.89303">
        <ele>399.084351</ele>
        <time>2012-04-09T07:41:54Z</time>
      </trkpt>
      <trkpt lat="43.61997" lon="5.8928">
        <ele>398.60376</ele>
        <time>2012-04-09T07:42:00Z</time>
      </trkpt>
      <trkpt lat="43.62029" lon="5.89287">
        <ele>398.60376</ele>
        <time>2012-04-09T07:42:04Z</time>
      </trkpt>
      <trkpt lat="43.62035" lon="5.89293">
        <ele>398.60376</ele>
        <time>2012-04-09T07:42:05Z</time>
      </trkpt>
      <trkpt lat="43.62054" lon="5.89315">
        <ele>398.60376</ele>
        <time>2012-04-09T07:42:08Z</time>
      </trkpt>
      <trkpt lat="43.62082" lon="5.89334">
        <ele>398.60376</ele>
        <time>2012-04-09T07:42:12Z</time>
      </trkpt>
      <trkpt lat="43.6214" lon="5.89357">
        <ele>399.565063</ele>
        <time>2012-04-09T07:42:20Z</time>
      </trkpt>
      <trkpt lat="43.62152" lon="5.89367">
        <ele>399.565063</ele>
        <time>2012-04-09T07:42:22Z</time>
      </trkpt>
      <trkpt lat="43.62206" lon="5.89427">
        <ele>398.123169</ele>
        <time>2012-04-09T07:42:31Z</time>
      </trkpt>
      <trkpt lat="43.62244" lon="5.89478">
        <ele>396.681152</ele>
        <time>2012-04-09T07:42:37Z</time>
      </trkpt>
      <trkpt lat="43.62288" lon="5.8952">
        <ele>396.200562</ele>
        <time>2012-04-09T07:42:43Z</time>
      </trkpt>
      <trkpt lat="43.62353" lon="5.89579">
        <ele>395.719849</ele>
        <time>2012-04-09T07:42:52Z</time>
      </trkpt>
      <trkpt lat="43.62401" lon="5.89619">
        <ele>396.200562</ele>
        <time>2012-04-09T07:42:59Z</time>
      </trkpt>
      <trkpt lat="43.62471" lon="5.8968">
        <ele>396.681152</ele>
        <time>2012-04-09T07:43:10Z</time>
      </trkpt>
      <trkpt lat="43.62526" lon="5.89732">
        <ele>398.123169</ele>
        <time>2012-04-09T07:43:19Z</time>
      </trkpt>
      <trkpt lat="43.62578" lon="5.89786">
        <ele>399.084351</ele>
        <time>2012-04-09T07:43:28Z</time>
      </trkpt>
      <trkpt lat="43.6259" lon="5.89797">
        <ele>399.565063</ele>
        <time>2012-04-09T07:43:30Z</time>
      </trkpt>
      <trkpt lat="43.62613" lon="5.89832">
        <ele>400.045898</ele>
        <time>2012-04-09T07:43:35Z</time>
      </trkpt>
      <trkpt lat="43.62642" lon="5.89885">
        <ele>399.565063</ele>
        <time>2012-04-09T07:43:42Z</time>
      </trkpt>
      <trkpt lat="43.62673" lon="5.89915">
        <ele>398.123169</ele>
        <time>2012-04-09T07:43:47Z</time>
      </trkpt>
      <trkpt lat="43.62732" lon="5.89962">
        <ele>396.200562</ele>
        <time>2012-04-09T07:43:55Z</time>
      </trkpt>
      <trkpt lat="43.62779" lon="5.90001">
        <ele>394.758545</ele>
        <time>2012-04-09T07:44:01Z</time>
      </trkpt>
      <trkpt lat="43.62842" lon="5.90055">
        <ele>392.835938</ele>
        <time>2012-04-09T07:44:09Z</time>
      </trkpt>
      <trkpt lat="43.62896" lon="5.90111">
        <ele>392.355347</ele>
        <time>2012-04-09T07:44:16Z</time>
      </trkpt>
      <trkpt lat="43.62971" lon="5.90191">
        <ele>392.355347</ele>
        <time>2012-04-09T07:44:26Z</time>
      </trkpt>
      <trkpt lat="43.63022" lon="5.90253">
        <ele>391.874512</ele>
        <time>2012-04-09T07:44:33Z</time>
      </trkpt>
      <trkpt lat="43.63056" lon="5.90314">
        <ele>391.874512</ele>
        <time>2012-04-09T07:44:39Z</time>
      </trkpt>
      <trkpt lat="43.63093" lon="5.90383">
        <ele>392.355347</ele>
        <time>2012-04-09T07:44:46Z</time>
      </trkpt>
      <trkpt lat="43.6313" lon="5.90451">
        <ele>392.355347</ele>
        <time>2012-04-09T07:44:53Z</time>
      </trkpt>
      <trkpt lat="43.6316" lon="5.90507">
        <ele>392.835938</ele>
        <time>2012-04-09T07:44:59Z</time>
      </trkpt>
      <trkpt lat="43.6319" lon="5.90564">
        <ele>393.797241</ele>
        <time>2012-04-09T07:45:05Z</time>
      </trkpt>
      <trkpt lat="43.63227" lon="5.90623">
        <ele>394.277954</ele>
        <time>2012-04-09T07:45:12Z</time>
      </trkpt>
      <trkpt lat="43.63245" lon="5.90645">
        <ele>394.277954</ele>
        <time>2012-04-09T07:45:15Z</time>
      </trkpt>
      <trkpt lat="43.63262" lon="5.90685">
        <ele>393.316528</ele>
        <time>2012-04-09T07:45:19Z</time>
      </trkpt>
      <trkpt lat="43.63276" lon="5.90793">
        <ele>391.874512</ele>
        <time>2012-04-09T07:45:28Z</time>
      </trkpt>
      <trkpt lat="43.63276" lon="5.9085">
        <ele>391.874512</ele>
        <time>2012-04-09T07:45:33Z</time>
      </trkpt>
      <trkpt lat="43.63272" lon="5.90889">
        <ele>392.835938</ele>
        <time>2012-04-09T07:45:37Z</time>
      </trkpt>
      <trkpt lat="43.63262" lon="5.90949">
        <ele>394.758545</ele>
        <time>2012-04-09T07:45:44Z</time>
      </trkpt>
      <trkpt lat="43.6325" lon="5.91022">
        <ele>395.719849</ele>
        <time>2012-04-09T07:45:52Z</time>
      </trkpt>
      <trkpt lat="43.63249" lon="5.91042">
        <ele>396.200562</ele>
        <time>2012-04-09T07:45:54Z</time>
      </trkpt>
      <trkpt lat="43.63257" lon="5.91083">
        <ele>395.719849</ele>
        <time>2012-04-09T07:45:58Z</time>
      </trkpt>
      <trkpt lat="43.63296" lon="5.91158">
        <ele>396.200562</ele>
        <time>2012-04-09T07:46:06Z</time>
      </trkpt>
      <trkpt lat="43.63326" lon="5.91225">
        <ele>398.123169</ele>
        <time>2012-04-09T07:46:13Z</time>
      </trkpt>
      <trkpt lat="43.63343" lon="5.91278">
        <ele>401.00708</ele>
        <time>2012-04-09T07:46:19Z</time>
      </trkpt>
      <trkpt lat="43.63358" lon="5.91318">
        <ele>402.929688</ele>
        <time>2012-04-09T07:46:24Z</time>
      </trkpt>
      <trkpt lat="43.63371" lon="5.91379">
        <ele>403.4104</ele>
        <time>2012-04-09T07:46:31Z</time>
      </trkpt>
      <trkpt lat="43.63392" lon="5.91454">
        <ele>404.371704</ele>
        <time>2012-04-09T07:46:39Z</time>
      </trkpt>
      <trkpt lat="43.63404" lon="5.91516">
        <ele>406.294312</ele>
        <time>2012-04-09T07:46:46Z</time>
      </trkpt>
      <trkpt lat="43.63413" lon="5.91583">
        <ele>407.255615</ele>
        <time>2012-04-09T07:46:54Z</time>
      </trkpt>
      <trkpt lat="43.63424" lon="5.91648">
        <ele>408.217041</ele>
        <time>2012-04-09T07:47:02Z</time>
      </trkpt>
      <trkpt lat="43.63437" lon="5.91722">
        <ele>409.178345</ele>
        <time>2012-04-09T07:47:11Z</time>
      </trkpt>
      <trkpt lat="43.63444" lon="5.91775">
        <ele>408.217041</ele>
        <time>2012-04-09T07:47:17Z</time>
      </trkpt>
      <trkpt lat="43.63456" lon="5.91849">
        <ele>408.217041</ele>
        <time>2012-04-09T07:47:24Z</time>
      </trkpt>
      <trkpt lat="43.63471" lon="5.91931">
        <ele>409.659058</ele>
        <time>2012-04-09T07:47:32Z</time>
      </trkpt>
      <trkpt lat="43.63485" lon="5.92007">
        <ele>410.620239</ele>
        <time>2012-04-09T07:47:40Z</time>
      </trkpt>
      <trkpt lat="43.63497" lon="5.92072">
        <ele>412.542847</ele>
        <time>2012-04-09T07:47:48Z</time>
      </trkpt>
      <trkpt lat="43.63504" lon="5.92105">
        <ele>414.465454</ele>
        <time>2012-04-09T07:47:53Z</time>
      </trkpt>
      <trkpt lat="43.63517" lon="5.9216">
        <ele>416.868896</ele>
        <time>2012-04-09T07:48:01Z</time>
      </trkpt>
      <trkpt lat="43.63518" lon="5.92215">
        <ele>417.349609</ele>
        <time>2012-04-09T07:48:08Z</time>
      </trkpt>
      <trkpt lat="43.63515" lon="5.92274">
        <ele>418.310791</ele>
        <time>2012-04-09T07:48:15Z</time>
      </trkpt>
      <trkpt lat="43.63514" lon="5.92343">
        <ele>419.752808</ele>
        <time>2012-04-09T07:48:24Z</time>
      </trkpt>
      <trkpt lat="43.63508" lon="5.92393">
        <ele>421.675415</ele>
        <time>2012-04-09T07:48:31Z</time>
      </trkpt>
      <trkpt lat="43.635" lon="5.92451">
        <ele>422.156006</ele>
        <time>2012-04-09T07:48:39Z</time>
      </trkpt>
      <trkpt lat="43.63496" lon="5.92518">
        <ele>422.636719</ele>
        <time>2012-04-09T07:48:47Z</time>
      </trkpt>
      <trkpt lat="43.63493" lon="5.92567">
        <ele>421.194824</ele>
        <time>2012-04-09T07:48:52Z</time>
      </trkpt>
      <trkpt lat="43.63474" lon="5.92643">
        <ele>419.752808</ele>
        <time>2012-04-09T07:48:59Z</time>
      </trkpt>
      <trkpt lat="43.63461" lon="5.92708">
        <ele>419.272217</ele>
        <time>2012-04-09T07:49:05Z</time>
      </trkpt>
      <trkpt lat="43.6346" lon="5.92719">
        <ele>419.272217</ele>
        <time>2012-04-09T07:49:06Z</time>
      </trkpt>
      <trkpt lat="43.63466" lon="5.92761">
        <ele>418.310791</ele>
        <time>2012-04-09T07:49:10Z</time>
      </trkpt>
      <trkpt lat="43.6349" lon="5.92842">
        <ele>416.868896</ele>
        <time>2012-04-09T07:49:18Z</time>
      </trkpt>
      <trkpt lat="43.63505" lon="5.92894">
        <ele>416.388184</ele>
        <time>2012-04-09T07:49:24Z</time>
      </trkpt>
      <trkpt lat="43.63529" lon="5.92925">
        <ele>416.868896</ele>
        <time>2012-04-09T07:49:29Z</time>
      </trkpt>
      <trkpt lat="43.63542" lon="5.92935">
        <ele>416.388184</ele>
        <time>2012-04-09T07:49:31Z</time>
      </trkpt>
      <trkpt lat="43.63566" lon="5.92964">
        <ele>415.42688</ele>
        <time>2012-04-09T07:49:35Z</time>
      </trkpt>
      <trkpt lat="43.63569" lon="5.92994">
        <ele>415.42688</ele>
        <time>2012-04-09T07:49:38Z</time>
      </trkpt>
      <trkpt lat="43.63562" lon="5.93011">
        <ele>415.907471</ele>
        <time>2012-04-09T07:49:40Z</time>
      </trkpt>
      <trkpt lat="43.63557" lon="5.93017">
        <ele>415.907471</ele>
        <time>2012-04-09T07:49:41Z</time>
      </trkpt>
      <trkpt lat="43.63546" lon="5.9303">
        <ele>416.868896</ele>
        <time>2012-04-09T07:49:43Z</time>
      </trkpt>
      <trkpt lat="43.63531" lon="5.9306">
        <ele>417.8302</ele>
        <time>2012-04-09T07:49:47Z</time>
      </trkpt>
      <trkpt lat="43.63529" lon="5.93088">
        <ele>418.310791</ele>
        <time>2012-04-09T07:49:50Z</time>
      </trkpt>
      <trkpt lat="43.63532" lon="5.93127">
        <ele>418.791504</ele>
        <time>2012-04-09T07:49:54Z</time>
      </trkpt>
      <trkpt lat="43.63549" lon="5.93174">
        <ele>418.310791</ele>
        <time>2012-04-09T07:49:59Z</time>
      </trkpt>
      <trkpt lat="43.63557" lon="5.93205">
        <ele>417.8302</ele>
        <time>2012-04-09T07:50:02Z</time>
      </trkpt>
      <trkpt lat="43.63554" lon="5.93237">
        <ele>417.349609</ele>
        <time>2012-04-09T07:50:05Z</time>
      </trkpt>
      <trkpt lat="43.63552" lon="5.93247">
        <ele>417.349609</ele>
        <time>2012-04-09T07:50:06Z</time>
      </trkpt>
      <trkpt lat="43.63534" lon="5.93303">
        <ele>417.349609</ele>
        <time>2012-04-09T07:50:12Z</time>
      </trkpt>
      <trkpt lat="43.63533" lon="5.93336">
        <ele>417.349609</ele>
        <time>2012-04-09T07:50:16Z</time>
      </trkpt>
      <trkpt lat="43.6355" lon="5.93345">
        <ele>416.868896</ele>
        <time>2012-04-09T07:50:19Z</time>
      </trkpt>
      <trkpt lat="43.63557" lon="5.93342">
        <ele>416.868896</ele>
        <time>2012-04-09T07:50:20Z</time>
      </trkpt>
      <trkpt lat="43.63603" lon="5.93305">
        <ele>415.42688</ele>
        <time>2012-04-09T07:50:27Z</time>
      </trkpt>
      <trkpt lat="43.63641" lon="5.93287">
        <ele>414.465454</ele>
        <time>2012-04-09T07:50:32Z</time>
      </trkpt>
      <trkpt lat="43.63671" lon="5.93263">
        <ele>412.062256</ele>
        <time>2012-04-09T07:50:36Z</time>
      </trkpt>
      <trkpt lat="43.63722" lon="5.93232">
        <ele>410.139648</ele>
        <time>2012-04-09T07:50:42Z</time>
      </trkpt>
      <trkpt lat="43.63769" lon="5.93214">
        <ele>407.736328</ele>
        <time>2012-04-09T07:50:47Z</time>
      </trkpt>
      <trkpt lat="43.63809" lon="5.93219">
        <ele>405.813721</ele>
        <time>2012-04-09T07:50:51Z</time>
      </trkpt>
      <trkpt lat="43.63856" lon="5.93237">
        <ele>404.852295</ele>
        <time>2012-04-09T07:50:56Z</time>
      </trkpt>
      <trkpt lat="43.63873" lon="5.93254">
        <ele>404.371704</ele>
        <time>2012-04-09T07:50:59Z</time>
      </trkpt>
      <trkpt lat="43.63873" lon="5.93272">
        <ele>403.891113</ele>
        <time>2012-04-09T07:51:01Z</time>
      </trkpt>
      <trkpt lat="43.6387" lon="5.93299">
        <ele>403.891113</ele>
        <time>2012-04-09T07:51:04Z</time>
      </trkpt>
      <trkpt lat="43.63878" lon="5.93331">
        <ele>405.333008</ele>
        <time>2012-04-09T07:51:08Z</time>
      </trkpt>
      <trkpt lat="43.63888" lon="5.93351">
        <ele>406.774902</ele>
        <time>2012-04-09T07:51:11Z</time>
      </trkpt>
      <trkpt lat="43.6391" lon="5.93397">
        <ele>412.062256</ele>
        <time>2012-04-09T07:51:19Z</time>
      </trkpt>
      <trkpt lat="43.63917" lon="5.93413">
        <ele>413.504272</ele>
        <time>2012-04-09T07:51:22Z</time>
      </trkpt>
      <trkpt lat="43.63921" lon="5.93424">
        <ele>414.946167</ele>
        <time>2012-04-09T07:51:24Z</time>
      </trkpt>
      <trkpt lat="43.63932" lon="5.9347">
        <ele>418.310791</ele>
        <time>2012-04-09T07:51:32Z</time>
      </trkpt>
      <trkpt lat="43.63948" lon="5.93511">
        <ele>421.194824</ele>
        <time>2012-04-09T07:51:40Z</time>
      </trkpt>
      <trkpt lat="43.63964" lon="5.93537">
        <ele>422.156006</ele>
        <time>2012-04-09T07:51:47Z</time>
      </trkpt>
      <trkpt lat="43.6398" lon="5.93557">
        <ele>423.117432</ele>
        <time>2012-04-09T07:51:53Z</time>
      </trkpt>
      <trkpt lat="43.63973" lon="5.9357">
        <ele>423.598022</ele>
        <time>2012-04-09T07:51:57Z</time>
      </trkpt>
      <trkpt lat="43.63965" lon="5.93566">
        <ele>422.636719</ele>
        <time>2012-04-09T07:52:00Z</time>
      </trkpt>
      <trkpt lat="43.63957" lon="5.93545">
        <ele>421.675415</ele>
        <time>2012-04-09T07:52:04Z</time>
      </trkpt>
      <trkpt lat="43.63949" lon="5.93525">
        <ele>421.194824</ele>
        <time>2012-04-09T07:52:07Z</time>
      </trkpt>
      <trkpt lat="43.63928" lon="5.93478">
        <ele>421.675415</ele>
        <time>2012-04-09T07:52:15Z</time>
      </trkpt>
      <trkpt lat="43.63902" lon="5.93418">
        <ele>423.598022</ele>
        <time>2012-04-09T07:52:26Z</time>
      </trkpt>
      <trkpt lat="43.63895" lon="5.93409">
        <ele>424.078735</ele>
        <time>2012-04-09T07:52:28Z</time>
      </trkpt>
      <trkpt lat="43.63881" lon="5.93399">
        <ele>424.559448</ele>
        <time>2012-04-09T07:52:32Z</time>
      </trkpt>
      <trkpt lat="43.63854" lon="5.93396">
        <ele>426.001343</ele>
        <time>2012-04-09T07:52:39Z</time>
      </trkpt>
      <trkpt lat="43.63833" lon="5.93412">
        <ele>427.92395</ele>
        <time>2012-04-09T07:52:45Z</time>
      </trkpt>
      <trkpt lat="43.63806" lon="5.93448">
        <ele>432.730713</ele>
        <time>2012-04-09T07:52:54Z</time>
      </trkpt>
      <trkpt lat="43.63804" lon="5.93451">
        <ele>432.730713</ele>
        <time>2012-04-09T07:52:55Z</time>
      </trkpt>
      <trkpt lat="43.63796" lon="5.93465">
        <ele>433.211304</ele>
        <time>2012-04-09T07:52:58Z</time>
      </trkpt>
      <trkpt lat="43.63772" lon="5.93503">
        <ele>435.614502</ele>
        <time>2012-04-09T07:53:07Z</time>
      </trkpt>
      <trkpt lat="43.63749" lon="5.9353">
        <ele>435.614502</ele>
        <time>2012-04-09T07:53:15Z</time>
      </trkpt>
      <trkpt lat="43.63721" lon="5.93552">
        <ele>434.65332</ele>
        <time>2012-04-09T07:53:22Z</time>
      </trkpt>
      <trkpt lat="43.63687" lon="5.93576">
        <ele>435.614502</ele>
        <time>2012-04-09T07:53:30Z</time>
      </trkpt>
      <trkpt lat="43.63656" lon="5.93604">
        <ele>436.095215</ele>
        <time>2012-04-09T07:53:38Z</time>
      </trkpt>
      <trkpt lat="43.63635" lon="5.93634">
        <ele>436.575928</ele>
        <time>2012-04-09T07:53:44Z</time>
      </trkpt>
      <trkpt lat="43.63615" lon="5.93664">
        <ele>436.095215</ele>
        <time>2012-04-09T07:53:50Z</time>
      </trkpt>
      <trkpt lat="43.63592" lon="5.93695">
        <ele>435.133911</ele>
        <time>2012-04-09T07:53:56Z</time>
      </trkpt>
      <trkpt lat="43.63565" lon="5.93729">
        <ele>435.133911</ele>
        <time>2012-04-09T07:54:02Z</time>
      </trkpt>
      <trkpt lat="43.63555" lon="5.9374">
        <ele>435.614502</ele>
        <time>2012-04-09T07:54:04Z</time>
      </trkpt>
      <trkpt lat="43.63522" lon="5.9376">
        <ele>436.095215</ele>
        <time>2012-04-09T07:54:10Z</time>
      </trkpt>
      <trkpt lat="43.63476" lon="5.93776">
        <ele>437.537109</ele>
        <time>2012-04-09T07:54:18Z</time>
      </trkpt>
      <trkpt lat="43.63435" lon="5.93783">
        <ele>438.979126</ele>
        <time>2012-04-09T07:54:25Z</time>
      </trkpt>
      <trkpt lat="43.6338" lon="5.93787">
        <ele>439.459717</ele>
        <time>2012-04-09T07:54:35Z</time>
      </trkpt>
      <trkpt lat="43.63364" lon="5.9379">
        <ele>438.979126</ele>
        <time>2012-04-09T07:54:38Z</time>
      </trkpt>
      <trkpt lat="43.63333" lon="5.93815">
        <ele>437.537109</ele>
        <time>2012-04-09T07:54:44Z</time>
      </trkpt>
      <trkpt lat="43.63299" lon="5.93854">
        <ele>435.133911</ele>
        <time>2012-04-09T07:54:50Z</time>
      </trkpt>
      <trkpt lat="43.63259" lon="5.93897">
        <ele>433.211304</ele>
        <time>2012-04-09T07:54:56Z</time>
      </trkpt>
      <trkpt lat="43.63241" lon="5.93917">
        <ele>432.25</ele>
        <time>2012-04-09T07:54:59Z</time>
      </trkpt>
      <trkpt lat="43.63226" lon="5.93952">
        <ele>430.807983</ele>
        <time>2012-04-09T07:55:03Z</time>
      </trkpt>
      <trkpt lat="43.63234" lon="5.93983">
        <ele>429.846558</ele>
        <time>2012-04-09T07:55:06Z</time>
      </trkpt>
      <trkpt lat="43.63233" lon="5.94006">
        <ele>427.92395</ele>
        <time>2012-04-09T07:55:08Z</time>
      </trkpt>
      <trkpt lat="43.63218" lon="5.94013">
        <ele>426.482056</ele>
        <time>2012-04-09T07:55:10Z</time>
      </trkpt>
      <trkpt lat="43.63203" lon="5.94005">
        <ele>425.520752</ele>
        <time>2012-04-09T07:55:12Z</time>
      </trkpt>
      <trkpt lat="43.63181" lon="5.93988">
        <ele>424.559448</ele>
        <time>2012-04-09T07:55:15Z</time>
      </trkpt>
      <trkpt lat="43.63157" lon="5.93984">
        <ele>424.078735</ele>
        <time>2012-04-09T07:55:18Z</time>
      </trkpt>
      <trkpt lat="43.63144" lon="5.94001">
        <ele>423.598022</ele>
        <time>2012-04-09T07:55:20Z</time>
      </trkpt>
      <trkpt lat="43.63133" lon="5.9402">
        <ele>423.598022</ele>
        <time>2012-04-09T07:55:22Z</time>
      </trkpt>
      <trkpt lat="43.63107" lon="5.94044">
        <ele>424.078735</ele>
        <time>2012-04-09T07:55:26Z</time>
      </trkpt>
      <trkpt lat="43.63091" lon="5.94047">
        <ele>424.559448</ele>
        <time>2012-04-09T07:55:28Z</time>
      </trkpt>
      <trkpt lat="43.63063" lon="5.94068">
        <ele>424.559448</ele>
        <time>2012-04-09T07:55:32Z</time>
      </trkpt>
      <trkpt lat="43.6301" lon="5.94135">
        <ele>423.117432</ele>
        <time>2012-04-09T07:55:41Z</time>
      </trkpt>
      <trkpt lat="43.62974" lon="5.94159">
        <ele>423.598022</ele>
        <time>2012-04-09T07:55:46Z</time>
      </trkpt>
      <trkpt lat="43.62916" lon="5.94185">
        <ele>425.040161</ele>
        <time>2012-04-09T07:55:54Z</time>
      </trkpt>
      <trkpt lat="43.62877" lon="5.94213">
        <ele>425.040161</ele>
        <time>2012-04-09T07:56:00Z</time>
      </trkpt>
      <trkpt lat="43.62849" lon="5.94237">
        <ele>423.117432</ele>
        <time>2012-04-09T07:56:04Z</time>
      </trkpt>
      <trkpt lat="43.62804" lon="5.94257">
        <ele>420.714111</ele>
        <time>2012-04-09T07:56:09Z</time>
      </trkpt>
      <trkpt lat="43.62721" lon="5.94276">
        <ele>415.42688</ele>
        <time>2012-04-09T07:56:17Z</time>
      </trkpt>
      <trkpt lat="43.62665" lon="5.94276">
        <ele>412.062256</ele>
        <time>2012-04-09T07:56:22Z</time>
      </trkpt>
      <trkpt lat="43.62623" lon="5.94299">
        <ele>409.178345</ele>
        <time>2012-04-09T07:56:26Z</time>
      </trkpt>
      <trkpt lat="43.62603" lon="5.94315">
        <ele>408.217041</ele>
        <time>2012-04-09T07:56:28Z</time>
      </trkpt>
      <trkpt lat="43.62558" lon="5.94325">
        <ele>405.813721</ele>
        <time>2012-04-09T07:56:32Z</time>
      </trkpt>
      <trkpt lat="43.62522" lon="5.94321">
        <ele>403.4104</ele>
        <time>2012-04-09T07:56:35Z</time>
      </trkpt>
      <trkpt lat="43.62476" lon="5.94336">
        <ele>400.045898</ele>
        <time>2012-04-09T07:56:39Z</time>
      </trkpt>
      <trkpt lat="43.62456" lon="5.94353">
        <ele>398.60376</ele>
        <time>2012-04-09T07:56:41Z</time>
      </trkpt>
      <trkpt lat="43.62422" lon="5.94359">
        <ele>397.642456</ele>
        <time>2012-04-09T07:56:44Z</time>
      </trkpt>
      <trkpt lat="43.62401" lon="5.94352">
        <ele>397.642456</ele>
        <time>2012-04-09T07:56:46Z</time>
      </trkpt>
      <trkpt lat="43.62381" lon="5.94341">
        <ele>397.642456</ele>
        <time>2012-04-09T07:56:48Z</time>
      </trkpt>
      <trkpt lat="43.62351" lon="5.94336">
        <ele>397.642456</ele>
        <time>2012-04-09T07:56:51Z</time>
      </trkpt>
      <trkpt lat="43.62341" lon="5.9434">
        <ele>397.161743</ele>
        <time>2012-04-09T07:56:52Z</time>
      </trkpt>
      <trkpt lat="43.6225" lon="5.94391">
        <ele>393.797241</ele>
        <time>2012-04-09T07:57:01Z</time>
      </trkpt>
      <trkpt lat="43.62173" lon="5.94433">
        <ele>388.029297</ele>
        <time>2012-04-09T07:57:08Z</time>
      </trkpt>
      <trkpt lat="43.62072" lon="5.94493">
        <ele>382.742065</ele>
        <time>2012-04-09T07:57:17Z</time>
      </trkpt>
      <trkpt lat="43.61999" lon="5.94537">
        <ele>381.300049</ele>
        <time>2012-04-09T07:57:24Z</time>
      </trkpt>
      <trkpt lat="43.61955" lon="5.94579">
        <ele>380.819458</ele>
        <time>2012-04-09T07:57:29Z</time>
      </trkpt>
      <trkpt lat="43.61894" lon="5.9466">
        <ele>378.896851</ele>
        <time>2012-04-09T07:57:37Z</time>
      </trkpt>
      <trkpt lat="43.61878" lon="5.9468">
        <ele>378.416138</ele>
        <time>2012-04-09T07:57:39Z</time>
      </trkpt>
      <trkpt lat="43.61838" lon="5.94704">
        <ele>376.974243</ele>
        <time>2012-04-09T07:57:43Z</time>
      </trkpt>
      <trkpt lat="43.61826" lon="5.94707">
        <ele>376.49353</ele>
        <time>2012-04-09T07:57:44Z</time>
      </trkpt>
      <trkpt lat="43.61728" lon="5.94716">
        <ele>374.090088</ele>
        <time>2012-04-09T07:57:53Z</time>
      </trkpt>
      <trkpt lat="43.6164" lon="5.94716">
        <ele>372.16748</ele>
        <time>2012-04-09T07:58:01Z</time>
      </trkpt>
      <trkpt lat="43.61583" lon="5.94727">
        <ele>370.244873</ele>
        <time>2012-04-09T07:58:06Z</time>
      </trkpt>
      <trkpt lat="43.61506" lon="5.9475">
        <ele>368.802979</ele>
        <time>2012-04-09T07:58:13Z</time>
      </trkpt>
      <trkpt lat="43.61475" lon="5.94767">
        <ele>368.802979</ele>
        <time>2012-04-09T07:58:16Z</time>
      </trkpt>
      <trkpt lat="43.61435" lon="5.94808">
        <ele>369.283691</ele>
        <time>2012-04-09T07:58:21Z</time>
      </trkpt>
      <trkpt lat="43.61423" lon="5.94826">
        <ele>369.283691</ele>
        <time>2012-04-09T07:58:23Z</time>
      </trkpt>
      <trkpt lat="43.61406" lon="5.94869">
        <ele>369.764282</ele>
        <time>2012-04-09T07:58:27Z</time>
      </trkpt>
      <trkpt lat="43.61389" lon="5.94941">
        <ele>368.802979</ele>
        <time>2012-04-09T07:58:33Z</time>
      </trkpt>
      <trkpt lat="43.61365" lon="5.94982">
        <ele>366.880249</ele>
        <time>2012-04-09T07:58:37Z</time>
      </trkpt>
      <trkpt lat="43.61347" lon="5.94995">
        <ele>365.918945</ele>
        <time>2012-04-09T07:58:39Z</time>
      </trkpt>
      <trkpt lat="43.61289" lon="5.9503">
        <ele>363.035034</ele>
        <time>2012-04-09T07:58:45Z</time>
      </trkpt>
      <trkpt lat="43.61246" lon="5.95033">
        <ele>361.59314</ele>
        <time>2012-04-09T07:58:49Z</time>
      </trkpt>
      <trkpt lat="43.61237" lon="5.95026">
        <ele>361.59314</ele>
        <time>2012-04-09T07:58:50Z</time>
      </trkpt>
      <trkpt lat="43.61198" lon="5.95002">
        <ele>361.112427</ele>
        <time>2012-04-09T07:58:54Z</time>
      </trkpt>
      <trkpt lat="43.61177" lon="5.95006">
        <ele>361.59314</ele>
        <time>2012-04-09T07:58:56Z</time>
      </trkpt>
      <trkpt lat="43.61147" lon="5.95017">
        <ele>362.07373</ele>
        <time>2012-04-09T07:58:59Z</time>
      </trkpt>
      <trkpt lat="43.61109" lon="5.95016">
        <ele>362.554321</ele>
        <time>2012-04-09T07:59:03Z</time>
      </trkpt>
      <trkpt lat="43.611" lon="5.95012">
        <ele>363.035034</ele>
        <time>2012-04-09T07:59:04Z</time>
      </trkpt>
      <trkpt lat="43.61056" lon="5.9501">
        <ele>363.515747</ele>
        <time>2012-04-09T07:59:09Z</time>
      </trkpt>
      <trkpt lat="43.61038" lon="5.95016">
        <ele>363.515747</ele>
        <time>2012-04-09T07:59:11Z</time>
      </trkpt>
      <trkpt lat="43.60985" lon="5.95017">
        <ele>363.515747</ele>
        <time>2012-04-09T07:59:17Z</time>
      </trkpt>
      <trkpt lat="43.60912" lon="5.95015">
        <ele>362.554321</ele>
        <time>2012-04-09T07:59:25Z</time>
      </trkpt>
      <trkpt lat="43.60884" lon="5.95019">
        <ele>362.07373</ele>
        <time>2012-04-09T07:59:28Z</time>
      </trkpt>
      <trkpt lat="43.60852" lon="5.95046">
        <ele>361.112427</ele>
        <time>2012-04-09T07:59:32Z</time>
      </trkpt>
      <trkpt lat="43.60847" lon="5.95057">
        <ele>360.631714</ele>
        <time>2012-04-09T07:59:33Z</time>
      </trkpt>
      <trkpt lat="43.60837" lon="5.95081">
        <ele>360.151123</ele>
        <time>2012-04-09T07:59:35Z</time>
      </trkpt>
      <trkpt lat="43.60815" lon="5.95108">
        <ele>359.67041</ele>
        <time>2012-04-09T07:59:38Z</time>
      </trkpt>
      <trkpt lat="43.60806" lon="5.95113">
        <ele>359.67041</ele>
        <time>2012-04-09T07:59:39Z</time>
      </trkpt>
      <trkpt lat="43.60787" lon="5.9512">
        <ele>359.67041</ele>
        <time>2012-04-09T07:59:41Z</time>
      </trkpt>
      <trkpt lat="43.60757" lon="5.95146">
        <ele>360.631714</ele>
        <time>2012-04-09T07:59:45Z</time>
      </trkpt>
      <trkpt lat="43.60734" lon="5.95181">
        <ele>361.112427</ele>
        <time>2012-04-09T07:59:49Z</time>
      </trkpt>
      <trkpt lat="43.607" lon="5.95208">
        <ele>362.554321</ele>
        <time>2012-04-09T07:59:54Z</time>
      </trkpt>
      <trkpt lat="43.60659" lon="5.95239">
        <ele>363.515747</ele>
        <time>2012-04-09T08:00:00Z</time>
      </trkpt>
      <trkpt lat="43.60627" lon="5.95281">
        <ele>364.476929</ele>
        <time>2012-04-09T08:00:06Z</time>
      </trkpt>
      <trkpt lat="43.60609" lon="5.95311">
        <ele>364.957642</ele>
        <time>2012-04-09T08:00:10Z</time>
      </trkpt>
      <trkpt lat="43.6059" lon="5.95364">
        <ele>364.957642</ele>
        <time>2012-04-09T08:00:16Z</time>
      </trkpt>
      <trkpt lat="43.60571" lon="5.95417">
        <ele>365.918945</ele>
        <time>2012-04-09T08:00:22Z</time>
      </trkpt>
      <trkpt lat="43.60542" lon="5.95456">
        <ele>367.360962</ele>
        <time>2012-04-09T08:00:27Z</time>
      </trkpt>
      <trkpt lat="43.60505" lon="5.955">
        <ele>368.322266</ele>
        <time>2012-04-09T08:00:33Z</time>
      </trkpt>
      <trkpt lat="43.60482" lon="5.95508">
        <ele>368.802979</ele>
        <time>2012-04-09T08:00:36Z</time>
      </trkpt>
      <trkpt lat="43.60467" lon="5.95499">
        <ele>369.283691</ele>
        <time>2012-04-09T08:00:38Z</time>
      </trkpt>
      <trkpt lat="43.60447" lon="5.95483">
        <ele>369.764282</ele>
        <time>2012-04-09T08:00:41Z</time>
      </trkpt>
      <trkpt lat="43.6042" lon="5.95472">
        <ele>370.725586</ele>
        <time>2012-04-09T08:00:45Z</time>
      </trkpt>
      <trkpt lat="43.60361" lon="5.95465">
        <ele>371.206299</ele>
        <time>2012-04-09T08:00:53Z</time>
      </trkpt>
      <trkpt lat="43.60316" lon="5.95461">
        <ele>372.16748</ele>
        <time>2012-04-09T08:00:59Z</time>
      </trkpt>
      <trkpt lat="43.60279" lon="5.95479">
        <ele>370.725586</ele>
        <time>2012-04-09T08:01:04Z</time>
      </trkpt>
      <trkpt lat="43.60238" lon="5.95497">
        <ele>369.283691</ele>
        <time>2012-04-09T08:01:09Z</time>
      </trkpt>
      <trkpt lat="43.60212" lon="5.95502">
        <ele>368.802979</ele>
        <time>2012-04-09T08:01:12Z</time>
      </trkpt>
      <trkpt lat="43.60179" lon="5.95492">
        <ele>368.322266</ele>
        <time>2012-04-09T08:01:16Z</time>
      </trkpt>
      <trkpt lat="43.60168" lon="5.95474">
        <ele>367.841553</ele>
        <time>2012-04-09T08:01:18Z</time>
      </trkpt>
      <trkpt lat="43.60165" lon="5.95464">
        <ele>367.841553</ele>
        <time>2012-04-09T08:01:19Z</time>
      </trkpt>
      <trkpt lat="43.60161" lon="5.95441">
        <ele>367.360962</ele>
        <time>2012-04-09T08:01:21Z</time>
      </trkpt>
      <trkpt lat="43.60149" lon="5.95386">
        <ele>366.880249</ele>
        <time>2012-04-09T08:01:26Z</time>
      </trkpt>
      <trkpt lat="43.60133" lon="5.9536">
        <ele>366.880249</ele>
        <time>2012-04-09T08:01:29Z</time>
      </trkpt>
      <trkpt lat="43.60126" lon="5.95354">
        <ele>366.399536</ele>
        <time>2012-04-09T08:01:30Z</time>
      </trkpt>
      <trkpt lat="43.60068" lon="5.95311">
        <ele>364.957642</ele>
        <time>2012-04-09T08:01:38Z</time>
      </trkpt>
      <trkpt lat="43.60037" lon="5.9531">
        <ele>364.476929</ele>
        <time>2012-04-09T08:01:42Z</time>
      </trkpt>
      <trkpt lat="43.60016" lon="5.95334">
        <ele>363.515747</ele>
        <time>2012-04-09T08:01:45Z</time>
      </trkpt>
      <trkpt lat="43.59998" lon="5.95363">
        <ele>363.035034</ele>
        <time>2012-04-09T08:01:48Z</time>
      </trkpt>
      <trkpt lat="43.59973" lon="5.95432">
        <ele>360.151123</ele>
        <time>2012-04-09T08:01:54Z</time>
      </trkpt>
      <trkpt lat="43.59954" lon="5.95487">
        <ele>359.189697</ele>
        <time>2012-04-09T08:01:59Z</time>
      </trkpt>
      <trkpt lat="43.59954" lon="5.95531">
        <ele>358.708984</ele>
        <time>2012-04-09T08:02:03Z</time>
      </trkpt>
      <trkpt lat="43.59958" lon="5.95542">
        <ele>358.708984</ele>
        <time>2012-04-09T08:02:04Z</time>
      </trkpt>
      <trkpt lat="43.59967" lon="5.9559">
        <ele>357.747803</ele>
        <time>2012-04-09T08:02:08Z</time>
      </trkpt>
      <trkpt lat="43.59956" lon="5.95625">
        <ele>356.305786</ele>
        <time>2012-04-09T08:02:11Z</time>
      </trkpt>
      <trkpt lat="43.59936" lon="5.95666">
        <ele>355.344482</ele>
        <time>2012-04-09T08:02:15Z</time>
      </trkpt>
      <trkpt lat="43.59932" lon="5.95714">
        <ele>354.383179</ele>
        <time>2012-04-09T08:02:19Z</time>
      </trkpt>
      <trkpt lat="43.59929" lon="5.95751">
        <ele>353.421875</ele>
        <time>2012-04-09T08:02:22Z</time>
      </trkpt>
      <trkpt lat="43.59918" lon="5.95773">
        <ele>352.460571</ele>
        <time>2012-04-09T08:02:24Z</time>
      </trkpt>
      <trkpt lat="43.59873" lon="5.95848">
        <ele>349.576538</ele>
        <time>2012-04-09T08:02:32Z</time>
      </trkpt>
      <trkpt lat="43.59869" lon="5.95855">
        <ele>349.576538</ele>
        <time>2012-04-09T08:02:33Z</time>
      </trkpt>
      <trkpt lat="43.59849" lon="5.95862">
        <ele>348.615234</ele>
        <time>2012-04-09T08:02:37Z</time>
      </trkpt>
      <trkpt lat="43.5981" lon="5.95833">
        <ele>348.134644</ele>
        <time>2012-04-09T08:02:45Z</time>
      </trkpt>
      <trkpt lat="43.59797" lon="5.95824">
        <ele>348.615234</ele>
        <time>2012-04-09T08:02:49Z</time>
      </trkpt>
      <trkpt lat="43.59793" lon="5.95821">
        <ele>348.615234</ele>
        <time>2012-04-09T08:02:51Z</time>
      </trkpt>
      <trkpt lat="43.59787" lon="5.95804">
        <ele>348.134644</ele>
        <time>2012-04-09T08:02:55Z</time>
      </trkpt>
      <trkpt lat="43.59768" lon="5.95771">
        <ele>346.212036</ele>
        <time>2012-04-09T08:03:01Z</time>
      </trkpt>
      <trkpt lat="43.59752" lon="5.95742">
        <ele>343.808594</ele>
        <time>2012-04-09T08:03:05Z</time>
      </trkpt>
      <trkpt lat="43.59746" lon="5.95704">
        <ele>342.84729</ele>
        <time>2012-04-09T08:03:09Z</time>
      </trkpt>
      <trkpt lat="43.59754" lon="5.95673">
        <ele>341.885986</ele>
        <time>2012-04-09T08:03:12Z</time>
      </trkpt>
      <trkpt lat="43.59789" lon="5.95588">
        <ele>338.040771</ele>
        <time>2012-04-09T08:03:20Z</time>
      </trkpt>
      <trkpt lat="43.59812" lon="5.95539">
        <ele>335.156738</ele>
        <time>2012-04-09T08:03:25Z</time>
      </trkpt>
      <trkpt lat="43.59823" lon="5.95513">
        <ele>333.714722</ele>
        <time>2012-04-09T08:03:29Z</time>
      </trkpt>
      <trkpt lat="43.59832" lon="5.95489">
        <ele>332.75354</ele>
        <time>2012-04-09T08:03:34Z</time>
      </trkpt>
      <trkpt lat="43.59849" lon="5.9547">
        <ele>331.311523</ele>
        <time>2012-04-09T08:03:38Z</time>
      </trkpt>
      <trkpt lat="43.59855" lon="5.95467">
        <ele>330.830933</ele>
        <time>2012-04-09T08:03:39Z</time>
      </trkpt>
      <trkpt lat="43.5989" lon="5.95452">
        <ele>328.427612</ele>
        <time>2012-04-09T08:03:44Z</time>
      </trkpt>
      <trkpt lat="43.59925" lon="5.95414">
        <ele>326.02417</ele>
        <time>2012-04-09T08:03:49Z</time>
      </trkpt>
      <trkpt lat="43.59943" lon="5.95365">
        <ele>324.582275</ele>
        <time>2012-04-09T08:03:53Z</time>
      </trkpt>
      <trkpt lat="43.59946" lon="5.95306">
        <ele>322.659668</ele>
        <time>2012-04-09T08:03:57Z</time>
      </trkpt>
      <trkpt lat="43.59941" lon="5.95279">
        <ele>321.217773</ele>
        <time>2012-04-09T08:03:59Z</time>
      </trkpt>
      <trkpt lat="43.59936" lon="5.95256">
        <ele>319.775635</ele>
        <time>2012-04-09T08:04:01Z</time>
      </trkpt>
      <trkpt lat="43.5994" lon="5.95215">
        <ele>317.372437</ele>
        <time>2012-04-09T08:04:05Z</time>
      </trkpt>
      <trkpt lat="43.59946" lon="5.95207">
        <ele>316.891724</ele>
        <time>2012-04-09T08:04:06Z</time>
      </trkpt>
      <trkpt lat="43.59974" lon="5.95176">
        <ele>315.449829</ele>
        <time>2012-04-09T08:04:10Z</time>
      </trkpt>
      <trkpt lat="43.60006" lon="5.95122">
        <ele>314.488403</ele>
        <time>2012-04-09T08:04:15Z</time>
      </trkpt>
      <trkpt lat="43.60048" lon="5.95047">
        <ele>314.007812</ele>
        <time>2012-04-09T08:04:22Z</time>
      </trkpt>
      <trkpt lat="43.60075" lon="5.95017">
        <ele>315.449829</ele>
        <time>2012-04-09T08:04:26Z</time>
      </trkpt>
      <trkpt lat="43.60131" lon="5.94964">
        <ele>316.891724</ele>
        <time>2012-04-09T08:04:35Z</time>
      </trkpt>
      <trkpt lat="43.60165" lon="5.94933">
        <ele>316.411011</ele>
        <time>2012-04-09T08:04:40Z</time>
      </trkpt>
      <trkpt lat="43.60221" lon="5.94878">
        <ele>315.93042</ele>
        <time>2012-04-09T08:04:48Z</time>
      </trkpt>
      <trkpt lat="43.60238" lon="5.94837">
        <ele>315.449829</ele>
        <time>2012-04-09T08:04:52Z</time>
      </trkpt>
      <trkpt lat="43.60236" lon="5.94813">
        <ele>315.449829</ele>
        <time>2012-04-09T08:04:54Z</time>
      </trkpt>
      <trkpt lat="43.60213" lon="5.94713">
        <ele>315.93042</ele>
        <time>2012-04-09T08:05:03Z</time>
      </trkpt>
      <trkpt lat="43.6021" lon="5.94692">
        <ele>315.93042</ele>
        <time>2012-04-09T08:05:05Z</time>
      </trkpt>
      <trkpt lat="43.60215" lon="5.9464">
        <ele>316.891724</ele>
        <time>2012-04-09T08:05:10Z</time>
      </trkpt>
      <trkpt lat="43.60231" lon="5.94575">
        <ele>317.372437</ele>
        <time>2012-04-09T08:05:17Z</time>
      </trkpt>
      <trkpt lat="43.60256" lon="5.94508">
        <ele>316.891724</ele>
        <time>2012-04-09T08:05:25Z</time>
      </trkpt>
      <trkpt lat="43.60285" lon="5.94455">
        <ele>317.853027</ele>
        <time>2012-04-09T08:05:32Z</time>
      </trkpt>
      <trkpt lat="43.60306" lon="5.94403">
        <ele>317.853027</ele>
        <time>2012-04-09T08:05:38Z</time>
      </trkpt>
      <trkpt lat="43.60321" lon="5.94359">
        <ele>318.333618</ele>
        <time>2012-04-09T08:05:43Z</time>
      </trkpt>
      <trkpt lat="43.60339" lon="5.94333">
        <ele>318.814331</ele>
        <time>2012-04-09T08:05:47Z</time>
      </trkpt>
      <trkpt lat="43.60352" lon="5.94326">
        <ele>318.814331</ele>
        <time>2012-04-09T08:05:49Z</time>
      </trkpt>
      <trkpt lat="43.60375" lon="5.94321">
        <ele>318.333618</ele>
        <time>2012-04-09T08:05:52Z</time>
      </trkpt>
      <trkpt lat="43.60402" lon="5.94301">
        <ele>319.295044</ele>
        <time>2012-04-09T08:05:56Z</time>
      </trkpt>
      <trkpt lat="43.60412" lon="5.94286">
        <ele>319.295044</ele>
        <time>2012-04-09T08:05:58Z</time>
      </trkpt>
      <trkpt lat="43.60432" lon="5.94243">
        <ele>318.814331</ele>
        <time>2012-04-09T08:06:03Z</time>
      </trkpt>
      <trkpt lat="43.60439" lon="5.94204">
        <ele>318.333618</ele>
        <time>2012-04-09T08:06:07Z</time>
      </trkpt>
      <trkpt lat="43.60431" lon="5.94165">
        <ele>318.814331</ele>
        <time>2012-04-09T08:06:11Z</time>
      </trkpt>
      <trkpt lat="43.60414" lon="5.9412">
        <ele>318.814331</ele>
        <time>2012-04-09T08:06:16Z</time>
      </trkpt>
      <trkpt lat="43.60407" lon="5.94082">
        <ele>318.333618</ele>
        <time>2012-04-09T08:06:20Z</time>
      </trkpt>
      <trkpt lat="43.60409" lon="5.94064">
        <ele>318.333618</ele>
        <time>2012-04-09T08:06:22Z</time>
      </trkpt>
      <trkpt lat="43.60422" lon="5.94003">
        <ele>318.814331</ele>
        <time>2012-04-09T08:06:29Z</time>
      </trkpt>
      <trkpt lat="43.60426" lon="5.93978">
        <ele>319.295044</ele>
        <time>2012-04-09T08:06:32Z</time>
      </trkpt>
      <trkpt lat="43.60428" lon="5.93941">
        <ele>319.775635</ele>
        <time>2012-04-09T08:06:39Z</time>
      </trkpt>
      <trkpt lat="43.60428" lon="5.93932">
        <ele>320.256348</ele>
        <time>2012-04-09T08:06:43Z</time>
      </trkpt>
      <trkpt lat="43.60427" lon="5.93919">
        <ele>320.737061</ele>
        <time>2012-04-09T08:06:47Z</time>
      </trkpt>
      <trkpt lat="43.60427" lon="5.93907">
        <ele>320.737061</ele>
        <time>2012-04-09T08:06:52Z</time>
      </trkpt>
      <trkpt lat="43.60427" lon="5.93907">
        <ele>320.737061</ele>
        <time>2012-04-09T08:06:53Z</time>
      </trkpt>
      <trkpt lat="43.60427" lon="5.93907">
        <ele>320.256348</ele>
        <time>2012-04-09T08:06:57Z</time>
      </trkpt>
      <trkpt lat="43.60427" lon="5.93903">
        <ele>319.775635</ele>
        <time>2012-04-09T08:07:00Z</time>
      </trkpt>
      <trkpt lat="43.60427" lon="5.93901">
        <ele>320.737061</ele>
        <time>2012-04-09T08:07:03Z</time>
      </trkpt>
      <trkpt lat="43.60425" lon="5.93902">
        <ele>327.466187</ele>
        <time>2012-04-09T08:08:56Z</time>
      </trkpt>
      <trkpt lat="43.60424" lon="5.93901">
        <ele>326.504883</ele>
        <time>2012-04-09T08:08:59Z</time>
      </trkpt>
      <trkpt lat="43.60424" lon="5.939">
        <ele>326.02417</ele>
        <time>2012-04-09T08:09:06Z</time>
      </trkpt>
      <trkpt lat="43.60422" lon="5.93893">
        <ele>325.062988</ele>
        <time>2012-04-09T08:09:12Z</time>
      </trkpt>
      <trkpt lat="43.60422" lon="5.9389">
        <ele>325.543579</ele>
        <time>2012-04-09T08:09:16Z</time>
      </trkpt>
      <trkpt lat="43.6042" lon="5.93887">
        <ele>323.140381</ele>
        <time>2012-04-09T08:11:11Z</time>
      </trkpt>
      <trkpt lat="43.60413" lon="5.93871">
        <ele>322.659668</ele>
        <time>2012-04-09T08:11:17Z</time>
      </trkpt>
      <trkpt lat="43.604" lon="5.93845">
        <ele>322.659668</ele>
        <time>2012-04-09T08:11:23Z</time>
      </trkpt>
      <trkpt lat="43.60379" lon="5.93808">
        <ele>323.140381</ele>
        <time>2012-04-09T08:11:31Z</time>
      </trkpt>
      <trkpt lat="43.60364" lon="5.93764">
        <ele>323.620972</ele>
        <time>2012-04-09T08:11:38Z</time>
      </trkpt>
      <trkpt lat="43.60348" lon="5.93693">
        <ele>324.101562</ele>
        <time>2012-04-09T08:11:48Z</time>
      </trkpt>
      <trkpt lat="43.60338" lon="5.93619">
        <ele>324.101562</ele>
        <time>2012-04-09T08:11:58Z</time>
      </trkpt>
      <trkpt lat="43.60331" lon="5.93555">
        <ele>324.582275</ele>
        <time>2012-04-09T08:12:07Z</time>
      </trkpt>
      <trkpt lat="43.60329" lon="5.93501">
        <ele>325.062988</ele>
        <time>2012-04-09T08:12:15Z</time>
      </trkpt>
      <trkpt lat="43.60326" lon="5.93445">
        <ele>326.02417</ele>
        <time>2012-04-09T08:12:23Z</time>
      </trkpt>
      <trkpt lat="43.60312" lon="5.93405">
        <ele>326.985596</ele>
        <time>2012-04-09T08:12:29Z</time>
      </trkpt>
      <trkpt lat="43.60303" lon="5.93385">
        <ele>327.466187</ele>
        <time>2012-04-09T08:12:32Z</time>
      </trkpt>
      <trkpt lat="43.60298" lon="5.93346">
        <ele>326.985596</ele>
        <time>2012-04-09T08:12:37Z</time>
      </trkpt>
      <trkpt lat="43.60302" lon="5.93323">
        <ele>326.02417</ele>
        <time>2012-04-09T08:12:40Z</time>
      </trkpt>
      <trkpt lat="43.60329" lon="5.93235">
        <ele>326.02417</ele>
        <time>2012-04-09T08:12:52Z</time>
      </trkpt>
      <trkpt lat="43.60347" lon="5.93161">
        <ele>327.466187</ele>
        <time>2012-04-09T08:13:02Z</time>
      </trkpt>
      <trkpt lat="43.60353" lon="5.93107">
        <ele>327.466187</ele>
        <time>2012-04-09T08:13:09Z</time>
      </trkpt>
      <trkpt lat="43.60352" lon="5.93041">
        <ele>327.946777</ele>
        <time>2012-04-09T08:13:17Z</time>
      </trkpt>
      <trkpt lat="43.60349" lon="5.93025">
        <ele>327.946777</ele>
        <time>2012-04-09T08:13:19Z</time>
      </trkpt>
      <trkpt lat="43.60329" lon="5.92982">
        <ele>327.946777</ele>
        <time>2012-04-09T08:13:25Z</time>
      </trkpt>
      <trkpt lat="43.6029" lon="5.92938">
        <ele>327.466187</ele>
        <time>2012-04-09T08:13:33Z</time>
      </trkpt>
      <trkpt lat="43.60247" lon="5.9289">
        <ele>327.466187</ele>
        <time>2012-04-09T08:13:42Z</time>
      </trkpt>
      <trkpt lat="43.6021" lon="5.92851">
        <ele>327.466187</ele>
        <time>2012-04-09T08:13:50Z</time>
      </trkpt>
      <trkpt lat="43.60189" lon="5.92845">
        <ele>328.908325</ele>
        <time>2012-04-09T08:13:54Z</time>
      </trkpt>
      <trkpt lat="43.60173" lon="5.92856">
        <ele>329.388916</ele>
        <time>2012-04-09T08:13:57Z</time>
      </trkpt>
      <trkpt lat="43.60163" lon="5.92864">
        <ele>329.388916</ele>
        <time>2012-04-09T08:13:59Z</time>
      </trkpt>
      <trkpt lat="43.60141" lon="5.92866">
        <ele>330.35022</ele>
        <time>2012-04-09T08:14:03Z</time>
      </trkpt>
      <trkpt lat="43.60135" lon="5.92864">
        <ele>330.35022</ele>
        <time>2012-04-09T08:14:04Z</time>
      </trkpt>
      <trkpt lat="43.60106" lon="5.92838">
        <ele>330.35022</ele>
        <time>2012-04-09T08:14:10Z</time>
      </trkpt>
      <trkpt lat="43.60103" lon="5.92831">
        <ele>330.35022</ele>
        <time>2012-04-09T08:14:11Z</time>
      </trkpt>
      <trkpt lat="43.60093" lon="5.92811">
        <ele>330.35022</ele>
        <time>2012-04-09T08:14:14Z</time>
      </trkpt>
      <trkpt lat="43.60089" lon="5.92764">
        <ele>331.311523</ele>
        <time>2012-04-09T08:14:20Z</time>
      </trkpt>
      <trkpt lat="43.6009" lon="5.92732">
        <ele>331.792114</ele>
        <time>2012-04-09T08:14:24Z</time>
      </trkpt>
      <trkpt lat="43.60081" lon="5.92704">
        <ele>332.272827</ele>
        <time>2012-04-09T08:14:28Z</time>
      </trkpt>
      <trkpt lat="43.60067" lon="5.9269">
        <ele>333.234131</ele>
        <time>2012-04-09T08:14:31Z</time>
      </trkpt>
      <trkpt lat="43.60022" lon="5.92656">
        <ele>333.714722</ele>
        <time>2012-04-09T08:14:40Z</time>
      </trkpt>
      <trkpt lat="43.60001" lon="5.9263">
        <ele>334.195435</ele>
        <time>2012-04-09T08:14:45Z</time>
      </trkpt>
      <trkpt lat="43.59973" lon="5.92577">
        <ele>335.156738</ele>
        <time>2012-04-09T08:14:54Z</time>
      </trkpt>
      <trkpt lat="43.5995" lon="5.92518">
        <ele>336.118164</ele>
        <time>2012-04-09T08:15:03Z</time>
      </trkpt>
      <trkpt lat="43.59923" lon="5.92466">
        <ele>337.079468</ele>
        <time>2012-04-09T08:15:12Z</time>
      </trkpt>
      <trkpt lat="43.59898" lon="5.9241">
        <ele>337.560059</ele>
        <time>2012-04-09T08:15:21Z</time>
      </trkpt>
      <trkpt lat="43.59894" lon="5.92379">
        <ele>337.560059</ele>
        <time>2012-04-09T08:15:25Z</time>
      </trkpt>
      <trkpt lat="43.599" lon="5.92304">
        <ele>337.560059</ele>
        <time>2012-04-09T08:15:34Z</time>
      </trkpt>
      <trkpt lat="43.59909" lon="5.92192">
        <ele>338.040771</ele>
        <time>2012-04-09T08:15:47Z</time>
      </trkpt>
      <trkpt lat="43.59918" lon="5.92097">
        <ele>338.040771</ele>
        <time>2012-04-09T08:15:58Z</time>
      </trkpt>
      <trkpt lat="43.59919" lon="5.92028">
        <ele>338.521484</ele>
        <time>2012-04-09T08:16:06Z</time>
      </trkpt>
      <trkpt lat="43.59911" lon="5.91973">
        <ele>339.002075</ele>
        <time>2012-04-09T08:16:13Z</time>
      </trkpt>
      <trkpt lat="43.59894" lon="5.9188">
        <ele>339.963379</ele>
        <time>2012-04-09T08:16:25Z</time>
      </trkpt>
      <trkpt lat="43.59879" lon="5.9181">
        <ele>339.963379</ele>
        <time>2012-04-09T08:16:34Z</time>
      </trkpt>
      <trkpt lat="43.59858" lon="5.91759">
        <ele>341.885986</ele>
        <time>2012-04-09T08:16:42Z</time>
      </trkpt>
      <trkpt lat="43.59844" lon="5.91712">
        <ele>342.366699</ele>
        <time>2012-04-09T08:16:49Z</time>
      </trkpt>
      <trkpt lat="43.5984" lon="5.9166">
        <ele>342.84729</ele>
        <time>2012-04-09T08:16:56Z</time>
      </trkpt>
      <trkpt lat="43.59835" lon="5.91576">
        <ele>343.327881</ele>
        <time>2012-04-09T08:17:07Z</time>
      </trkpt>
      <trkpt lat="43.5983" lon="5.9149">
        <ele>343.808594</ele>
        <time>2012-04-09T08:17:18Z</time>
      </trkpt>
      <trkpt lat="43.59832" lon="5.91422">
        <ele>344.289429</ele>
        <time>2012-04-09T08:17:27Z</time>
      </trkpt>
      <trkpt lat="43.59835" lon="5.91349">
        <ele>345.731323</ele>
        <time>2012-04-09T08:17:37Z</time>
      </trkpt>
      <trkpt lat="43.59838" lon="5.91277">
        <ele>347.653931</ele>
        <time>2012-04-09T08:17:47Z</time>
      </trkpt>
      <trkpt lat="43.59841" lon="5.91212">
        <ele>349.576538</ele>
        <time>2012-04-09T08:17:56Z</time>
      </trkpt>
      <trkpt lat="43.59847" lon="5.91153">
        <ele>350.537842</ele>
        <time>2012-04-09T08:18:04Z</time>
      </trkpt>
      <trkpt lat="43.59852" lon="5.91125">
        <ele>351.018433</ele>
        <time>2012-04-09T08:18:08Z</time>
      </trkpt>
      <trkpt lat="43.59845" lon="5.91091">
        <ele>351.499146</ele>
        <time>2012-04-09T08:18:13Z</time>
      </trkpt>
      <trkpt lat="43.59831" lon="5.91078">
        <ele>351.499146</ele>
        <time>2012-04-09T08:18:16Z</time>
      </trkpt>
      <trkpt lat="43.59792" lon="5.91048">
        <ele>351.979858</ele>
        <time>2012-04-09T08:18:24Z</time>
      </trkpt>
      <trkpt lat="43.59772" lon="5.91019">
        <ele>353.421875</ele>
        <time>2012-04-09T08:18:30Z</time>
      </trkpt>
      <trkpt lat="43.59757" lon="5.90983">
        <ele>355.344482</ele>
        <time>2012-04-09T08:18:37Z</time>
      </trkpt>
      <trkpt lat="43.59742" lon="5.90933">
        <ele>358.228394</ele>
        <time>2012-04-09T08:18:46Z</time>
      </trkpt>
      <trkpt lat="43.59726" lon="5.90885">
        <ele>360.631714</ele>
        <time>2012-04-09T08:18:55Z</time>
      </trkpt>
      <trkpt lat="43.59714" lon="5.90847">
        <ele>362.554321</ele>
        <time>2012-04-09T08:19:02Z</time>
      </trkpt>
      <trkpt lat="43.59699" lon="5.90799">
        <ele>363.996338</ele>
        <time>2012-04-09T08:19:10Z</time>
      </trkpt>
      <trkpt lat="43.59689" lon="5.90741">
        <ele>364.957642</ele>
        <time>2012-04-09T08:19:19Z</time>
      </trkpt>
      <trkpt lat="43.59682" lon="5.90686">
        <ele>364.957642</ele>
        <time>2012-04-09T08:19:27Z</time>
      </trkpt>
      <trkpt lat="43.59687" lon="5.90634">
        <ele>365.438354</ele>
        <time>2012-04-09T08:19:34Z</time>
      </trkpt>
      <trkpt lat="43.59694" lon="5.9058">
        <ele>365.918945</ele>
        <time>2012-04-09T08:19:41Z</time>
      </trkpt>
      <trkpt lat="43.59692" lon="5.90519">
        <ele>365.918945</ele>
        <time>2012-04-09T08:19:49Z</time>
      </trkpt>
      <trkpt lat="43.59692" lon="5.90464">
        <ele>365.918945</ele>
        <time>2012-04-09T08:19:56Z</time>
      </trkpt>
      <trkpt lat="43.59689" lon="5.90406">
        <ele>365.438354</ele>
        <time>2012-04-09T08:20:03Z</time>
      </trkpt>
      <trkpt lat="43.59675" lon="5.90351">
        <ele>365.438354</ele>
        <time>2012-04-09T08:20:10Z</time>
      </trkpt>
      <trkpt lat="43.59662" lon="5.90315">
        <ele>365.918945</ele>
        <time>2012-04-09T08:20:15Z</time>
      </trkpt>
      <trkpt lat="43.59646" lon="5.90292">
        <ele>366.399536</ele>
        <time>2012-04-09T08:20:19Z</time>
      </trkpt>
      <trkpt lat="43.5961" lon="5.9026">
        <ele>366.880249</ele>
        <time>2012-04-09T08:20:26Z</time>
      </trkpt>
      <trkpt lat="43.59581" lon="5.90224">
        <ele>367.841553</ele>
        <time>2012-04-09T08:20:33Z</time>
      </trkpt>
      <trkpt lat="43.59574" lon="5.90212">
        <ele>368.322266</ele>
        <time>2012-04-09T08:20:35Z</time>
      </trkpt>
      <trkpt lat="43.59554" lon="5.9016">
        <ele>369.764282</ele>
        <time>2012-04-09T08:20:43Z</time>
      </trkpt>
      <trkpt lat="43.59527" lon="5.90091">
        <ele>371.206299</ele>
        <time>2012-04-09T08:20:53Z</time>
      </trkpt>
      <trkpt lat="43.59518" lon="5.90052">
        <ele>371.68689</ele>
        <time>2012-04-09T08:20:58Z</time>
      </trkpt>
      <trkpt lat="43.59516" lon="5.89996">
        <ele>372.648193</ele>
        <time>2012-04-09T08:21:05Z</time>
      </trkpt>
      <trkpt lat="43.59519" lon="5.89912">
        <ele>374.570801</ele>
        <time>2012-04-09T08:21:16Z</time>
      </trkpt>
      <trkpt lat="43.59517" lon="5.89852">
        <ele>376.012817</ele>
        <time>2012-04-09T08:21:24Z</time>
      </trkpt>
      <trkpt lat="43.59509" lon="5.89785">
        <ele>377.935425</ele>
        <time>2012-04-09T08:21:33Z</time>
      </trkpt>
      <trkpt lat="43.59495" lon="5.89721">
        <ele>380.338745</ele>
        <time>2012-04-09T08:21:42Z</time>
      </trkpt>
      <trkpt lat="43.5948" lon="5.89657">
        <ele>381.300049</ele>
        <time>2012-04-09T08:21:51Z</time>
      </trkpt>
      <trkpt lat="43.59467" lon="5.896">
        <ele>381.78064</ele>
        <time>2012-04-09T08:21:59Z</time>
      </trkpt>
      <trkpt lat="43.59448" lon="5.8955">
        <ele>381.78064</ele>
        <time>2012-04-09T08:22:06Z</time>
      </trkpt>
      <trkpt lat="43.59426" lon="5.89515">
        <ele>382.261353</ele>
        <time>2012-04-09T08:22:12Z</time>
      </trkpt>
      <trkpt lat="43.59422" lon="5.89509">
        <ele>382.261353</ele>
        <time>2012-04-09T08:22:13Z</time>
      </trkpt>
      <trkpt lat="43.59413" lon="5.89482">
        <ele>382.742065</ele>
        <time>2012-04-09T08:22:17Z</time>
      </trkpt>
      <trkpt lat="43.59406" lon="5.89424">
        <ele>383.703247</ele>
        <time>2012-04-09T08:22:25Z</time>
      </trkpt>
      <trkpt lat="43.59405" lon="5.89417">
        <ele>384.184082</ele>
        <time>2012-04-09T08:22:26Z</time>
      </trkpt>
      <trkpt lat="43.59394" lon="5.89387">
        <ele>385.625977</ele>
        <time>2012-04-09T08:22:31Z</time>
      </trkpt>
      <trkpt lat="43.59374" lon="5.8936">
        <ele>387.548584</ele>
        <time>2012-04-09T08:22:37Z</time>
      </trkpt>
      <trkpt lat="43.59363" lon="5.89341">
        <ele>388.990601</ele>
        <time>2012-04-09T08:22:41Z</time>
      </trkpt>
      <trkpt lat="43.59353" lon="5.89299">
        <ele>391.393799</ele>
        <time>2012-04-09T08:22:49Z</time>
      </trkpt>
      <trkpt lat="43.59349" lon="5.89265">
        <ele>392.835938</ele>
        <time>2012-04-09T08:22:55Z</time>
      </trkpt>
      <trkpt lat="43.59336" lon="5.89231">
        <ele>395.239136</ele>
        <time>2012-04-09T08:23:02Z</time>
      </trkpt>
      <trkpt lat="43.59311" lon="5.89195">
        <ele>398.123169</ele>
        <time>2012-04-09T08:23:11Z</time>
      </trkpt>
      <trkpt lat="43.59291" lon="5.89165">
        <ele>399.565063</ele>
        <time>2012-04-09T08:23:19Z</time>
      </trkpt>
      <trkpt lat="43.59285" lon="5.89157">
        <ele>400.045898</ele>
        <time>2012-04-09T08:23:21Z</time>
      </trkpt>
      <trkpt lat="43.59268" lon="5.89126">
        <ele>401.968506</ele>
        <time>2012-04-09T08:23:28Z</time>
      </trkpt>
      <trkpt lat="43.5925" lon="5.89082">
        <ele>403.4104</ele>
        <time>2012-04-09T08:23:37Z</time>
      </trkpt>
      <trkpt lat="43.59233" lon="5.89036">
        <ele>405.333008</ele>
        <time>2012-04-09T08:23:46Z</time>
      </trkpt>
      <trkpt lat="43.59231" lon="5.89025">
        <ele>405.333008</ele>
        <time>2012-04-09T08:23:48Z</time>
      </trkpt>
      <trkpt lat="43.59233" lon="5.88996">
        <ele>405.333008</ele>
        <time>2012-04-09T08:23:53Z</time>
      </trkpt>
      <trkpt lat="43.59247" lon="5.88943">
        <ele>403.891113</ele>
        <time>2012-04-09T08:24:02Z</time>
      </trkpt>
      <trkpt lat="43.59266" lon="5.88883">
        <ele>403.4104</ele>
        <time>2012-04-09T08:24:12Z</time>
      </trkpt>
      <trkpt lat="43.59283" lon="5.88823">
        <ele>403.4104</ele>
        <time>2012-04-09T08:24:22Z</time>
      </trkpt>
      <trkpt lat="43.59289" lon="5.88778">
        <ele>403.891113</ele>
        <time>2012-04-09T08:24:30Z</time>
      </trkpt>
      <trkpt lat="43.59288" lon="5.88734">
        <ele>403.891113</ele>
        <time>2012-04-09T08:24:38Z</time>
      </trkpt>
      <trkpt lat="43.59284" lon="5.88678">
        <ele>404.371704</ele>
        <time>2012-04-09T08:24:48Z</time>
      </trkpt>
      <trkpt lat="43.59281" lon="5.88625">
        <ele>405.333008</ele>
        <time>2012-04-09T08:24:58Z</time>
      </trkpt>
      <trkpt lat="43.59279" lon="5.88579">
        <ele>406.294312</ele>
        <time>2012-04-09T08:25:07Z</time>
      </trkpt>
      <trkpt lat="43.59276" lon="5.88522">
        <ele>407.255615</ele>
        <time>2012-04-09T08:25:18Z</time>
      </trkpt>
      <trkpt lat="43.59274" lon="5.88469">
        <ele>408.697632</ele>
        <time>2012-04-09T08:25:28Z</time>
      </trkpt>
      <trkpt lat="43.59273" lon="5.88432">
        <ele>409.178345</ele>
        <time>2012-04-09T08:25:35Z</time>
      </trkpt>
      <trkpt lat="43.59271" lon="5.88402">
        <ele>409.659058</ele>
        <time>2012-04-09T08:25:41Z</time>
      </trkpt>
      <trkpt lat="43.5927" lon="5.88369">
        <ele>410.139648</ele>
        <time>2012-04-09T08:25:47Z</time>
      </trkpt>
      <trkpt lat="43.59269" lon="5.88327">
        <ele>410.620239</ele>
        <time>2012-04-09T08:25:55Z</time>
      </trkpt>
      <trkpt lat="43.59269" lon="5.88298">
        <ele>410.620239</ele>
        <time>2012-04-09T08:26:02Z</time>
      </trkpt>
      <trkpt lat="43.59269" lon="5.88279">
        <ele>411.100952</ele>
        <time>2012-04-09T08:26:08Z</time>
      </trkpt>
      <trkpt lat="43.59266" lon="5.88266">
        <ele>411.581665</ele>
        <time>2012-04-09T08:26:12Z</time>
      </trkpt>
      <trkpt lat="43.59259" lon="5.88261">
        <ele>412.542847</ele>
        <time>2012-04-09T08:26:16Z</time>
      </trkpt>
      <trkpt lat="43.59247" lon="5.88253">
        <ele>413.984863</ele>
        <time>2012-04-09T08:26:25Z</time>
      </trkpt>
      <trkpt lat="43.59239" lon="5.88244">
        <ele>414.465454</ele>
        <time>2012-04-09T08:26:31Z</time>
      </trkpt>
      <trkpt lat="43.59237" lon="5.88234">
        <ele>414.465454</ele>
        <time>2012-04-09T08:26:37Z</time>
      </trkpt>
      <trkpt lat="43.59235" lon="5.88236">
        <ele>413.984863</ele>
        <time>2012-04-09T08:26:41Z</time>
      </trkpt>
      <trkpt lat="43.59237" lon="5.88232">
        <ele>413.984863</ele>
        <time>2012-04-09T08:26:44Z</time>
      </trkpt>
      <trkpt lat="43.59237" lon="5.88214">
        <ele>414.465454</ele>
        <time>2012-04-09T08:26:48Z</time>
      </trkpt>
      <trkpt lat="43.59233" lon="5.88198">
        <ele>415.42688</ele>
        <time>2012-04-09T08:26:51Z</time>
      </trkpt>
      <trkpt lat="43.5922" lon="5.88187">
        <ele>416.868896</ele>
        <time>2012-04-09T08:26:55Z</time>
      </trkpt>
      <trkpt lat="43.59213" lon="5.88192">
        <ele>417.8302</ele>
        <time>2012-04-09T08:26:57Z</time>
      </trkpt>
      <trkpt lat="43.59203" lon="5.88202">
        <ele>418.310791</ele>
        <time>2012-04-09T08:27:00Z</time>
      </trkpt>
      <trkpt lat="43.59186" lon="5.8821">
        <ele>419.272217</ele>
        <time>2012-04-09T08:27:04Z</time>
      </trkpt>
      <trkpt lat="43.59168" lon="5.88208">
        <ele>420.233398</ele>
        <time>2012-04-09T08:27:08Z</time>
      </trkpt>
      <trkpt lat="43.59127" lon="5.88181">
        <ele>422.636719</ele>
        <time>2012-04-09T08:27:18Z</time>
      </trkpt>
      <trkpt lat="43.59097" lon="5.88156">
        <ele>425.520752</ele>
        <time>2012-04-09T08:27:26Z</time>
      </trkpt>
      <trkpt lat="43.59078" lon="5.88129">
        <ele>427.443359</ele>
        <time>2012-04-09T08:27:33Z</time>
      </trkpt>
      <trkpt lat="43.59064" lon="5.881">
        <ele>428.885376</ele>
        <time>2012-04-09T08:27:40Z</time>
      </trkpt>
      <trkpt lat="43.59048" lon="5.88076">
        <ele>430.327271</ele>
        <time>2012-04-09T08:27:47Z</time>
      </trkpt>
      <trkpt lat="43.59035" lon="5.88073">
        <ele>431.769165</ele>
        <time>2012-04-09T08:27:51Z</time>
      </trkpt>
      <trkpt lat="43.59019" lon="5.88084">
        <ele>433.211304</ele>
        <time>2012-04-09T08:27:56Z</time>
      </trkpt>
      <trkpt lat="43.58985" lon="5.88112">
        <ele>437.537109</ele>
        <time>2012-04-09T08:28:07Z</time>
      </trkpt>
      <trkpt lat="43.58962" lon="5.88125">
        <ele>440.421265</ele>
        <time>2012-04-09T08:28:14Z</time>
      </trkpt>
      <trkpt lat="43.5894" lon="5.88127">
        <ele>441.863159</ele>
        <time>2012-04-09T08:28:20Z</time>
      </trkpt>
      <trkpt lat="43.58913" lon="5.8813">
        <ele>441.382446</ele>
        <time>2012-04-09T08:28:27Z</time>
      </trkpt>
      <trkpt lat="43.58896" lon="5.88143">
        <ele>444.74707</ele>
        <time>2012-04-09T08:28:32Z</time>
      </trkpt>
      <trkpt lat="43.5888" lon="5.88168">
        <ele>447.630981</ele>
        <time>2012-04-09T08:28:38Z</time>
      </trkpt>
      <trkpt lat="43.58857" lon="5.88199">
        <ele>449.553711</ele>
        <time>2012-04-09T08:28:46Z</time>
      </trkpt>
      <trkpt lat="43.58833" lon="5.88226">
        <ele>450.034424</ele>
        <time>2012-04-09T08:28:54Z</time>
      </trkpt>
      <trkpt lat="43.58808" lon="5.88237">
        <ele>450.515015</ele>
        <time>2012-04-09T08:29:01Z</time>
      </trkpt>
      <trkpt lat="43.58797" lon="5.88261">
        <ele>450.515015</ele>
        <time>2012-04-09T08:29:06Z</time>
      </trkpt>
      <trkpt lat="43.58802" lon="5.88278">
        <ele>450.515015</ele>
        <time>2012-04-09T08:29:09Z</time>
      </trkpt>
      <trkpt lat="43.58815" lon="5.88285">
        <ele>450.515015</ele>
        <time>2012-04-09T08:29:12Z</time>
      </trkpt>
      <trkpt lat="43.5882" lon="5.88286">
        <ele>450.515015</ele>
        <time>2012-04-09T08:29:13Z</time>
      </trkpt>
      <trkpt lat="43.58857" lon="5.88299">
        <ele>451.957031</ele>
        <time>2012-04-09T08:29:22Z</time>
      </trkpt>
      <trkpt lat="43.5889" lon="5.88322">
        <ele>455.802246</ele>
        <time>2012-04-09T08:29:32Z</time>
      </trkpt>
      <trkpt lat="43.58917" lon="5.88345">
        <ele>458.205566</ele>
        <time>2012-04-09T08:29:41Z</time>
      </trkpt>
      <trkpt lat="43.58927" lon="5.88367">
        <ele>461.089478</ele>
        <time>2012-04-09T08:29:47Z</time>
      </trkpt>
      <trkpt lat="43.58934" lon="5.88387">
        <ele>463.012085</ele>
        <time>2012-04-09T08:29:52Z</time>
      </trkpt>
      <trkpt lat="43.58936" lon="5.88396">
        <ele>463.012085</ele>
        <time>2012-04-09T08:29:54Z</time>
      </trkpt>
      <trkpt lat="43.58931" lon="5.88406">
        <ele>464.454102</ele>
        <time>2012-04-09T08:29:58Z</time>
      </trkpt>
      <trkpt lat="43.58925" lon="5.88398">
        <ele>464.934814</ele>
        <time>2012-04-09T08:30:01Z</time>
      </trkpt>
      <trkpt lat="43.58915" lon="5.88384">
        <ele>465.415527</ele>
        <time>2012-04-09T08:30:05Z</time>
      </trkpt>
      <trkpt lat="43.5889" lon="5.88374">
        <ele>466.857422</ele>
        <time>2012-04-09T08:30:13Z</time>
      </trkpt>
      <trkpt lat="43.58873" lon="5.88364">
        <ele>467.818726</ele>
        <time>2012-04-09T08:30:19Z</time>
      </trkpt>
      <trkpt lat="43.58856" lon="5.8835">
        <ele>469.260742</ele>
        <time>2012-04-09T08:30:27Z</time>
      </trkpt>
      <trkpt lat="43.58843" lon="5.88342">
        <ele>469.741333</ele>
        <time>2012-04-09T08:30:33Z</time>
      </trkpt>
      <trkpt lat="43.58834" lon="5.88349">
        <ele>470.221924</ele>
        <time>2012-04-09T08:30:39Z</time>
      </trkpt>
      <trkpt lat="43.58826" lon="5.8837">
        <ele>470.221924</ele>
        <time>2012-04-09T08:30:44Z</time>
      </trkpt>
      <trkpt lat="43.58814" lon="5.884">
        <ele>470.702637</ele>
        <time>2012-04-09T08:30:51Z</time>
      </trkpt>
      <trkpt lat="43.58804" lon="5.88402">
        <ele>471.66394</ele>
        <time>2012-04-09T08:30:54Z</time>
      </trkpt>
      <trkpt lat="43.58794" lon="5.88392">
        <ele>472.625366</ele>
        <time>2012-04-09T08:30:58Z</time>
      </trkpt>
      <trkpt lat="43.58771" lon="5.88379">
        <ele>475.028687</ele>
        <time>2012-04-09T08:31:05Z</time>
      </trkpt>
      <trkpt lat="43.5874" lon="5.8838">
        <ele>476.470581</ele>
        <time>2012-04-09T08:31:13Z</time>
      </trkpt>
      <trkpt lat="43.58709" lon="5.88374">
        <ele>478.873901</ele>
        <time>2012-04-09T08:31:21Z</time>
      </trkpt>
      <trkpt lat="43.58695" lon="5.88362">
        <ele>479.354492</ele>
        <time>2012-04-09T08:31:25Z</time>
      </trkpt>
      <trkpt lat="43.58699" lon="5.88345">
        <ele>480.315918</ele>
        <time>2012-04-09T08:31:29Z</time>
      </trkpt>
      <trkpt lat="43.58706" lon="5.88339">
        <ele>480.315918</ele>
        <time>2012-04-09T08:31:31Z</time>
      </trkpt>
      <trkpt lat="43.58718" lon="5.88318">
        <ele>480.796631</ele>
        <time>2012-04-09T08:31:36Z</time>
      </trkpt>
      <trkpt lat="43.58713" lon="5.88299">
        <ele>481.277222</ele>
        <time>2012-04-09T08:31:40Z</time>
      </trkpt>
      <trkpt lat="43.58702" lon="5.88294">
        <ele>481.277222</ele>
        <time>2012-04-09T08:31:43Z</time>
      </trkpt>
      <trkpt lat="43.58698" lon="5.88294">
        <ele>481.757812</ele>
        <time>2012-04-09T08:31:44Z</time>
      </trkpt>
      <trkpt lat="43.5867" lon="5.88298">
        <ele>483.199829</ele>
        <time>2012-04-09T08:31:51Z</time>
      </trkpt>
      <trkpt lat="43.58633" lon="5.88305">
        <ele>485.603027</ele>
        <time>2012-04-09T08:32:00Z</time>
      </trkpt>
      <trkpt lat="43.58604" lon="5.88315">
        <ele>486.564453</ele>
        <time>2012-04-09T08:32:07Z</time>
      </trkpt>
      <trkpt lat="43.58558" lon="5.8832">
        <ele>488.967773</ele>
        <time>2012-04-09T08:32:18Z</time>
      </trkpt>
      <trkpt lat="43.58554" lon="5.8832">
        <ele>488.967773</ele>
        <time>2012-04-09T08:32:19Z</time>
      </trkpt>
      <trkpt lat="43.58517" lon="5.88338">
        <ele>491.370972</ele>
        <time>2012-04-09T08:32:28Z</time>
      </trkpt>
      <trkpt lat="43.58479" lon="5.88358">
        <ele>492.812988</ele>
        <time>2012-04-09T08:32:37Z</time>
      </trkpt>
      <trkpt lat="43.58459" lon="5.88367">
        <ele>494.255005</ele>
        <time>2012-04-09T08:32:42Z</time>
      </trkpt>
      <trkpt lat="43.58442" lon="5.88365">
        <ele>495.216187</ele>
        <time>2012-04-09T08:32:46Z</time>
      </trkpt>
      <trkpt lat="43.58401" lon="5.88339">
        <ele>498.100342</ele>
        <time>2012-04-09T08:32:56Z</time>
      </trkpt>
      <trkpt lat="43.58388" lon="5.88336">
        <ele>499.061523</ele>
        <time>2012-04-09T08:32:59Z</time>
      </trkpt>
      <trkpt lat="43.58344" lon="5.88324">
        <ele>500.022949</ele>
        <time>2012-04-09T08:33:09Z</time>
      </trkpt>
      <trkpt lat="43.58308" lon="5.88315">
        <ele>500.022949</ele>
        <time>2012-04-09T08:33:16Z</time>
      </trkpt>
      <trkpt lat="43.58254" lon="5.88298">
        <ele>500.984131</ele>
        <time>2012-04-09T08:33:26Z</time>
      </trkpt>
      <trkpt lat="43.58192" lon="5.88279">
        <ele>501.464844</ele>
        <time>2012-04-09T08:33:37Z</time>
      </trkpt>
      <trkpt lat="43.58131" lon="5.88262">
        <ele>502.906738</ele>
        <time>2012-04-09T08:33:48Z</time>
      </trkpt>
      <trkpt lat="43.58065" lon="5.88245">
        <ele>505.790894</ele>
        <time>2012-04-09T08:34:00Z</time>
      </trkpt>
      <trkpt lat="43.58015" lon="5.88231">
        <ele>508.194092</ele>
        <time>2012-04-09T08:34:09Z</time>
      </trkpt>
      <trkpt lat="43.57967" lon="5.88215">
        <ele>510.116699</ele>
        <time>2012-04-09T08:34:18Z</time>
      </trkpt>
      <trkpt lat="43.57962" lon="5.88212">
        <ele>510.116699</ele>
        <time>2012-04-09T08:34:19Z</time>
      </trkpt>
      <trkpt lat="43.57919" lon="5.88183">
        <ele>511.558716</ele>
        <time>2012-04-09T08:34:28Z</time>
      </trkpt>
      <trkpt lat="43.5787" lon="5.88148">
        <ele>514.442627</ele>
        <time>2012-04-09T08:34:39Z</time>
      </trkpt>
      <trkpt lat="43.57836" lon="5.88117">
        <ele>515.884644</ele>
        <time>2012-04-09T08:34:47Z</time>
      </trkpt>
      <trkpt lat="43.57798" lon="5.88079">
        <ele>518.287842</ele>
        <time>2012-04-09T08:34:57Z</time>
      </trkpt>
      <trkpt lat="43.57785" lon="5.88055">
        <ele>519.729858</ele>
        <time>2012-04-09T08:35:03Z</time>
      </trkpt>
      <trkpt lat="43.57784" lon="5.88034">
        <ele>519.729858</ele>
        <time>2012-04-09T08:35:09Z</time>
      </trkpt>
      <trkpt lat="43.57786" lon="5.88006">
        <ele>518.768555</ele>
        <time>2012-04-09T08:35:17Z</time>
      </trkpt>
      <trkpt lat="43.57788" lon="5.87976">
        <ele>517.32666</ele>
        <time>2012-04-09T08:35:24Z</time>
      </trkpt>
      <trkpt lat="43.5779" lon="5.87934">
        <ele>516.845947</ele>
        <time>2012-04-09T08:35:32Z</time>
      </trkpt>
      <trkpt lat="43.57795" lon="5.87877">
        <ele>517.807251</ele>
        <time>2012-04-09T08:35:42Z</time>
      </trkpt>
      <trkpt lat="43.57799" lon="5.87823">
        <ele>518.768555</ele>
        <time>2012-04-09T08:35:52Z</time>
      </trkpt>
      <trkpt lat="43.57801" lon="5.87784">
        <ele>519.729858</ele>
        <time>2012-04-09T08:35:59Z</time>
      </trkpt>
      <trkpt lat="43.57804" lon="5.87746">
        <ele>520.691284</ele>
        <time>2012-04-09T08:36:07Z</time>
      </trkpt>
      <trkpt lat="43.57803" lon="5.8773">
        <ele>521.171997</ele>
        <time>2012-04-09T08:36:13Z</time>
      </trkpt>
      <trkpt lat="43.57803" lon="5.87729">
        <ele>521.652588</ele>
        <time>2012-04-09T08:36:16Z</time>
      </trkpt>
      <trkpt lat="43.57803" lon="5.87728">
        <ele>522.613892</ele>
        <time>2012-04-09T08:36:49Z</time>
      </trkpt>
      <trkpt lat="43.57797" lon="5.87716">
        <ele>522.613892</ele>
        <time>2012-04-09T08:36:53Z</time>
      </trkpt>
      <trkpt lat="43.57786" lon="5.87696">
        <ele>523.094604</ele>
        <time>2012-04-09T08:36:57Z</time>
      </trkpt>
      <trkpt lat="43.57752" lon="5.8765">
        <ele>524.055786</ele>
        <time>2012-04-09T08:37:06Z</time>
      </trkpt>
      <trkpt lat="43.57727" lon="5.87617">
        <ele>524.055786</ele>
        <time>2012-04-09T08:37:13Z</time>
      </trkpt>
      <trkpt lat="43.57712" lon="5.87593">
        <ele>524.536499</ele>
        <time>2012-04-09T08:37:19Z</time>
      </trkpt>
      <trkpt lat="43.57703" lon="5.87572">
        <ele>524.055786</ele>
        <time>2012-04-09T08:37:26Z</time>
      </trkpt>
      <trkpt lat="43.57703" lon="5.87572">
        <ele>524.536499</ele>
        <time>2012-04-09T08:37:28Z</time>
      </trkpt>
      <trkpt lat="43.57703" lon="5.87571">
        <ele>525.017212</ele>
        <time>2012-04-09T08:40:06Z</time>
      </trkpt>
      <trkpt lat="43.57701" lon="5.87556">
        <ele>524.055786</ele>
        <time>2012-04-09T08:40:10Z</time>
      </trkpt>
      <trkpt lat="43.5769" lon="5.87519">
        <ele>522.613892</ele>
        <time>2012-04-09T08:40:16Z</time>
      </trkpt>
      <trkpt lat="43.57689" lon="5.87512">
        <ele>522.133179</ele>
        <time>2012-04-09T08:40:17Z</time>
      </trkpt>
      <trkpt lat="43.57674" lon="5.87452">
        <ele>520.210571</ele>
        <time>2012-04-09T08:40:24Z</time>
      </trkpt>
      <trkpt lat="43.57653" lon="5.87375">
        <ele>517.807251</ele>
        <time>2012-04-09T08:40:32Z</time>
      </trkpt>
      <trkpt lat="43.57634" lon="5.87303">
        <ele>515.884644</ele>
        <time>2012-04-09T08:40:39Z</time>
      </trkpt>
      <trkpt lat="43.57609" lon="5.87208">
        <ele>514.442627</ele>
        <time>2012-04-09T08:40:48Z</time>
      </trkpt>
      <trkpt lat="43.57606" lon="5.87199">
        <ele>514.442627</ele>
        <time>2012-04-09T08:40:49Z</time>
      </trkpt>
      <trkpt lat="43.57587" lon="5.87123">
        <ele>515.404053</ele>
        <time>2012-04-09T08:40:57Z</time>
      </trkpt>
      <trkpt lat="43.57571" lon="5.87064">
        <ele>517.32666</ele>
        <time>2012-04-09T08:41:04Z</time>
      </trkpt>
      <trkpt lat="43.57547" lon="5.86973">
        <ele>519.729858</ele>
        <time>2012-04-09T08:41:15Z</time>
      </trkpt>
      <trkpt lat="43.57529" lon="5.86905">
        <ele>521.171997</ele>
        <time>2012-04-09T08:41:24Z</time>
      </trkpt>
      <trkpt lat="43.57514" lon="5.86851">
        <ele>523.094604</ele>
        <time>2012-04-09T08:41:32Z</time>
      </trkpt>
      <trkpt lat="43.57501" lon="5.86802">
        <ele>525.497803</ele>
        <time>2012-04-09T08:41:40Z</time>
      </trkpt>
      <trkpt lat="43.57485" lon="5.86745">
        <ele>526.459106</ele>
        <time>2012-04-09T08:41:49Z</time>
      </trkpt>
      <trkpt lat="43.5747" lon="5.86694">
        <ele>525.978394</ele>
        <time>2012-04-09T08:41:56Z</time>
      </trkpt>
      <trkpt lat="43.57449" lon="5.86613">
        <ele>526.459106</ele>
        <time>2012-04-09T08:42:06Z</time>
      </trkpt>
      <trkpt lat="43.57428" lon="5.86534">
        <ele>524.536499</ele>
        <time>2012-04-09T08:42:15Z</time>
      </trkpt>
      <trkpt lat="43.57406" lon="5.86449">
        <ele>525.017212</ele>
        <time>2012-04-09T08:42:24Z</time>
      </trkpt>
      <trkpt lat="43.57391" lon="5.86393">
        <ele>527.42041</ele>
        <time>2012-04-09T08:42:31Z</time>
      </trkpt>
      <trkpt lat="43.57373" lon="5.86343">
        <ele>529.82373</ele>
        <time>2012-04-09T08:42:39Z</time>
      </trkpt>
      <trkpt lat="43.57344" lon="5.86286">
        <ele>529.82373</ele>
        <time>2012-04-09T08:42:48Z</time>
      </trkpt>
      <trkpt lat="43.57313" lon="5.86223">
        <ele>528.381836</ele>
        <time>2012-04-09T08:42:57Z</time>
      </trkpt>
      <trkpt lat="43.57275" lon="5.86142">
        <ele>526.459106</ele>
        <time>2012-04-09T08:43:07Z</time>
      </trkpt>
      <trkpt lat="43.57242" lon="5.86073">
        <ele>523.094604</ele>
        <time>2012-04-09T08:43:14Z</time>
      </trkpt>
      <trkpt lat="43.57196" lon="5.85974">
        <ele>519.249268</ele>
        <time>2012-04-09T08:43:23Z</time>
      </trkpt>
      <trkpt lat="43.57162" lon="5.85892">
        <ele>516.365234</ele>
        <time>2012-04-09T08:43:30Z</time>
      </trkpt>
      <trkpt lat="43.57117" lon="5.85775">
        <ele>511.558716</ele>
        <time>2012-04-09T08:43:40Z</time>
      </trkpt>
      <trkpt lat="43.57078" lon="5.8566">
        <ele>506.271484</ele>
        <time>2012-04-09T08:43:49Z</time>
      </trkpt>
      <trkpt lat="43.5704" lon="5.85548">
        <ele>500.984131</ele>
        <time>2012-04-09T08:43:57Z</time>
      </trkpt>
      <trkpt lat="43.56996" lon="5.8542">
        <ele>494.735596</ele>
        <time>2012-04-09T08:44:06Z</time>
      </trkpt>
      <trkpt lat="43.5697" lon="5.85333">
        <ele>489.929077</ele>
        <time>2012-04-09T08:44:12Z</time>
      </trkpt>
      <trkpt lat="43.56955" lon="5.85234">
        <ele>485.122437</ele>
        <time>2012-04-09T08:44:18Z</time>
      </trkpt>
      <trkpt lat="43.5694" lon="5.85117">
        <ele>481.277222</ele>
        <time>2012-04-09T08:44:25Z</time>
      </trkpt>
      <trkpt lat="43.5693" lon="5.85046">
        <ele>482.238525</ele>
        <time>2012-04-09T08:44:30Z</time>
      </trkpt>
      <trkpt lat="43.56926" lon="5.85023">
        <ele>482.719238</ele>
        <time>2012-04-09T08:44:32Z</time>
      </trkpt>
      <trkpt lat="43.56902" lon="5.84974">
        <ele>482.238525</ele>
        <time>2012-04-09T08:44:37Z</time>
      </trkpt>
      <trkpt lat="43.56897" lon="5.84964">
        <ele>481.757812</ele>
        <time>2012-04-09T08:44:38Z</time>
      </trkpt>
      <trkpt lat="43.56884" lon="5.84918">
        <ele>481.757812</ele>
        <time>2012-04-09T08:44:42Z</time>
      </trkpt>
      <trkpt lat="43.56862" lon="5.84887">
        <ele>479.835083</ele>
        <time>2012-04-09T08:44:46Z</time>
      </trkpt>
      <trkpt lat="43.56847" lon="5.84892">
        <ele>479.835083</ele>
        <time>2012-04-09T08:44:48Z</time>
      </trkpt>
      <trkpt lat="43.56834" lon="5.84905">
        <ele>479.835083</ele>
        <time>2012-04-09T08:44:50Z</time>
      </trkpt>
      <trkpt lat="43.56795" lon="5.84931">
        <ele>480.315918</ele>
        <time>2012-04-09T08:44:56Z</time>
      </trkpt>
      <trkpt lat="43.56769" lon="5.84928">
        <ele>481.757812</ele>
        <time>2012-04-09T08:45:00Z</time>
      </trkpt>
      <trkpt lat="43.56758" lon="5.8492">
        <ele>482.238525</ele>
        <time>2012-04-09T08:45:02Z</time>
      </trkpt>
      <trkpt lat="43.56744" lon="5.84906">
        <ele>482.719238</ele>
        <time>2012-04-09T08:45:05Z</time>
      </trkpt>
      <trkpt lat="43.56716" lon="5.84898">
        <ele>483.68042</ele>
        <time>2012-04-09T08:45:10Z</time>
      </trkpt>
      <trkpt lat="43.56704" lon="5.84914">
        <ele>484.641846</ele>
        <time>2012-04-09T08:45:13Z</time>
      </trkpt>
      <trkpt lat="43.56701" lon="5.84929">
        <ele>485.603027</ele>
        <time>2012-04-09T08:45:15Z</time>
      </trkpt>
      <trkpt lat="43.56695" lon="5.84978">
        <ele>488.00647</ele>
        <time>2012-04-09T08:45:22Z</time>
      </trkpt>
      <trkpt lat="43.56691" lon="5.8499">
        <ele>488.967773</ele>
        <time>2012-04-09T08:45:24Z</time>
      </trkpt>
      <trkpt lat="43.56665" lon="5.85037">
        <ele>490.40979</ele>
        <time>2012-04-09T08:45:33Z</time>
      </trkpt>
      <trkpt lat="43.56646" lon="5.85071">
        <ele>491.370972</ele>
        <time>2012-04-09T08:45:40Z</time>
      </trkpt>
      <trkpt lat="43.56637" lon="5.85099">
        <ele>491.851685</ele>
        <time>2012-04-09T08:45:45Z</time>
      </trkpt>
      <trkpt lat="43.56621" lon="5.85126">
        <ele>492.812988</ele>
        <time>2012-04-09T08:45:51Z</time>
      </trkpt>
      <trkpt lat="43.56614" lon="5.85132">
        <ele>493.293579</ele>
        <time>2012-04-09T08:45:53Z</time>
      </trkpt>
      <trkpt lat="43.56597" lon="5.85138">
        <ele>494.255005</ele>
        <time>2012-04-09T08:45:57Z</time>
      </trkpt>
      <trkpt lat="43.56573" lon="5.85131">
        <ele>496.177734</ele>
        <time>2012-04-09T08:46:03Z</time>
      </trkpt>
      <trkpt lat="43.56566" lon="5.85124">
        <ele>496.658325</ele>
        <time>2012-04-09T08:46:05Z</time>
      </trkpt>
      <trkpt lat="43.56532" lon="5.85085">
        <ele>498.100342</ele>
        <time>2012-04-09T08:46:15Z</time>
      </trkpt>
      <trkpt lat="43.56491" lon="5.85036">
        <ele>499.061523</ele>
        <time>2012-04-09T08:46:26Z</time>
      </trkpt>
      <trkpt lat="43.56452" lon="5.84991">
        <ele>498.100342</ele>
        <time>2012-04-09T08:46:35Z</time>
      </trkpt>
      <trkpt lat="43.5642" lon="5.84953">
        <ele>495.696899</ele>
        <time>2012-04-09T08:46:41Z</time>
      </trkpt>
      <trkpt lat="43.56386" lon="5.84923">
        <ele>494.255005</ele>
        <time>2012-04-09T08:46:46Z</time>
      </trkpt>
      <trkpt lat="43.56336" lon="5.84892">
        <ele>492.812988</ele>
        <time>2012-04-09T08:46:53Z</time>
      </trkpt>
      <trkpt lat="43.56293" lon="5.84856">
        <ele>491.851685</ele>
        <time>2012-04-09T08:46:59Z</time>
      </trkpt>
      <trkpt lat="43.56286" lon="5.8485">
        <ele>491.851685</ele>
        <time>2012-04-09T08:47:00Z</time>
      </trkpt>
      <trkpt lat="43.56266" lon="5.84816">
        <ele>491.370972</ele>
        <time>2012-04-09T08:47:04Z</time>
      </trkpt>
      <trkpt lat="43.56264" lon="5.84805">
        <ele>491.370972</ele>
        <time>2012-04-09T08:47:05Z</time>
      </trkpt>
      <trkpt lat="43.56252" lon="5.84682">
        <ele>489.448364</ele>
        <time>2012-04-09T08:47:16Z</time>
      </trkpt>
      <trkpt lat="43.5625" lon="5.84662">
        <ele>488.967773</ele>
        <time>2012-04-09T08:47:18Z</time>
      </trkpt>
      <trkpt lat="43.56234" lon="5.84624">
        <ele>487.045044</ele>
        <time>2012-04-09T08:47:22Z</time>
      </trkpt>
      <trkpt lat="43.56193" lon="5.84571">
        <ele>483.199829</ele>
        <time>2012-04-09T08:47:28Z</time>
      </trkpt>
      <trkpt lat="43.5616" lon="5.8455">
        <ele>482.719238</ele>
        <time>2012-04-09T08:47:32Z</time>
      </trkpt>
      <trkpt lat="43.56143" lon="5.84552">
        <ele>483.199829</ele>
        <time>2012-04-09T08:47:34Z</time>
      </trkpt>
      <trkpt lat="43.56093" lon="5.84576">
        <ele>485.603027</ele>
        <time>2012-04-09T08:47:41Z</time>
      </trkpt>
      <trkpt lat="43.56054" lon="5.84603">
        <ele>487.045044</ele>
        <time>2012-04-09T08:47:48Z</time>
      </trkpt>
      <trkpt lat="43.56049" lon="5.84607">
        <ele>487.045044</ele>
        <time>2012-04-09T08:47:49Z</time>
      </trkpt>
      <trkpt lat="43.56034" lon="5.84629">
        <ele>487.525635</ele>
        <time>2012-04-09T08:47:53Z</time>
      </trkpt>
      <trkpt lat="43.56007" lon="5.84681">
        <ele>489.448364</ele>
        <time>2012-04-09T08:48:02Z</time>
      </trkpt>
      <trkpt lat="43.55988" lon="5.84725">
        <ele>491.370972</ele>
        <time>2012-04-09T08:48:10Z</time>
      </trkpt>
      <trkpt lat="43.5597" lon="5.84769">
        <ele>493.774292</ele>
        <time>2012-04-09T08:48:18Z</time>
      </trkpt>
      <trkpt lat="43.55944" lon="5.84804">
        <ele>495.216187</ele>
        <time>2012-04-09T08:48:26Z</time>
      </trkpt>
      <trkpt lat="43.55911" lon="5.84836">
        <ele>496.658325</ele>
        <time>2012-04-09T08:48:35Z</time>
      </trkpt>
      <trkpt lat="43.55907" lon="5.84839">
        <ele>496.658325</ele>
        <time>2012-04-09T08:48:36Z</time>
      </trkpt>
      <trkpt lat="43.55884" lon="5.84837">
        <ele>498.100342</ele>
        <time>2012-04-09T08:48:41Z</time>
      </trkpt>
      <trkpt lat="43.55877" lon="5.8483">
        <ele>498.580933</ele>
        <time>2012-04-09T08:48:43Z</time>
      </trkpt>
      <trkpt lat="43.55866" lon="5.84814">
        <ele>499.542236</ele>
        <time>2012-04-09T08:48:47Z</time>
      </trkpt>
      <trkpt lat="43.55846" lon="5.84803">
        <ele>500.022949</ele>
        <time>2012-04-09T08:48:52Z</time>
      </trkpt>
      <trkpt lat="43.55833" lon="5.84806">
        <ele>500.984131</ele>
        <time>2012-04-09T08:48:55Z</time>
      </trkpt>
      <trkpt lat="43.55806" lon="5.84812">
        <ele>502.426147</ele>
        <time>2012-04-09T08:49:02Z</time>
      </trkpt>
      <trkpt lat="43.55771" lon="5.84803">
        <ele>505.310181</ele>
        <time>2012-04-09T08:49:11Z</time>
      </trkpt>
      <trkpt lat="43.55726" lon="5.8479">
        <ele>507.713501</ele>
        <time>2012-04-09T08:49:22Z</time>
      </trkpt>
      <trkpt lat="43.5569" lon="5.84784">
        <ele>510.59729</ele>
        <time>2012-04-09T08:49:31Z</time>
      </trkpt>
      <trkpt lat="43.55646" lon="5.84775">
        <ele>513.000732</ele>
        <time>2012-04-09T08:49:42Z</time>
      </trkpt>
      <trkpt lat="43.55608" lon="5.84773">
        <ele>514.92334</ele>
        <time>2012-04-09T08:49:51Z</time>
      </trkpt>
      <trkpt lat="43.55557" lon="5.84772">
        <ele>515.884644</ele>
        <time>2012-04-09T08:50:02Z</time>
      </trkpt>
      <trkpt lat="43.55508" lon="5.84774">
        <ele>515.884644</ele>
        <time>2012-04-09T08:50:12Z</time>
      </trkpt>
      <trkpt lat="43.55462" lon="5.84775">
        <ele>515.404053</ele>
        <time>2012-04-09T08:50:20Z</time>
      </trkpt>
      <trkpt lat="43.55411" lon="5.84778">
        <ele>513.481445</ele>
        <time>2012-04-09T08:50:28Z</time>
      </trkpt>
      <trkpt lat="43.5538" lon="5.84798">
        <ele>513.481445</ele>
        <time>2012-04-09T08:50:33Z</time>
      </trkpt>
      <trkpt lat="43.55375" lon="5.84805">
        <ele>513.962036</ele>
        <time>2012-04-09T08:50:34Z</time>
      </trkpt>
      <trkpt lat="43.55331" lon="5.84867">
        <ele>514.92334</ele>
        <time>2012-04-09T08:50:44Z</time>
      </trkpt>
      <trkpt lat="43.55285" lon="5.8492">
        <ele>515.884644</ele>
        <time>2012-04-09T08:50:54Z</time>
      </trkpt>
      <trkpt lat="43.55254" lon="5.84932">
        <ele>516.845947</ele>
        <time>2012-04-09T08:51:00Z</time>
      </trkpt>
      <trkpt lat="43.55192" lon="5.84934">
        <ele>516.845947</ele>
        <time>2012-04-09T08:51:11Z</time>
      </trkpt>
      <trkpt lat="43.55131" lon="5.84936">
        <ele>516.365234</ele>
        <time>2012-04-09T08:51:20Z</time>
      </trkpt>
      <trkpt lat="43.55056" lon="5.84939">
        <ele>514.92334</ele>
        <time>2012-04-09T08:51:30Z</time>
      </trkpt>
      <trkpt lat="43.54976" lon="5.84941">
        <ele>513.000732</ele>
        <time>2012-04-09T08:51:40Z</time>
      </trkpt>
      <trkpt lat="43.54895" lon="5.84944">
        <ele>511.558716</ele>
        <time>2012-04-09T08:51:50Z</time>
      </trkpt>
      <trkpt lat="43.54813" lon="5.84948">
        <ele>510.116699</ele>
        <time>2012-04-09T08:52:00Z</time>
      </trkpt>
      <trkpt lat="43.54747" lon="5.84951">
        <ele>510.59729</ele>
        <time>2012-04-09T08:52:08Z</time>
      </trkpt>
      <trkpt lat="43.5467" lon="5.84953">
        <ele>510.59729</ele>
        <time>2012-04-09T08:52:18Z</time>
      </trkpt>
      <trkpt lat="43.54594" lon="5.84956">
        <ele>509.636108</ele>
        <time>2012-04-09T08:52:27Z</time>
      </trkpt>
      <trkpt lat="43.54532" lon="5.84958">
        <ele>510.59729</ele>
        <time>2012-04-09T08:52:35Z</time>
      </trkpt>
      <trkpt lat="43.54467" lon="5.84961">
        <ele>511.078003</ele>
        <time>2012-04-09T08:52:44Z</time>
      </trkpt>
      <trkpt lat="43.54391" lon="5.84964">
        <ele>512.52002</ele>
        <time>2012-04-09T08:52:55Z</time>
      </trkpt>
      <trkpt lat="43.54315" lon="5.84969">
        <ele>512.52002</ele>
        <time>2012-04-09T08:53:06Z</time>
      </trkpt>
      <trkpt lat="43.54238" lon="5.84975">
        <ele>511.078003</ele>
        <time>2012-04-09T08:53:16Z</time>
      </trkpt>
      <trkpt lat="43.54174" lon="5.84979">
        <ele>510.116699</ele>
        <time>2012-04-09T08:53:24Z</time>
      </trkpt>
      <trkpt lat="43.54107" lon="5.84984">
        <ele>510.59729</ele>
        <time>2012-04-09T08:53:33Z</time>
      </trkpt>
      <trkpt lat="43.54039" lon="5.8499">
        <ele>510.116699</ele>
        <time>2012-04-09T08:53:42Z</time>
      </trkpt>
      <trkpt lat="43.53976" lon="5.84994">
        <ele>510.116699</ele>
        <time>2012-04-09T08:53:50Z</time>
      </trkpt>
      <trkpt lat="43.53916" lon="5.84999">
        <ele>510.59729</ele>
        <time>2012-04-09T08:53:58Z</time>
      </trkpt>
      <trkpt lat="43.53884" lon="5.85014">
        <ele>512.039429</ele>
        <time>2012-04-09T08:54:03Z</time>
      </trkpt>
      <trkpt lat="43.53823" lon="5.8505">
        <ele>510.59729</ele>
        <time>2012-04-09T08:54:13Z</time>
      </trkpt>
      <trkpt lat="43.5378" lon="5.85068">
        <ele>510.116699</ele>
        <time>2012-04-09T08:54:19Z</time>
      </trkpt>
      <trkpt lat="43.5372" lon="5.85078">
        <ele>510.59729</ele>
        <time>2012-04-09T08:54:27Z</time>
      </trkpt>
      <trkpt lat="43.53645" lon="5.85088">
        <ele>510.59729</ele>
        <time>2012-04-09T08:54:37Z</time>
      </trkpt>
      <trkpt lat="43.53591" lon="5.85096">
        <ele>511.558716</ele>
        <time>2012-04-09T08:54:45Z</time>
      </trkpt>
      <trkpt lat="43.53524" lon="5.85104">
        <ele>511.078003</ele>
        <time>2012-04-09T08:54:55Z</time>
      </trkpt>
      <trkpt lat="43.53459" lon="5.85113">
        <ele>509.636108</ele>
        <time>2012-04-09T08:55:04Z</time>
      </trkpt>
      <trkpt lat="43.53403" lon="5.85123">
        <ele>508.674683</ele>
        <time>2012-04-09T08:55:11Z</time>
      </trkpt>
      <trkpt lat="43.53371" lon="5.8515">
        <ele>508.194092</ele>
        <time>2012-04-09T08:55:16Z</time>
      </trkpt>
      <trkpt lat="43.53315" lon="5.8523">
        <ele>505.790894</ele>
        <time>2012-04-09T08:55:26Z</time>
      </trkpt>
      <trkpt lat="43.53259" lon="5.85315">
        <ele>503.387451</ele>
        <time>2012-04-09T08:55:36Z</time>
      </trkpt>
      <trkpt lat="43.53201" lon="5.85401">
        <ele>501.945557</ele>
        <time>2012-04-09T08:55:46Z</time>
      </trkpt>
      <trkpt lat="43.53146" lon="5.85483">
        <ele>498.100342</ele>
        <time>2012-04-09T08:55:55Z</time>
      </trkpt>
      <trkpt lat="43.53089" lon="5.85569">
        <ele>493.774292</ele>
        <time>2012-04-09T08:56:04Z</time>
      </trkpt>
      <trkpt lat="43.53031" lon="5.85656">
        <ele>489.448364</ele>
        <time>2012-04-09T08:56:13Z</time>
      </trkpt>
      <trkpt lat="43.5298" lon="5.85732">
        <ele>489.448364</ele>
        <time>2012-04-09T08:56:21Z</time>
      </trkpt>
      <trkpt lat="43.52941" lon="5.85791">
        <ele>488.967773</ele>
        <time>2012-04-09T08:56:28Z</time>
      </trkpt>
      <trkpt lat="43.52881" lon="5.8588">
        <ele>486.564453</ele>
        <time>2012-04-09T08:56:39Z</time>
      </trkpt>
      <trkpt lat="43.52831" lon="5.85955">
        <ele>484.641846</ele>
        <time>2012-04-09T08:56:48Z</time>
      </trkpt>
      <trkpt lat="43.5278" lon="5.8603">
        <ele>482.719238</ele>
        <time>2012-04-09T08:56:57Z</time>
      </trkpt>
      <trkpt lat="43.52757" lon="5.86078">
        <ele>482.238525</ele>
        <time>2012-04-09T08:57:02Z</time>
      </trkpt>
      <trkpt lat="43.52723" lon="5.86172">
        <ele>483.68042</ele>
        <time>2012-04-09T08:57:11Z</time>
      </trkpt>
      <trkpt lat="43.52693" lon="5.86257">
        <ele>483.68042</ele>
        <time>2012-04-09T08:57:19Z</time>
      </trkpt>
      <trkpt lat="43.52658" lon="5.86345">
        <ele>483.68042</ele>
        <time>2012-04-09T08:57:28Z</time>
      </trkpt>
      <trkpt lat="43.52628" lon="5.86402">
        <ele>485.603027</ele>
        <time>2012-04-09T08:57:35Z</time>
      </trkpt>
      <trkpt lat="43.52593" lon="5.86465">
        <ele>486.08374</ele>
        <time>2012-04-09T08:57:44Z</time>
      </trkpt>
      <trkpt lat="43.52557" lon="5.86521">
        <ele>486.08374</ele>
        <time>2012-04-09T08:57:53Z</time>
      </trkpt>
      <trkpt lat="43.52543" lon="5.86539">
        <ele>486.08374</ele>
        <time>2012-04-09T08:57:56Z</time>
      </trkpt>
      <trkpt lat="43.52512" lon="5.86554">
        <ele>486.564453</ele>
        <time>2012-04-09T08:58:01Z</time>
      </trkpt>
      <trkpt lat="43.52505" lon="5.86554">
        <ele>487.045044</ele>
        <time>2012-04-09T08:58:02Z</time>
      </trkpt>
      <trkpt lat="43.52444" lon="5.86552">
        <ele>489.448364</ele>
        <time>2012-04-09T08:58:12Z</time>
      </trkpt>
      <trkpt lat="43.52413" lon="5.86551">
        <ele>490.40979</ele>
        <time>2012-04-09T08:58:17Z</time>
      </trkpt>
      <trkpt lat="43.5239" lon="5.86561">
        <ele>490.890381</ele>
        <time>2012-04-09T08:58:21Z</time>
      </trkpt>
      <trkpt lat="43.52381" lon="5.86584">
        <ele>490.40979</ele>
        <time>2012-04-09T08:58:24Z</time>
      </trkpt>
      <trkpt lat="43.5238" lon="5.86594">
        <ele>490.40979</ele>
        <time>2012-04-09T08:58:25Z</time>
      </trkpt>
      <trkpt lat="43.52376" lon="5.86673">
        <ele>492.332397</ele>
        <time>2012-04-09T08:58:34Z</time>
      </trkpt>
      <trkpt lat="43.52372" lon="5.86719">
        <ele>494.735596</ele>
        <time>2012-04-09T08:58:40Z</time>
      </trkpt>
      <trkpt lat="43.52365" lon="5.86782">
        <ele>494.735596</ele>
        <time>2012-04-09T08:58:49Z</time>
      </trkpt>
      <trkpt lat="43.52353" lon="5.86835">
        <ele>494.735596</ele>
        <time>2012-04-09T08:58:57Z</time>
      </trkpt>
      <trkpt lat="43.52332" lon="5.86877">
        <ele>496.658325</ele>
        <time>2012-04-09T08:59:04Z</time>
      </trkpt>
      <trkpt lat="43.523" lon="5.86936">
        <ele>497.619629</ele>
        <time>2012-04-09T08:59:14Z</time>
      </trkpt>
      <trkpt lat="43.52275" lon="5.86987">
        <ele>496.658325</ele>
        <time>2012-04-09T08:59:22Z</time>
      </trkpt>
      <trkpt lat="43.52249" lon="5.87038">
        <ele>493.774292</ele>
        <time>2012-04-09T08:59:29Z</time>
      </trkpt>
      <trkpt lat="43.52218" lon="5.87099">
        <ele>490.890381</ele>
        <time>2012-04-09T08:59:36Z</time>
      </trkpt>
      <trkpt lat="43.52184" lon="5.87166">
        <ele>486.564453</ele>
        <time>2012-04-09T08:59:43Z</time>
      </trkpt>
      <trkpt lat="43.52151" lon="5.87227">
        <ele>482.719238</ele>
        <time>2012-04-09T08:59:49Z</time>
      </trkpt>
      <trkpt lat="43.52119" lon="5.87255">
        <ele>478.873901</ele>
        <time>2012-04-09T08:59:53Z</time>
      </trkpt>
      <trkpt lat="43.52089" lon="5.87264">
        <ele>476.470581</ele>
        <time>2012-04-09T08:59:56Z</time>
      </trkpt>
      <trkpt lat="43.5207" lon="5.8728">
        <ele>474.547974</ele>
        <time>2012-04-09T08:59:58Z</time>
      </trkpt>
      <trkpt lat="43.51999" lon="5.87361">
        <ele>467.338135</ele>
        <time>2012-04-09T09:00:06Z</time>
      </trkpt>
      <trkpt lat="43.51967" lon="5.87409">
        <ele>463.973389</ele>
        <time>2012-04-09T09:00:10Z</time>
      </trkpt>
      <trkpt lat="43.51959" lon="5.87422">
        <ele>462.531372</ele>
        <time>2012-04-09T09:00:11Z</time>
      </trkpt>
      <trkpt lat="43.5192" lon="5.87464">
        <ele>458.686157</ele>
        <time>2012-04-09T09:00:15Z</time>
      </trkpt>
      <trkpt lat="43.51873" lon="5.87509">
        <ele>454.360229</ele>
        <time>2012-04-09T09:00:20Z</time>
      </trkpt>
      <trkpt lat="43.51867" lon="5.87517">
        <ele>453.879639</ele>
        <time>2012-04-09T09:00:21Z</time>
      </trkpt>
      <trkpt lat="43.51858" lon="5.87554">
        <ele>451.957031</ele>
        <time>2012-04-09T09:00:25Z</time>
      </trkpt>
      <trkpt lat="43.51872" lon="5.87563">
        <ele>451.957031</ele>
        <time>2012-04-09T09:00:27Z</time>
      </trkpt>
      <trkpt lat="43.51887" lon="5.87559">
        <ele>450.995605</ele>
        <time>2012-04-09T09:00:29Z</time>
      </trkpt>
      <trkpt lat="43.51899" lon="5.87547">
        <ele>450.515015</ele>
        <time>2012-04-09T09:00:31Z</time>
      </trkpt>
      <trkpt lat="43.51909" lon="5.87533">
        <ele>450.034424</ele>
        <time>2012-04-09T09:00:33Z</time>
      </trkpt>
      <trkpt lat="43.51932" lon="5.87525">
        <ele>448.111816</ele>
        <time>2012-04-09T09:00:36Z</time>
      </trkpt>
      <trkpt lat="43.51949" lon="5.87533">
        <ele>447.150269</ele>
        <time>2012-04-09T09:00:38Z</time>
      </trkpt>
      <trkpt lat="43.51992" lon="5.87559">
        <ele>444.266479</ele>
        <time>2012-04-09T09:00:43Z</time>
      </trkpt>
      <trkpt lat="43.52001" lon="5.87577">
        <ele>442.343872</ele>
        <time>2012-04-09T09:00:46Z</time>
      </trkpt>
      <trkpt lat="43.51992" lon="5.87586">
        <ele>441.382446</ele>
        <time>2012-04-09T09:00:48Z</time>
      </trkpt>
      <trkpt lat="43.51986" lon="5.87587">
        <ele>440.901855</ele>
        <time>2012-04-09T09:00:49Z</time>
      </trkpt>
      <trkpt lat="43.51949" lon="5.87589">
        <ele>438.017822</ele>
        <time>2012-04-09T09:00:54Z</time>
      </trkpt>
      <trkpt lat="43.51921" lon="5.87604">
        <ele>435.614502</ele>
        <time>2012-04-09T09:00:58Z</time>
      </trkpt>
      <trkpt lat="43.5192" lon="5.87619">
        <ele>434.65332</ele>
        <time>2012-04-09T09:01:00Z</time>
      </trkpt>
      <trkpt lat="43.51931" lon="5.87625">
        <ele>434.172607</ele>
        <time>2012-04-09T09:01:02Z</time>
      </trkpt>
      <trkpt lat="43.51948" lon="5.87638">
        <ele>432.25</ele>
        <time>2012-04-09T09:01:06Z</time>
      </trkpt>
      <trkpt lat="43.51941" lon="5.8765">
        <ele>430.807983</ele>
        <time>2012-04-09T09:01:08Z</time>
      </trkpt>
      <trkpt lat="43.51935" lon="5.87655">
        <ele>430.327271</ele>
        <time>2012-04-09T09:01:09Z</time>
      </trkpt>
      <trkpt lat="43.51893" lon="5.87687">
        <ele>426.482056</ele>
        <time>2012-04-09T09:01:15Z</time>
      </trkpt>
      <trkpt lat="43.51843" lon="5.87731">
        <ele>421.675415</ele>
        <time>2012-04-09T09:01:21Z</time>
      </trkpt>
      <trkpt lat="43.51814" lon="5.87776">
        <ele>417.8302</ele>
        <time>2012-04-09T09:01:25Z</time>
      </trkpt>
      <trkpt lat="43.51789" lon="5.8781">
        <ele>414.946167</ele>
        <time>2012-04-09T09:01:28Z</time>
      </trkpt>
      <trkpt lat="43.51758" lon="5.87829">
        <ele>413.02356</ele>
        <time>2012-04-09T09:01:31Z</time>
      </trkpt>
      <trkpt lat="43.51725" lon="5.87847">
        <ele>410.620239</ele>
        <time>2012-04-09T09:01:34Z</time>
      </trkpt>
      <trkpt lat="43.51717" lon="5.87858">
        <ele>409.659058</ele>
        <time>2012-04-09T09:01:35Z</time>
      </trkpt>
      <trkpt lat="43.51684" lon="5.87905">
        <ele>405.813721</ele>
        <time>2012-04-09T09:01:39Z</time>
      </trkpt>
      <trkpt lat="43.5165" lon="5.87928">
        <ele>403.4104</ele>
        <time>2012-04-09T09:01:42Z</time>
      </trkpt>
      <trkpt lat="43.51615" lon="5.87938">
        <ele>401.487793</ele>
        <time>2012-04-09T09:01:45Z</time>
      </trkpt>
      <trkpt lat="43.51578" lon="5.87979">
        <ele>398.123169</ele>
        <time>2012-04-09T09:01:49Z</time>
      </trkpt>
      <trkpt lat="43.51575" lon="5.87995">
        <ele>397.642456</ele>
        <time>2012-04-09T09:01:50Z</time>
      </trkpt>
      <trkpt lat="43.51551" lon="5.88034">
        <ele>394.758545</ele>
        <time>2012-04-09T09:01:54Z</time>
      </trkpt>
      <trkpt lat="43.5154" lon="5.88035">
        <ele>394.277954</ele>
        <time>2012-04-09T09:01:55Z</time>
      </trkpt>
      <trkpt lat="43.51461" lon="5.88036">
        <ele>388.990601</ele>
        <time>2012-04-09T09:02:02Z</time>
      </trkpt>
      <trkpt lat="43.51375" lon="5.88037">
        <ele>383.703247</ele>
        <time>2012-04-09T09:02:09Z</time>
      </trkpt>
      <trkpt lat="43.51291" lon="5.88038">
        <ele>381.300049</ele>
        <time>2012-04-09T09:02:16Z</time>
      </trkpt>
      <trkpt lat="43.51189" lon="5.88041">
        <ele>377.454834</ele>
        <time>2012-04-09T09:02:25Z</time>
      </trkpt>
      <trkpt lat="43.5108" lon="5.88042">
        <ele>370.725586</ele>
        <time>2012-04-09T09:02:34Z</time>
      </trkpt>
      <trkpt lat="43.50973" lon="5.88046">
        <ele>365.438354</ele>
        <time>2012-04-09T09:02:43Z</time>
      </trkpt>
      <trkpt lat="43.50894" lon="5.8805">
        <ele>362.07373</ele>
        <time>2012-04-09T09:02:50Z</time>
      </trkpt>
      <trkpt lat="43.50824" lon="5.88068">
        <ele>359.189697</ele>
        <time>2012-04-09T09:02:56Z</time>
      </trkpt>
      <trkpt lat="43.50734" lon="5.8809">
        <ele>355.344482</ele>
        <time>2012-04-09T09:03:04Z</time>
      </trkpt>
      <trkpt lat="43.50689" lon="5.8809">
        <ele>353.902588</ele>
        <time>2012-04-09T09:03:08Z</time>
      </trkpt>
      <trkpt lat="43.50648" lon="5.88073">
        <ele>351.979858</ele>
        <time>2012-04-09T09:03:12Z</time>
      </trkpt>
      <trkpt lat="43.50611" lon="5.8804">
        <ele>350.537842</ele>
        <time>2012-04-09T09:03:16Z</time>
      </trkpt>
      <trkpt lat="43.50562" lon="5.87971">
        <ele>347.173218</ele>
        <time>2012-04-09T09:03:22Z</time>
      </trkpt>
      <trkpt lat="43.50505" lon="5.87892">
        <ele>345.25061</ele>
        <time>2012-04-09T09:03:29Z</time>
      </trkpt>
      <trkpt lat="43.50454" lon="5.87819">
        <ele>345.25061</ele>
        <time>2012-04-09T09:03:36Z</time>
      </trkpt>
      <trkpt lat="43.50415" lon="5.87768">
        <ele>346.212036</ele>
        <time>2012-04-09T09:03:42Z</time>
      </trkpt>
      <trkpt lat="43.50383" lon="5.87751">
        <ele>345.731323</ele>
        <time>2012-04-09T09:03:46Z</time>
      </trkpt>
      <trkpt lat="43.50366" lon="5.87752">
        <ele>345.25061</ele>
        <time>2012-04-09T09:03:48Z</time>
      </trkpt>
      <trkpt lat="43.50286" lon="5.87766">
        <ele>341.405273</ele>
        <time>2012-04-09T09:03:57Z</time>
      </trkpt>
      <trkpt lat="43.5025" lon="5.87771">
        <ele>339.963379</ele>
        <time>2012-04-09T09:04:02Z</time>
      </trkpt>
      <trkpt lat="43.5023" lon="5.87775">
        <ele>339.482666</ele>
        <time>2012-04-09T09:04:06Z</time>
      </trkpt>
      <trkpt lat="43.50226" lon="5.87776">
        <ele>339.002075</ele>
        <time>2012-04-09T09:04:07Z</time>
      </trkpt>
      <trkpt lat="43.50207" lon="5.87767">
        <ele>338.040771</ele>
        <time>2012-04-09T09:04:11Z</time>
      </trkpt>
      <trkpt lat="43.50199" lon="5.87755">
        <ele>337.079468</ele>
        <time>2012-04-09T09:04:13Z</time>
      </trkpt>
      <trkpt lat="43.50167" lon="5.87696">
        <ele>334.195435</ele>
        <time>2012-04-09T09:04:20Z</time>
      </trkpt>
      <trkpt lat="43.50125" lon="5.87618">
        <ele>332.272827</ele>
        <time>2012-04-09T09:04:28Z</time>
      </trkpt>
      <trkpt lat="43.50108" lon="5.8759">
        <ele>332.272827</ele>
        <time>2012-04-09T09:04:31Z</time>
      </trkpt>
      <trkpt lat="43.50079" lon="5.87565">
        <ele>331.311523</ele>
        <time>2012-04-09T09:04:35Z</time>
      </trkpt>
      <trkpt lat="43.50052" lon="5.87559">
        <ele>329.388916</ele>
        <time>2012-04-09T09:04:38Z</time>
      </trkpt>
      <trkpt lat="43.49971" lon="5.87557">
        <ele>325.062988</ele>
        <time>2012-04-09T09:04:46Z</time>
      </trkpt>
      <trkpt lat="43.49931" lon="5.87537">
        <ele>324.101562</ele>
        <time>2012-04-09T09:04:50Z</time>
      </trkpt>
      <trkpt lat="43.49902" lon="5.87516">
        <ele>322.659668</ele>
        <time>2012-04-09T09:04:53Z</time>
      </trkpt>
      <trkpt lat="43.49872" lon="5.87473">
        <ele>320.256348</ele>
        <time>2012-04-09T09:04:57Z</time>
      </trkpt>
      <trkpt lat="43.49866" lon="5.87443">
        <ele>318.814331</ele>
        <time>2012-04-09T09:04:59Z</time>
      </trkpt>
      <trkpt lat="43.49853" lon="5.87346">
        <ele>314.488403</ele>
        <time>2012-04-09T09:05:05Z</time>
      </trkpt>
      <trkpt lat="43.49838" lon="5.87238">
        <ele>310.643066</ele>
        <time>2012-04-09T09:05:12Z</time>
      </trkpt>
      <trkpt lat="43.49835" lon="5.87222">
        <ele>310.643066</ele>
        <time>2012-04-09T09:05:13Z</time>
      </trkpt>
      <trkpt lat="43.49818" lon="5.87184">
        <ele>310.162476</ele>
        <time>2012-04-09T09:05:16Z</time>
      </trkpt>
      <trkpt lat="43.4981" lon="5.87176">
        <ele>310.162476</ele>
        <time>2012-04-09T09:05:17Z</time>
      </trkpt>
      <trkpt lat="43.49748" lon="5.87135">
        <ele>309.201172</ele>
        <time>2012-04-09T09:05:24Z</time>
      </trkpt>
      <trkpt lat="43.49683" lon="5.87098">
        <ele>307.759277</ele>
        <time>2012-04-09T09:05:31Z</time>
      </trkpt>
      <trkpt lat="43.49632" lon="5.87085">
        <ele>306.317261</ele>
        <time>2012-04-09T09:05:36Z</time>
      </trkpt>
      <trkpt lat="43.49555" lon="5.87068">
        <ele>302.952515</ele>
        <time>2012-04-09T09:05:43Z</time>
      </trkpt>
      <trkpt lat="43.49532" lon="5.87066">
        <ele>302.471924</ele>
        <time>2012-04-09T09:05:45Z</time>
      </trkpt>
      <trkpt lat="43.49443" lon="5.87074">
        <ele>300.549316</ele>
        <time>2012-04-09T09:05:53Z</time>
      </trkpt>
      <trkpt lat="43.49389" lon="5.87062">
        <ele>300.068726</ele>
        <time>2012-04-09T09:05:58Z</time>
      </trkpt>
      <trkpt lat="43.49337" lon="5.87055">
        <ele>300.068726</ele>
        <time>2012-04-09T09:06:03Z</time>
      </trkpt>
      <trkpt lat="43.49252" lon="5.87051">
        <ele>300.068726</ele>
        <time>2012-04-09T09:06:12Z</time>
      </trkpt>
      <trkpt lat="43.49181" lon="5.87048">
        <ele>299.588013</ele>
        <time>2012-04-09T09:06:20Z</time>
      </trkpt>
      <trkpt lat="43.49137" lon="5.87037">
        <ele>298.146118</ele>
        <time>2012-04-09T09:06:25Z</time>
      </trkpt>
      <trkpt lat="43.49066" lon="5.87007">
        <ele>295.742676</ele>
        <time>2012-04-09T09:06:33Z</time>
      </trkpt>
      <trkpt lat="43.48994" lon="5.86982">
        <ele>294.300781</ele>
        <time>2012-04-09T09:06:41Z</time>
      </trkpt>
      <trkpt lat="43.48939" lon="5.86963">
        <ele>292.378174</ele>
        <time>2012-04-09T09:06:47Z</time>
      </trkpt>
      <trkpt lat="43.48901" lon="5.86944">
        <ele>290.455566</ele>
        <time>2012-04-09T09:06:51Z</time>
      </trkpt>
      <trkpt lat="43.48817" lon="5.86885">
        <ele>288.532959</ele>
        <time>2012-04-09T09:07:00Z</time>
      </trkpt>
      <trkpt lat="43.48798" lon="5.86872">
        <ele>288.052246</ele>
        <time>2012-04-09T09:07:02Z</time>
      </trkpt>
      <trkpt lat="43.48747" lon="5.86852">
        <ele>287.571411</ele>
        <time>2012-04-09T09:07:07Z</time>
      </trkpt>
      <trkpt lat="43.48694" lon="5.86813">
        <ele>287.571411</ele>
        <time>2012-04-09T09:07:13Z</time>
      </trkpt>
      <trkpt lat="43.48648" lon="5.86779">
        <ele>287.571411</ele>
        <time>2012-04-09T09:07:19Z</time>
      </trkpt>
      <trkpt lat="43.48591" lon="5.86736">
        <ele>288.052246</ele>
        <time>2012-04-09T09:07:27Z</time>
      </trkpt>
      <trkpt lat="43.48554" lon="5.86718">
        <ele>288.052246</ele>
        <time>2012-04-09T09:07:32Z</time>
      </trkpt>
      <trkpt lat="43.48526" lon="5.86711">
        <ele>288.532959</ele>
        <time>2012-04-09T09:07:37Z</time>
      </trkpt>
      <trkpt lat="43.48513" lon="5.8671">
        <ele>288.532959</ele>
        <time>2012-04-09T09:07:41Z</time>
      </trkpt>
      <trkpt lat="43.48495" lon="5.86702">
        <ele>288.532959</ele>
        <time>2012-04-09T09:07:46Z</time>
      </trkpt>
      <trkpt lat="43.4849" lon="5.86701">
        <ele>288.532959</ele>
        <time>2012-04-09T09:07:47Z</time>
      </trkpt>
      <trkpt lat="43.48475" lon="5.86698">
        <ele>288.052246</ele>
        <time>2012-04-09T09:07:51Z</time>
      </trkpt>
      <trkpt lat="43.48473" lon="5.86692">
        <ele>288.052246</ele>
        <time>2012-04-09T09:07:52Z</time>
      </trkpt>
      <trkpt lat="43.48462" lon="5.86638">
        <ele>288.052246</ele>
        <time>2012-04-09T09:07:59Z</time>
      </trkpt>
      <trkpt lat="43.48447" lon="5.86566">
        <ele>288.052246</ele>
        <time>2012-04-09T09:08:08Z</time>
      </trkpt>
      <trkpt lat="43.48434" lon="5.86509">
        <ele>288.532959</ele>
        <time>2012-04-09T09:08:17Z</time>
      </trkpt>
      <trkpt lat="43.48425" lon="5.86472">
        <ele>289.01355</ele>
        <time>2012-04-09T09:08:22Z</time>
      </trkpt>
      <trkpt lat="43.48413" lon="5.86419">
        <ele>289.974854</ele>
        <time>2012-04-09T09:08:29Z</time>
      </trkpt>
      <trkpt lat="43.48399" lon="5.86358">
        <ele>289.494141</ele>
        <time>2012-04-09T09:08:36Z</time>
      </trkpt>
      <trkpt lat="43.48377" lon="5.86263">
        <ele>289.494141</ele>
        <time>2012-04-09T09:08:46Z</time>
      </trkpt>
      <trkpt lat="43.48359" lon="5.86181">
        <ele>289.494141</ele>
        <time>2012-04-09T09:08:55Z</time>
      </trkpt>
      <trkpt lat="43.48348" lon="5.86129">
        <ele>289.974854</ele>
        <time>2012-04-09T09:09:02Z</time>
      </trkpt>
      <trkpt lat="43.48338" lon="5.86085">
        <ele>289.974854</ele>
        <time>2012-04-09T09:09:08Z</time>
      </trkpt>
      <trkpt lat="43.48323" lon="5.8602">
        <ele>290.455566</ele>
        <time>2012-04-09T09:09:16Z</time>
      </trkpt>
      <trkpt lat="43.48302" lon="5.85924">
        <ele>292.378174</ele>
        <time>2012-04-09T09:09:27Z</time>
      </trkpt>
      <trkpt lat="43.48283" lon="5.85838">
        <ele>293.339355</ele>
        <time>2012-04-09T09:09:37Z</time>
      </trkpt>
      <trkpt lat="43.48261" lon="5.85744">
        <ele>294.300781</ele>
        <time>2012-04-09T09:09:48Z</time>
      </trkpt>
      <trkpt lat="43.48243" lon="5.8567">
        <ele>295.261963</ele>
        <time>2012-04-09T09:09:57Z</time>
      </trkpt>
      <trkpt lat="43.48229" lon="5.85608">
        <ele>296.223511</ele>
        <time>2012-04-09T09:10:05Z</time>
      </trkpt>
      <trkpt lat="43.48216" lon="5.85557">
        <ele>297.184692</ele>
        <time>2012-04-09T09:10:12Z</time>
      </trkpt>
      <trkpt lat="43.48202" lon="5.85492">
        <ele>298.146118</ele>
        <time>2012-04-09T09:10:21Z</time>
      </trkpt>
      <trkpt lat="43.48186" lon="5.85417">
        <ele>298.626709</ele>
        <time>2012-04-09T09:10:31Z</time>
      </trkpt>
      <trkpt lat="43.48165" lon="5.85347">
        <ele>298.626709</ele>
        <time>2012-04-09T09:10:40Z</time>
      </trkpt>
      <trkpt lat="43.48136" lon="5.85274">
        <ele>298.146118</ele>
        <time>2012-04-09T09:10:50Z</time>
      </trkpt>
      <trkpt lat="43.48124" lon="5.85241">
        <ele>298.146118</ele>
        <time>2012-04-09T09:10:55Z</time>
      </trkpt>
      <trkpt lat="43.48109" lon="5.85204">
        <ele>298.146118</ele>
        <time>2012-04-09T09:11:01Z</time>
      </trkpt>
      <trkpt lat="43.48088" lon="5.85152">
        <ele>297.665405</ele>
        <time>2012-04-09T09:11:08Z</time>
      </trkpt>
      <trkpt lat="43.48059" lon="5.85079">
        <ele>297.665405</ele>
        <time>2012-04-09T09:11:17Z</time>
      </trkpt>
      <trkpt lat="43.48025" lon="5.84993">
        <ele>297.665405</ele>
        <time>2012-04-09T09:11:27Z</time>
      </trkpt>
      <trkpt lat="43.4799" lon="5.84907">
        <ele>297.665405</ele>
        <time>2012-04-09T09:11:37Z</time>
      </trkpt>
      <trkpt lat="43.47964" lon="5.8484">
        <ele>297.184692</ele>
        <time>2012-04-09T09:11:45Z</time>
      </trkpt>
      <trkpt lat="43.47935" lon="5.84765">
        <ele>297.184692</ele>
        <time>2012-04-09T09:11:54Z</time>
      </trkpt>
      <trkpt lat="43.47907" lon="5.84695">
        <ele>298.146118</ele>
        <time>2012-04-09T09:12:03Z</time>
      </trkpt>
      <trkpt lat="43.47881" lon="5.84626">
        <ele>298.626709</ele>
        <time>2012-04-09T09:12:12Z</time>
      </trkpt>
      <trkpt lat="43.47859" lon="5.84572">
        <ele>300.068726</ele>
        <time>2012-04-09T09:12:20Z</time>
      </trkpt>
      <trkpt lat="43.47855" lon="5.84561">
        <ele>300.549316</ele>
        <time>2012-04-09T09:12:22Z</time>
      </trkpt>
      <trkpt lat="43.4784" lon="5.84525">
        <ele>301.51062</ele>
        <time>2012-04-09T09:12:28Z</time>
      </trkpt>
      <trkpt lat="43.47817" lon="5.84484">
        <ele>301.029907</ele>
        <time>2012-04-09T09:12:34Z</time>
      </trkpt>
      <trkpt lat="43.47806" lon="5.84462">
        <ele>301.029907</ele>
        <time>2012-04-09T09:12:37Z</time>
      </trkpt>
      <trkpt lat="43.47764" lon="5.84406">
        <ele>300.068726</ele>
        <time>2012-04-09T09:12:46Z</time>
      </trkpt>
      <trkpt lat="43.4772" lon="5.84354">
        <ele>300.549316</ele>
        <time>2012-04-09T09:12:55Z</time>
      </trkpt>
      <trkpt lat="43.47674" lon="5.84298">
        <ele>301.51062</ele>
        <time>2012-04-09T09:13:05Z</time>
      </trkpt>
      <trkpt lat="43.47635" lon="5.84252">
        <ele>302.952515</ele>
        <time>2012-04-09T09:13:14Z</time>
      </trkpt>
      <trkpt lat="43.47616" lon="5.84229">
        <ele>304.875244</ele>
        <time>2012-04-09T09:13:20Z</time>
      </trkpt>
      <trkpt lat="43.47606" lon="5.84217">
        <ele>305.355957</ele>
        <time>2012-04-09T09:13:23Z</time>
      </trkpt>
      <trkpt lat="43.47577" lon="5.84181">
        <ele>307.278564</ele>
        <time>2012-04-09T09:13:32Z</time>
      </trkpt>
      <trkpt lat="43.47564" lon="5.84167">
        <ele>308.239868</ele>
        <time>2012-04-09T09:13:36Z</time>
      </trkpt>
      <trkpt lat="43.47526" lon="5.84131">
        <ele>308.720459</ele>
        <time>2012-04-09T09:13:46Z</time>
      </trkpt>
      <trkpt lat="43.47491" lon="5.84096">
        <ele>308.239868</ele>
        <time>2012-04-09T09:13:54Z</time>
      </trkpt>
      <trkpt lat="43.47472" lon="5.84077">
        <ele>308.239868</ele>
        <time>2012-04-09T09:13:58Z</time>
      </trkpt>
      <trkpt lat="43.4745" lon="5.84053">
        <ele>309.201172</ele>
        <time>2012-04-09T09:14:04Z</time>
      </trkpt>
      <trkpt lat="43.47423" lon="5.84031">
        <ele>310.162476</ele>
        <time>2012-04-09T09:14:10Z</time>
      </trkpt>
      <trkpt lat="43.47394" lon="5.84005">
        <ele>309.201172</ele>
        <time>2012-04-09T09:14:16Z</time>
      </trkpt>
      <trkpt lat="43.47378" lon="5.83971">
        <ele>310.162476</ele>
        <time>2012-04-09T09:14:21Z</time>
      </trkpt>
      <trkpt lat="43.47375" lon="5.83955">
        <ele>310.643066</ele>
        <time>2012-04-09T09:14:23Z</time>
      </trkpt>
      <trkpt lat="43.47364" lon="5.83925">
        <ele>311.604492</ele>
        <time>2012-04-09T09:14:27Z</time>
      </trkpt>
      <trkpt lat="43.47348" lon="5.83892">
        <ele>312.565796</ele>
        <time>2012-04-09T09:14:32Z</time>
      </trkpt>
      <trkpt lat="43.47343" lon="5.83854">
        <ele>313.046509</ele>
        <time>2012-04-09T09:14:37Z</time>
      </trkpt>
      <trkpt lat="43.47344" lon="5.83847">
        <ele>313.046509</ele>
        <time>2012-04-09T09:14:38Z</time>
      </trkpt>
      <trkpt lat="43.47359" lon="5.83789">
        <ele>313.046509</ele>
        <time>2012-04-09T09:14:46Z</time>
      </trkpt>
      <trkpt lat="43.47381" lon="5.83726">
        <ele>313.527222</ele>
        <time>2012-04-09T09:14:55Z</time>
      </trkpt>
      <trkpt lat="43.47392" lon="5.837">
        <ele>313.527222</ele>
        <time>2012-04-09T09:14:59Z</time>
      </trkpt>
      <trkpt lat="43.47409" lon="5.83677">
        <ele>314.969116</ele>
        <time>2012-04-09T09:15:04Z</time>
      </trkpt>
      <trkpt lat="43.47444" lon="5.83654">
        <ele>316.411011</ele>
        <time>2012-04-09T09:15:12Z</time>
      </trkpt>
      <trkpt lat="43.47487" lon="5.8363">
        <ele>317.853027</ele>
        <time>2012-04-09T09:15:21Z</time>
      </trkpt>
      <trkpt lat="43.47531" lon="5.83604">
        <ele>318.333618</ele>
        <time>2012-04-09T09:15:30Z</time>
      </trkpt>
      <trkpt lat="43.47575" lon="5.83576">
        <ele>317.372437</ele>
        <time>2012-04-09T09:15:38Z</time>
      </trkpt>
      <trkpt lat="43.4762" lon="5.83543">
        <ele>316.411011</ele>
        <time>2012-04-09T09:15:45Z</time>
      </trkpt>
      <trkpt lat="43.47671" lon="5.83505">
        <ele>314.007812</ele>
        <time>2012-04-09T09:15:53Z</time>
      </trkpt>
      <trkpt lat="43.47712" lon="5.83477">
        <ele>311.604492</ele>
        <time>2012-04-09T09:15:58Z</time>
      </trkpt>
      <trkpt lat="43.47767" lon="5.83435">
        <ele>310.643066</ele>
        <time>2012-04-09T09:16:05Z</time>
      </trkpt>
      <trkpt lat="43.47785" lon="5.83416">
        <ele>310.643066</ele>
        <time>2012-04-09T09:16:09Z</time>
      </trkpt>
      <trkpt lat="43.47793" lon="5.83393">
        <ele>311.604492</ele>
        <time>2012-04-09T09:16:13Z</time>
      </trkpt>
      <trkpt lat="43.47789" lon="5.83386">
        <ele>312.085205</ele>
        <time>2012-04-09T09:16:15Z</time>
      </trkpt>
      <trkpt lat="43.4778" lon="5.8337">
        <ele>312.565796</ele>
        <time>2012-04-09T09:16:21Z</time>
      </trkpt>
      <trkpt lat="43.47779" lon="5.83363">
        <ele>313.046509</ele>
        <time>2012-04-09T09:16:24Z</time>
      </trkpt>
      <trkpt lat="43.4779" lon="5.83357">
        <ele>312.565796</ele>
        <time>2012-04-09T09:16:29Z</time>
      </trkpt>
      <trkpt lat="43.47808" lon="5.8335">
        <ele>312.085205</ele>
        <time>2012-04-09T09:16:33Z</time>
      </trkpt>
      <trkpt lat="43.4782" lon="5.83345">
        <ele>312.565796</ele>
        <time>2012-04-09T09:16:35Z</time>
      </trkpt>
      <trkpt lat="43.47849" lon="5.83323">
        <ele>313.527222</ele>
        <time>2012-04-09T09:16:40Z</time>
      </trkpt>
      <trkpt lat="43.47885" lon="5.83269">
        <ele>315.449829</ele>
        <time>2012-04-09T09:16:48Z</time>
      </trkpt>
      <trkpt lat="43.47918" lon="5.83216">
        <ele>317.372437</ele>
        <time>2012-04-09T09:16:56Z</time>
      </trkpt>
      <trkpt lat="43.47922" lon="5.8321">
        <ele>317.372437</ele>
        <time>2012-04-09T09:16:57Z</time>
      </trkpt>
      <trkpt lat="43.47949" lon="5.83192">
        <ele>317.853027</ele>
        <time>2012-04-09T09:17:02Z</time>
      </trkpt>
      <trkpt lat="43.47955" lon="5.8319">
        <ele>317.853027</ele>
        <time>2012-04-09T09:17:03Z</time>
      </trkpt>
      <trkpt lat="43.48009" lon="5.83178">
        <ele>318.814331</ele>
        <time>2012-04-09T09:17:12Z</time>
      </trkpt>
      <trkpt lat="43.48061" lon="5.8316">
        <ele>319.295044</ele>
        <time>2012-04-09T09:17:21Z</time>
      </trkpt>
      <trkpt lat="43.48112" lon="5.83141">
        <ele>320.737061</ele>
        <time>2012-04-09T09:17:30Z</time>
      </trkpt>
      <trkpt lat="43.48164" lon="5.83126">
        <ele>322.659668</ele>
        <time>2012-04-09T09:17:39Z</time>
      </trkpt>
      <trkpt lat="43.48174" lon="5.83122">
        <ele>323.140381</ele>
        <time>2012-04-09T09:17:41Z</time>
      </trkpt>
      <trkpt lat="43.4821" lon="5.83125">
        <ele>323.140381</ele>
        <time>2012-04-09T09:17:47Z</time>
      </trkpt>
      <trkpt lat="43.48223" lon="5.83128">
        <ele>323.140381</ele>
        <time>2012-04-09T09:17:49Z</time>
      </trkpt>
      <trkpt lat="43.4824" lon="5.83117">
        <ele>323.620972</ele>
        <time>2012-04-09T09:17:52Z</time>
      </trkpt>
      <trkpt lat="43.48247" lon="5.83096">
        <ele>323.620972</ele>
        <time>2012-04-09T09:17:55Z</time>
      </trkpt>
      <trkpt lat="43.48244" lon="5.83079">
        <ele>324.101562</ele>
        <time>2012-04-09T09:17:57Z</time>
      </trkpt>
      <trkpt lat="43.48236" lon="5.83038">
        <ele>325.543579</ele>
        <time>2012-04-09T09:18:02Z</time>
      </trkpt>
      <trkpt lat="43.48233" lon="5.82988">
        <ele>326.504883</ele>
        <time>2012-04-09T09:18:08Z</time>
      </trkpt>
      <trkpt lat="43.48234" lon="5.82979">
        <ele>326.02417</ele>
        <time>2012-04-09T09:18:09Z</time>
      </trkpt>
      <trkpt lat="43.48245" lon="5.82942">
        <ele>326.02417</ele>
        <time>2012-04-09T09:18:13Z</time>
      </trkpt>
      <trkpt lat="43.4825" lon="5.82934">
        <ele>326.02417</ele>
        <time>2012-04-09T09:18:14Z</time>
      </trkpt>
      <trkpt lat="43.48285" lon="5.8289">
        <ele>326.985596</ele>
        <time>2012-04-09T09:18:21Z</time>
      </trkpt>
      <trkpt lat="43.48298" lon="5.82856">
        <ele>326.504883</ele>
        <time>2012-04-09T09:18:25Z</time>
      </trkpt>
      <trkpt lat="43.48297" lon="5.82824">
        <ele>326.02417</ele>
        <time>2012-04-09T09:18:28Z</time>
      </trkpt>
      <trkpt lat="43.48291" lon="5.82786">
        <ele>326.504883</ele>
        <time>2012-04-09T09:18:32Z</time>
      </trkpt>
      <trkpt lat="43.48284" lon="5.8276">
        <ele>326.504883</ele>
        <time>2012-04-09T09:18:35Z</time>
      </trkpt>
      <trkpt lat="43.48282" lon="5.82745">
        <ele>326.985596</ele>
        <time>2012-04-09T09:18:39Z</time>
      </trkpt>
      <trkpt lat="43.48282" lon="5.82735">
        <ele>326.985596</ele>
        <time>2012-04-09T09:18:43Z</time>
      </trkpt>
      <trkpt lat="43.48277" lon="5.82711">
        <ele>327.946777</ele>
        <time>2012-04-09T09:18:48Z</time>
      </trkpt>
      <trkpt lat="43.48268" lon="5.82666">
        <ele>329.869507</ele>
        <time>2012-04-09T09:18:55Z</time>
      </trkpt>
      <trkpt lat="43.48263" lon="5.82635">
        <ele>331.311523</ele>
        <time>2012-04-09T09:19:00Z</time>
      </trkpt>
      <trkpt lat="43.48265" lon="5.82614">
        <ele>332.272827</ele>
        <time>2012-04-09T09:19:05Z</time>
      </trkpt>
      <trkpt lat="43.48268" lon="5.82602">
        <ele>332.75354</ele>
        <time>2012-04-09T09:19:12Z</time>
      </trkpt>
      <trkpt lat="43.48268" lon="5.826">
        <ele>332.75354</ele>
        <time>2012-04-09T09:19:13Z</time>
      </trkpt>
      <trkpt lat="43.48257" lon="5.82587">
        <ele>332.75354</ele>
        <time>2012-04-09T09:19:18Z</time>
      </trkpt>
      <trkpt lat="43.48251" lon="5.82577">
        <ele>332.272827</ele>
        <time>2012-04-09T09:19:20Z</time>
      </trkpt>
      <trkpt lat="43.48226" lon="5.82526">
        <ele>333.714722</ele>
        <time>2012-04-09T09:19:28Z</time>
      </trkpt>
      <trkpt lat="43.48202" lon="5.8248">
        <ele>336.118164</ele>
        <time>2012-04-09T09:19:36Z</time>
      </trkpt>
      <trkpt lat="43.48185" lon="5.82445">
        <ele>337.079468</ele>
        <time>2012-04-09T09:19:42Z</time>
      </trkpt>
      <trkpt lat="43.48167" lon="5.82416">
        <ele>339.002075</ele>
        <time>2012-04-09T09:19:47Z</time>
      </trkpt>
      <trkpt lat="43.48148" lon="5.82386">
        <ele>340.444092</ele>
        <time>2012-04-09T09:19:53Z</time>
      </trkpt>
      <trkpt lat="43.48126" lon="5.82351">
        <ele>342.84729</ele>
        <time>2012-04-09T09:20:01Z</time>
      </trkpt>
      <trkpt lat="43.48113" lon="5.82317">
        <ele>344.77002</ele>
        <time>2012-04-09T09:20:08Z</time>
      </trkpt>
      <trkpt lat="43.48102" lon="5.82273">
        <ele>346.692627</ele>
        <time>2012-04-09T09:20:17Z</time>
      </trkpt>
      <trkpt lat="43.48091" lon="5.82228">
        <ele>348.615234</ele>
        <time>2012-04-09T09:20:26Z</time>
      </trkpt>
      <trkpt lat="43.48081" lon="5.82194">
        <ele>350.057251</ele>
        <time>2012-04-09T09:20:33Z</time>
      </trkpt>
      <trkpt lat="43.48067" lon="5.82169">
        <ele>351.979858</ele>
        <time>2012-04-09T09:20:39Z</time>
      </trkpt>
      <trkpt lat="43.48037" lon="5.82135">
        <ele>352.460571</ele>
        <time>2012-04-09T09:20:48Z</time>
      </trkpt>
      <trkpt lat="43.48019" lon="5.82116">
        <ele>352.460571</ele>
        <time>2012-04-09T09:20:53Z</time>
      </trkpt>
      <trkpt lat="43.47991" lon="5.82069">
        <ele>353.421875</ele>
        <time>2012-04-09T09:21:02Z</time>
      </trkpt>
      <trkpt lat="43.47971" lon="5.82027">
        <ele>353.421875</ele>
        <time>2012-04-09T09:21:09Z</time>
      </trkpt>
      <trkpt lat="43.47948" lon="5.82005">
        <ele>352.460571</ele>
        <time>2012-04-09T09:21:14Z</time>
      </trkpt>
      <trkpt lat="43.47886" lon="5.81983">
        <ele>351.018433</ele>
        <time>2012-04-09T09:21:24Z</time>
      </trkpt>
      <trkpt lat="43.47829" lon="5.81948">
        <ele>351.979858</ele>
        <time>2012-04-09T09:21:34Z</time>
      </trkpt>
      <trkpt lat="43.47784" lon="5.81912">
        <ele>353.421875</ele>
        <time>2012-04-09T09:21:43Z</time>
      </trkpt>
      <trkpt lat="43.47736" lon="5.81874">
        <ele>356.305786</ele>
        <time>2012-04-09T09:21:53Z</time>
      </trkpt>
      <trkpt lat="43.47695" lon="5.81852">
        <ele>359.67041</ele>
        <time>2012-04-09T09:22:01Z</time>
      </trkpt>
      <trkpt lat="43.47656" lon="5.81827">
        <ele>361.112427</ele>
        <time>2012-04-09T09:22:09Z</time>
      </trkpt>
      <trkpt lat="43.47605" lon="5.81791">
        <ele>362.554321</ele>
        <time>2012-04-09T09:22:20Z</time>
      </trkpt>
      <trkpt lat="43.47571" lon="5.81767">
        <ele>363.035034</ele>
        <time>2012-04-09T09:22:27Z</time>
      </trkpt>
      <trkpt lat="43.47545" lon="5.81737">
        <ele>363.035034</ele>
        <time>2012-04-09T09:22:33Z</time>
      </trkpt>
      <trkpt lat="43.47515" lon="5.81687">
        <ele>364.476929</ele>
        <time>2012-04-09T09:22:42Z</time>
      </trkpt>
      <trkpt lat="43.47493" lon="5.81646">
        <ele>366.399536</ele>
        <time>2012-04-09T09:22:50Z</time>
      </trkpt>
      <trkpt lat="43.4747" lon="5.81602">
        <ele>369.283691</ele>
        <time>2012-04-09T09:22:59Z</time>
      </trkpt>
      <trkpt lat="43.47451" lon="5.81564">
        <ele>371.68689</ele>
        <time>2012-04-09T09:23:08Z</time>
      </trkpt>
      <trkpt lat="43.47433" lon="5.81524">
        <ele>373.609497</ele>
        <time>2012-04-09T09:23:18Z</time>
      </trkpt>
      <trkpt lat="43.47424" lon="5.8149">
        <ele>375.051514</ele>
        <time>2012-04-09T09:23:26Z</time>
      </trkpt>
      <trkpt lat="43.47417" lon="5.81445">
        <ele>377.935425</ele>
        <time>2012-04-09T09:23:35Z</time>
      </trkpt>
      <trkpt lat="43.47414" lon="5.8141">
        <ele>379.858032</ele>
        <time>2012-04-09T09:23:41Z</time>
      </trkpt>
      <trkpt lat="43.47408" lon="5.81358">
        <ele>381.78064</ele>
        <time>2012-04-09T09:23:50Z</time>
      </trkpt>
      <trkpt lat="43.47398" lon="5.81306">
        <ele>384.184082</ele>
        <time>2012-04-09T09:23:59Z</time>
      </trkpt>
      <trkpt lat="43.47379" lon="5.8126">
        <ele>385.625977</ele>
        <time>2012-04-09T09:24:08Z</time>
      </trkpt>
      <trkpt lat="43.47357" lon="5.8123">
        <ele>386.587402</ele>
        <time>2012-04-09T09:24:15Z</time>
      </trkpt>
      <trkpt lat="43.47326" lon="5.81206">
        <ele>388.029297</ele>
        <time>2012-04-09T09:24:23Z</time>
      </trkpt>
      <trkpt lat="43.47294" lon="5.81196">
        <ele>389.471191</ele>
        <time>2012-04-09T09:24:30Z</time>
      </trkpt>
      <trkpt lat="43.47259" lon="5.81195">
        <ele>390.432617</ele>
        <time>2012-04-09T09:24:37Z</time>
      </trkpt>
      <trkpt lat="43.47218" lon="5.81198">
        <ele>392.355347</ele>
        <time>2012-04-09T09:24:46Z</time>
      </trkpt>
      <trkpt lat="43.47183" lon="5.81201">
        <ele>394.758545</ele>
        <time>2012-04-09T09:24:54Z</time>
      </trkpt>
      <trkpt lat="43.47149" lon="5.81211">
        <ele>396.200562</ele>
        <time>2012-04-09T09:25:01Z</time>
      </trkpt>
      <trkpt lat="43.47112" lon="5.81233">
        <ele>396.681152</ele>
        <time>2012-04-09T09:25:08Z</time>
      </trkpt>
      <trkpt lat="43.47048" lon="5.81277">
        <ele>397.642456</ele>
        <time>2012-04-09T09:25:20Z</time>
      </trkpt>
      <trkpt lat="43.46998" lon="5.81309">
        <ele>398.60376</ele>
        <time>2012-04-09T09:25:29Z</time>
      </trkpt>
      <trkpt lat="43.46961" lon="5.81321">
        <ele>399.084351</ele>
        <time>2012-04-09T09:25:35Z</time>
      </trkpt>
      <trkpt lat="43.46894" lon="5.81327">
        <ele>399.565063</ele>
        <time>2012-04-09T09:25:45Z</time>
      </trkpt>
      <trkpt lat="43.46825" lon="5.81332">
        <ele>400.526489</ele>
        <time>2012-04-09T09:25:55Z</time>
      </trkpt>
      <trkpt lat="43.46774" lon="5.81338">
        <ele>399.565063</ele>
        <time>2012-04-09T09:26:02Z</time>
      </trkpt>
      <trkpt lat="43.46717" lon="5.81346">
        <ele>400.045898</ele>
        <time>2012-04-09T09:26:10Z</time>
      </trkpt>
      <trkpt lat="43.46677" lon="5.81348">
        <ele>399.565063</ele>
        <time>2012-04-09T09:26:16Z</time>
      </trkpt>
      <trkpt lat="43.46652" lon="5.81352">
        <ele>399.084351</ele>
        <time>2012-04-09T09:26:20Z</time>
      </trkpt>
      <trkpt lat="43.46632" lon="5.81364">
        <ele>398.60376</ele>
        <time>2012-04-09T09:26:24Z</time>
      </trkpt>
      <trkpt lat="43.46599" lon="5.81396">
        <ele>399.084351</ele>
        <time>2012-04-09T09:26:32Z</time>
      </trkpt>
      <trkpt lat="43.46585" lon="5.81406">
        <ele>400.526489</ele>
        <time>2012-04-09T09:26:37Z</time>
      </trkpt>
      <trkpt lat="43.46583" lon="5.81406">
        <ele>401.00708</ele>
        <time>2012-04-09T09:26:38Z</time>
      </trkpt>
      <trkpt lat="43.46577" lon="5.81399">
        <ele>401.487793</ele>
        <time>2012-04-09T09:26:44Z</time>
      </trkpt>
      <trkpt lat="43.46576" lon="5.81398">
        <ele>401.487793</ele>
        <time>2012-04-09T09:26:47Z</time>
      </trkpt>
      <trkpt lat="43.46575" lon="5.81396">
        <ele>401.487793</ele>
        <time>2012-04-09T09:26:52Z</time>
      </trkpt>
      <trkpt lat="43.46574" lon="5.81395">
        <ele>401.968506</ele>
        <time>2012-04-09T09:26:54Z</time>
      </trkpt>
      <trkpt lat="43.46573" lon="5.81395">
        <ele>402.929688</ele>
        <time>2012-04-09T09:32:06Z</time>
      </trkpt>
      <trkpt lat="43.46565" lon="5.81382">
        <ele>402.929688</ele>
        <time>2012-04-09T09:32:11Z</time>
      </trkpt>
      <trkpt lat="43.46548" lon="5.81353">
        <ele>402.449097</ele>
        <time>2012-04-09T09:32:18Z</time>
      </trkpt>
      <trkpt lat="43.46522" lon="5.8131">
        <ele>401.487793</ele>
        <time>2012-04-09T09:32:26Z</time>
      </trkpt>
      <trkpt lat="43.46495" lon="5.81265">
        <ele>400.045898</ele>
        <time>2012-04-09T09:32:33Z</time>
      </trkpt>
      <trkpt lat="43.46462" lon="5.81211">
        <ele>397.642456</ele>
        <time>2012-04-09T09:32:40Z</time>
      </trkpt>
      <trkpt lat="43.46429" lon="5.81153">
        <ele>394.758545</ele>
        <time>2012-04-09T09:32:46Z</time>
      </trkpt>
      <trkpt lat="43.46395" lon="5.8108">
        <ele>390.913208</ele>
        <time>2012-04-09T09:32:52Z</time>
      </trkpt>
      <trkpt lat="43.46356" lon="5.80968">
        <ele>387.548584</ele>
        <time>2012-04-09T09:33:00Z</time>
      </trkpt>
      <trkpt lat="43.46325" lon="5.80876">
        <ele>386.587402</ele>
        <time>2012-04-09T09:33:07Z</time>
      </trkpt>
      <trkpt lat="43.46286" lon="5.80757">
        <ele>387.067993</ele>
        <time>2012-04-09T09:33:17Z</time>
      </trkpt>
      <trkpt lat="43.46267" lon="5.80687">
        <ele>387.067993</ele>
        <time>2012-04-09T09:33:23Z</time>
      </trkpt>
      <trkpt lat="43.46258" lon="5.80613">
        <ele>387.067993</ele>
        <time>2012-04-09T09:33:29Z</time>
      </trkpt>
      <trkpt lat="43.4626" lon="5.80546">
        <ele>386.587402</ele>
        <time>2012-04-09T09:33:34Z</time>
      </trkpt>
      <trkpt lat="43.46274" lon="5.80465">
        <ele>384.664795</ele>
        <time>2012-04-09T09:33:40Z</time>
      </trkpt>
      <trkpt lat="43.46294" lon="5.80406">
        <ele>383.703247</ele>
        <time>2012-04-09T09:33:45Z</time>
      </trkpt>
      <trkpt lat="43.46336" lon="5.80292">
        <ele>380.819458</ele>
        <time>2012-04-09T09:33:55Z</time>
      </trkpt>
      <trkpt lat="43.46374" lon="5.8019">
        <ele>376.49353</ele>
        <time>2012-04-09T09:34:03Z</time>
      </trkpt>
      <trkpt lat="43.46414" lon="5.80079">
        <ele>371.206299</ele>
        <time>2012-04-09T09:34:11Z</time>
      </trkpt>
      <trkpt lat="43.46462" lon="5.79951">
        <ele>366.399536</ele>
        <time>2012-04-09T09:34:20Z</time>
      </trkpt>
      <trkpt lat="43.46489" lon="5.79876">
        <ele>366.880249</ele>
        <time>2012-04-09T09:34:26Z</time>
      </trkpt>
      <trkpt lat="43.4652" lon="5.7979">
        <ele>368.802979</ele>
        <time>2012-04-09T09:34:34Z</time>
      </trkpt>
      <trkpt lat="43.46562" lon="5.79676">
        <ele>370.244873</ele>
        <time>2012-04-09T09:34:45Z</time>
      </trkpt>
      <trkpt lat="43.46581" lon="5.7962">
        <ele>372.648193</ele>
        <time>2012-04-09T09:34:51Z</time>
      </trkpt>
      <trkpt lat="43.46603" lon="5.79567">
        <ele>374.570801</ele>
        <time>2012-04-09T09:34:58Z</time>
      </trkpt>
      <trkpt lat="43.46628" lon="5.79534">
        <ele>375.532104</ele>
        <time>2012-04-09T09:35:04Z</time>
      </trkpt>
      <trkpt lat="43.46659" lon="5.79505">
        <ele>375.051514</ele>
        <time>2012-04-09T09:35:10Z</time>
      </trkpt>
      <trkpt lat="43.46664" lon="5.795">
        <ele>375.051514</ele>
        <time>2012-04-09T09:35:11Z</time>
      </trkpt>
      <trkpt lat="43.46694" lon="5.79452">
        <ele>374.090088</ele>
        <time>2012-04-09T09:35:18Z</time>
      </trkpt>
      <trkpt lat="43.4673" lon="5.79385">
        <ele>372.648193</ele>
        <time>2012-04-09T09:35:26Z</time>
      </trkpt>
      <trkpt lat="43.46765" lon="5.79323">
        <ele>371.206299</ele>
        <time>2012-04-09T09:35:33Z</time>
      </trkpt>
      <trkpt lat="43.46804" lon="5.79251">
        <ele>369.283691</ele>
        <time>2012-04-09T09:35:41Z</time>
      </trkpt>
      <trkpt lat="43.46814" lon="5.79231">
        <ele>368.802979</ele>
        <time>2012-04-09T09:35:43Z</time>
      </trkpt>
      <trkpt lat="43.46824" lon="5.79186">
        <ele>368.322266</ele>
        <time>2012-04-09T09:35:47Z</time>
      </trkpt>
      <trkpt lat="43.46835" lon="5.79078">
        <ele>364.957642</ele>
        <time>2012-04-09T09:35:56Z</time>
      </trkpt>
      <trkpt lat="43.46848" lon="5.7896">
        <ele>360.151123</ele>
        <time>2012-04-09T09:36:05Z</time>
      </trkpt>
      <trkpt lat="43.46863" lon="5.78834">
        <ele>355.825195</ele>
        <time>2012-04-09T09:36:14Z</time>
      </trkpt>
      <trkpt lat="43.46876" lon="5.78725">
        <ele>352.941162</ele>
        <time>2012-04-09T09:36:22Z</time>
      </trkpt>
      <trkpt lat="43.46882" lon="5.78676">
        <ele>351.018433</ele>
        <time>2012-04-09T09:36:26Z</time>
      </trkpt>
      <trkpt lat="43.469" lon="5.78638">
        <ele>349.095825</ele>
        <time>2012-04-09T09:36:30Z</time>
      </trkpt>
      <trkpt lat="43.46923" lon="5.78625">
        <ele>349.576538</ele>
        <time>2012-04-09T09:36:33Z</time>
      </trkpt>
      <trkpt lat="43.46951" lon="5.78622">
        <ele>351.018433</ele>
        <time>2012-04-09T09:36:37Z</time>
      </trkpt>
      <trkpt lat="43.46982" lon="5.7861">
        <ele>353.421875</ele>
        <time>2012-04-09T09:36:42Z</time>
      </trkpt>
      <trkpt lat="43.47008" lon="5.78581">
        <ele>356.305786</ele>
        <time>2012-04-09T09:36:48Z</time>
      </trkpt>
      <trkpt lat="43.4702" lon="5.78565">
        <ele>357.26709</ele>
        <time>2012-04-09T09:36:51Z</time>
      </trkpt>
      <trkpt lat="43.47057" lon="5.78516">
        <ele>361.59314</ele>
        <time>2012-04-09T09:37:00Z</time>
      </trkpt>
      <trkpt lat="43.47092" lon="5.78475">
        <ele>361.59314</ele>
        <time>2012-04-09T09:37:08Z</time>
      </trkpt>
      <trkpt lat="43.47121" lon="5.78427">
        <ele>361.112427</ele>
        <time>2012-04-09T09:37:15Z</time>
      </trkpt>
      <trkpt lat="43.47149" lon="5.78363">
        <ele>360.631714</ele>
        <time>2012-04-09T09:37:23Z</time>
      </trkpt>
      <trkpt lat="43.47167" lon="5.78316">
        <ele>360.151123</ele>
        <time>2012-04-09T09:37:29Z</time>
      </trkpt>
      <trkpt lat="43.47186" lon="5.78254">
        <ele>358.708984</ele>
        <time>2012-04-09T09:37:36Z</time>
      </trkpt>
      <trkpt lat="43.47205" lon="5.78191">
        <ele>356.786377</ele>
        <time>2012-04-09T09:37:43Z</time>
      </trkpt>
      <trkpt lat="43.47229" lon="5.78114">
        <ele>355.344482</ele>
        <time>2012-04-09T09:37:51Z</time>
      </trkpt>
      <trkpt lat="43.47249" lon="5.78045">
        <ele>353.902588</ele>
        <time>2012-04-09T09:37:58Z</time>
      </trkpt>
      <trkpt lat="43.47272" lon="5.77961">
        <ele>352.460571</ele>
        <time>2012-04-09T09:38:06Z</time>
      </trkpt>
      <trkpt lat="43.47277" lon="5.77901">
        <ele>351.018433</ele>
        <time>2012-04-09T09:38:11Z</time>
      </trkpt>
      <trkpt lat="43.47273" lon="5.77799">
        <ele>349.576538</ele>
        <time>2012-04-09T09:38:19Z</time>
      </trkpt>
      <trkpt lat="43.47259" lon="5.77721">
        <ele>347.173218</ele>
        <time>2012-04-09T09:38:25Z</time>
      </trkpt>
      <trkpt lat="43.47242" lon="5.77634">
        <ele>344.289429</ele>
        <time>2012-04-09T09:38:31Z</time>
      </trkpt>
      <trkpt lat="43.47231" lon="5.77563">
        <ele>343.808594</ele>
        <time>2012-04-09T09:38:36Z</time>
      </trkpt>
      <trkpt lat="43.47234" lon="5.77524">
        <ele>343.808594</ele>
        <time>2012-04-09T09:38:39Z</time>
      </trkpt>
      <trkpt lat="43.47262" lon="5.77426">
        <ele>343.808594</ele>
        <time>2012-04-09T09:38:48Z</time>
      </trkpt>
      <trkpt lat="43.47294" lon="5.7732">
        <ele>340.924683</ele>
        <time>2012-04-09T09:38:58Z</time>
      </trkpt>
      <trkpt lat="43.47317" lon="5.77241">
        <ele>339.002075</ele>
        <time>2012-04-09T09:39:05Z</time>
      </trkpt>
      <trkpt lat="43.47346" lon="5.77134">
        <ele>336.598877</ele>
        <time>2012-04-09T09:39:14Z</time>
      </trkpt>
      <trkpt lat="43.47362" lon="5.77058">
        <ele>334.676147</ele>
        <time>2012-04-09T09:39:20Z</time>
      </trkpt>
      <trkpt lat="43.47375" lon="5.76949">
        <ele>332.272827</ele>
        <time>2012-04-09T09:39:28Z</time>
      </trkpt>
      <trkpt lat="43.47386" lon="5.76823">
        <ele>328.908325</ele>
        <time>2012-04-09T09:39:37Z</time>
      </trkpt>
      <trkpt lat="43.47395" lon="5.76725">
        <ele>326.02417</ele>
        <time>2012-04-09T09:39:44Z</time>
      </trkpt>
      <trkpt lat="43.47399" lon="5.76675">
        <ele>325.062988</ele>
        <time>2012-04-09T09:39:48Z</time>
      </trkpt>
      <trkpt lat="43.47393" lon="5.76644">
        <ele>324.582275</ele>
        <time>2012-04-09T09:39:51Z</time>
      </trkpt>
      <trkpt lat="43.47383" lon="5.76628">
        <ele>324.101562</ele>
        <time>2012-04-09T09:39:54Z</time>
      </trkpt>
      <trkpt lat="43.47379" lon="5.76618">
        <ele>324.101562</ele>
        <time>2012-04-09T09:39:58Z</time>
      </trkpt>
      <trkpt lat="43.47379" lon="5.76618">
        <ele>324.101562</ele>
        <time>2012-04-09T09:39:59Z</time>
      </trkpt>
      <trkpt lat="43.47379" lon="5.76621">
        <ele>324.101562</ele>
        <time>2012-04-09T09:40:26Z</time>
      </trkpt>
      <trkpt lat="43.47384" lon="5.76605">
        <ele>323.620972</ele>
        <time>2012-04-09T09:40:30Z</time>
      </trkpt>
      <trkpt lat="43.47393" lon="5.76582">
        <ele>322.659668</ele>
        <time>2012-04-09T09:40:34Z</time>
      </trkpt>
      <trkpt lat="43.4741" lon="5.76542">
        <ele>321.217773</ele>
        <time>2012-04-09T09:40:39Z</time>
      </trkpt>
      <trkpt lat="43.47433" lon="5.76489">
        <ele>319.775635</ele>
        <time>2012-04-09T09:40:44Z</time>
      </trkpt>
      <trkpt lat="43.47482" lon="5.76385">
        <ele>316.411011</ele>
        <time>2012-04-09T09:40:53Z</time>
      </trkpt>
      <trkpt lat="43.4753" lon="5.76286">
        <ele>313.527222</ele>
        <time>2012-04-09T09:41:01Z</time>
      </trkpt>
      <trkpt lat="43.47594" lon="5.76154">
        <ele>309.681885</ele>
        <time>2012-04-09T09:41:11Z</time>
      </trkpt>
      <trkpt lat="43.4765" lon="5.76038">
        <ele>306.797852</ele>
        <time>2012-04-09T09:41:20Z</time>
      </trkpt>
      <trkpt lat="43.47703" lon="5.75922">
        <ele>305.355957</ele>
        <time>2012-04-09T09:41:29Z</time>
      </trkpt>
      <trkpt lat="43.47741" lon="5.7584">
        <ele>304.394653</ele>
        <time>2012-04-09T09:41:36Z</time>
      </trkpt>
      <trkpt lat="43.4778" lon="5.75769">
        <ele>303.91394</ele>
        <time>2012-04-09T09:41:43Z</time>
      </trkpt>
      <trkpt lat="43.478" lon="5.7574">
        <ele>304.394653</ele>
        <time>2012-04-09T09:41:47Z</time>
      </trkpt>
      <trkpt lat="43.47826" lon="5.75706">
        <ele>305.355957</ele>
        <time>2012-04-09T09:41:53Z</time>
      </trkpt>
      <trkpt lat="43.47864" lon="5.75667">
        <ele>306.317261</ele>
        <time>2012-04-09T09:42:01Z</time>
      </trkpt>
      <trkpt lat="43.47908" lon="5.75628">
        <ele>306.317261</ele>
        <time>2012-04-09T09:42:09Z</time>
      </trkpt>
      <trkpt lat="43.47955" lon="5.75583">
        <ele>305.83667</ele>
        <time>2012-04-09T09:42:17Z</time>
      </trkpt>
      <trkpt lat="43.48013" lon="5.7552">
        <ele>304.394653</ele>
        <time>2012-04-09T09:42:26Z</time>
      </trkpt>
      <trkpt lat="43.48055" lon="5.7546">
        <ele>302.952515</ele>
        <time>2012-04-09T09:42:33Z</time>
      </trkpt>
      <trkpt lat="43.48101" lon="5.75377">
        <ele>300.068726</ele>
        <time>2012-04-09T09:42:41Z</time>
      </trkpt>
      <trkpt lat="43.48138" lon="5.75291">
        <ele>296.704102</ele>
        <time>2012-04-09T09:42:48Z</time>
      </trkpt>
      <trkpt lat="43.48172" lon="5.75184">
        <ele>291.897461</ele>
        <time>2012-04-09T09:42:56Z</time>
      </trkpt>
      <trkpt lat="43.48212" lon="5.75048">
        <ele>287.571411</ele>
        <time>2012-04-09T09:43:06Z</time>
      </trkpt>
      <trkpt lat="43.48256" lon="5.749">
        <ele>285.168213</ele>
        <time>2012-04-09T09:43:17Z</time>
      </trkpt>
      <trkpt lat="43.48297" lon="5.74757">
        <ele>282.765015</ele>
        <time>2012-04-09T09:43:28Z</time>
      </trkpt>
      <trkpt lat="43.48312" lon="5.74708">
        <ele>282.284302</ele>
        <time>2012-04-09T09:43:32Z</time>
      </trkpt>
      <trkpt lat="43.48339" lon="5.74659">
        <ele>281.322998</ele>
        <time>2012-04-09T09:43:37Z</time>
      </trkpt>
      <trkpt lat="43.48383" lon="5.74583">
        <ele>281.322998</ele>
        <time>2012-04-09T09:43:45Z</time>
      </trkpt>
      <trkpt lat="43.48427" lon="5.74509">
        <ele>280.842407</ele>
        <time>2012-04-09T09:43:53Z</time>
      </trkpt>
      <trkpt lat="43.48483" lon="5.74417">
        <ele>279.880859</ele>
        <time>2012-04-09T09:44:03Z</time>
      </trkpt>
      <trkpt lat="43.48528" lon="5.74352">
        <ele>279.880859</ele>
        <time>2012-04-09T09:44:11Z</time>
      </trkpt>
      <trkpt lat="43.48565" lon="5.74304">
        <ele>280.361694</ele>
        <time>2012-04-09T09:44:18Z</time>
      </trkpt>
      <trkpt lat="43.48576" lon="5.74293">
        <ele>280.842407</ele>
        <time>2012-04-09T09:44:20Z</time>
      </trkpt>
      <trkpt lat="43.48609" lon="5.74277">
        <ele>280.842407</ele>
        <time>2012-04-09T09:44:25Z</time>
      </trkpt>
      <trkpt lat="43.48653" lon="5.74273">
        <ele>278.438965</ele>
        <time>2012-04-09T09:44:31Z</time>
      </trkpt>
      <trkpt lat="43.48698" lon="5.74272">
        <ele>274.113037</ele>
        <time>2012-04-09T09:44:36Z</time>
      </trkpt>
      <trkpt lat="43.4876" lon="5.74272">
        <ele>268.825806</ele>
        <time>2012-04-09T09:44:42Z</time>
      </trkpt>
      <trkpt lat="43.48858" lon="5.74267">
        <ele>263.538574</ele>
        <time>2012-04-09T09:44:51Z</time>
      </trkpt>
      <trkpt lat="43.48932" lon="5.74263">
        <ele>262.577148</ele>
        <time>2012-04-09T09:44:58Z</time>
      </trkpt>
      <trkpt lat="43.48982" lon="5.74261">
        <ele>263.538574</ele>
        <time>2012-04-09T09:45:04Z</time>
      </trkpt>
      <trkpt lat="43.49039" lon="5.74262">
        <ele>264.499878</ele>
        <time>2012-04-09T09:45:12Z</time>
      </trkpt>
      <trkpt lat="43.49092" lon="5.74269">
        <ele>264.980591</ele>
        <time>2012-04-09T09:45:20Z</time>
      </trkpt>
      <trkpt lat="43.49132" lon="5.74275">
        <ele>265.461304</ele>
        <time>2012-04-09T09:45:26Z</time>
      </trkpt>
      <trkpt lat="43.4916" lon="5.74269">
        <ele>265.461304</ele>
        <time>2012-04-09T09:45:30Z</time>
      </trkpt>
      <trkpt lat="43.49182" lon="5.74255">
        <ele>265.941895</ele>
        <time>2012-04-09T09:45:34Z</time>
      </trkpt>
      <trkpt lat="43.49226" lon="5.7421">
        <ele>266.903198</ele>
        <time>2012-04-09T09:45:43Z</time>
      </trkpt>
      <trkpt lat="43.4926" lon="5.74184">
        <ele>267.864502</ele>
        <time>2012-04-09T09:45:50Z</time>
      </trkpt>
      <trkpt lat="43.49311" lon="5.74148">
        <ele>269.306519</ele>
        <time>2012-04-09T09:46:01Z</time>
      </trkpt>
      <trkpt lat="43.4935" lon="5.74123">
        <ele>270.2677</ele>
        <time>2012-04-09T09:46:09Z</time>
      </trkpt>
      <trkpt lat="43.49392" lon="5.74093">
        <ele>272.19043</ele>
        <time>2012-04-09T09:46:18Z</time>
      </trkpt>
      <trkpt lat="43.49441" lon="5.74068">
        <ele>275.074463</ele>
        <time>2012-04-09T09:46:28Z</time>
      </trkpt>
      <trkpt lat="43.49491" lon="5.74051">
        <ele>277.477661</ele>
        <time>2012-04-09T09:46:38Z</time>
      </trkpt>
      <trkpt lat="43.49547" lon="5.74033">
        <ele>277.958252</ele>
        <time>2012-04-09T09:46:48Z</time>
      </trkpt>
      <trkpt lat="43.49574" lon="5.74027">
        <ele>277.477661</ele>
        <time>2012-04-09T09:46:52Z</time>
      </trkpt>
      <trkpt lat="43.49625" lon="5.74033">
        <ele>276.035645</ele>
        <time>2012-04-09T09:46:59Z</time>
      </trkpt>
      <trkpt lat="43.49632" lon="5.74033">
        <ele>275.555054</ele>
        <time>2012-04-09T09:47:00Z</time>
      </trkpt>
      <trkpt lat="43.49662" lon="5.74024">
        <ele>275.555054</ele>
        <time>2012-04-09T09:47:04Z</time>
      </trkpt>
      <trkpt lat="43.49723" lon="5.73986">
        <ele>276.035645</ele>
        <time>2012-04-09T09:47:13Z</time>
      </trkpt>
      <trkpt lat="43.49764" lon="5.73968">
        <ele>276.516357</ele>
        <time>2012-04-09T09:47:19Z</time>
      </trkpt>
      <trkpt lat="43.49823" lon="5.7395">
        <ele>277.958252</ele>
        <time>2012-04-09T09:47:28Z</time>
      </trkpt>
      <trkpt lat="43.4987" lon="5.73937">
        <ele>279.400269</ele>
        <time>2012-04-09T09:47:36Z</time>
      </trkpt>
      <trkpt lat="43.49903" lon="5.73916">
        <ele>280.361694</ele>
        <time>2012-04-09T09:47:42Z</time>
      </trkpt>
      <trkpt lat="43.49951" lon="5.73881">
        <ele>279.880859</ele>
        <time>2012-04-09T09:47:51Z</time>
      </trkpt>
      <trkpt lat="43.49994" lon="5.7385">
        <ele>280.842407</ele>
        <time>2012-04-09T09:47:59Z</time>
      </trkpt>
      <trkpt lat="43.50007" lon="5.73826">
        <ele>281.322998</ele>
        <time>2012-04-09T09:48:03Z</time>
      </trkpt>
      <trkpt lat="43.50008" lon="5.73818">
        <ele>280.842407</ele>
        <time>2012-04-09T09:48:04Z</time>
      </trkpt>
      <trkpt lat="43.50021" lon="5.73767">
        <ele>280.361694</ele>
        <time>2012-04-09T09:48:10Z</time>
      </trkpt>
      <trkpt lat="43.50047" lon="5.73716">
        <ele>279.880859</ele>
        <time>2012-04-09T09:48:16Z</time>
      </trkpt>
      <trkpt lat="43.50069" lon="5.7366">
        <ele>279.880859</ele>
        <time>2012-04-09T09:48:22Z</time>
      </trkpt>
      <trkpt lat="43.50072" lon="5.7365">
        <ele>279.880859</ele>
        <time>2012-04-09T09:48:23Z</time>
      </trkpt>
      <trkpt lat="43.50092" lon="5.73535">
        <ele>279.400269</ele>
        <time>2012-04-09T09:48:34Z</time>
      </trkpt>
      <trkpt lat="43.50099" lon="5.73472">
        <ele>279.880859</ele>
        <time>2012-04-09T09:48:40Z</time>
      </trkpt>
      <trkpt lat="43.50104" lon="5.7339">
        <ele>281.322998</ele>
        <time>2012-04-09T09:48:48Z</time>
      </trkpt>
      <trkpt lat="43.50104" lon="5.73381">
        <ele>281.322998</ele>
        <time>2012-04-09T09:48:49Z</time>
      </trkpt>
      <trkpt lat="43.50115" lon="5.73349">
        <ele>280.842407</ele>
        <time>2012-04-09T09:48:53Z</time>
      </trkpt>
      <trkpt lat="43.50132" lon="5.73336">
        <ele>281.322998</ele>
        <time>2012-04-09T09:48:56Z</time>
      </trkpt>
      <trkpt lat="43.50149" lon="5.73344">
        <ele>282.284302</ele>
        <time>2012-04-09T09:48:59Z</time>
      </trkpt>
      <trkpt lat="43.50185" lon="5.73388">
        <ele>283.726196</ele>
        <time>2012-04-09T09:49:07Z</time>
      </trkpt>
      <trkpt lat="43.50215" lon="5.73422">
        <ele>284.687622</ele>
        <time>2012-04-09T09:49:14Z</time>
      </trkpt>
      <trkpt lat="43.50243" lon="5.73451">
        <ele>287.571411</ele>
        <time>2012-04-09T09:49:21Z</time>
      </trkpt>
      <trkpt lat="43.50277" lon="5.7349">
        <ele>289.494141</ele>
        <time>2012-04-09T09:49:31Z</time>
      </trkpt>
      <trkpt lat="43.50294" lon="5.73512">
        <ele>290.936157</ele>
        <time>2012-04-09T09:49:37Z</time>
      </trkpt>
      <trkpt lat="43.50304" lon="5.73541">
        <ele>291.897461</ele>
        <time>2012-04-09T09:49:43Z</time>
      </trkpt>
      <trkpt lat="43.50303" lon="5.73576">
        <ele>293.339355</ele>
        <time>2012-04-09T09:49:49Z</time>
      </trkpt>
      <trkpt lat="43.50302" lon="5.73582">
        <ele>293.339355</ele>
        <time>2012-04-09T09:49:50Z</time>
      </trkpt>
      <trkpt lat="43.50311" lon="5.73607">
        <ele>294.781372</ele>
        <time>2012-04-09T09:49:55Z</time>
      </trkpt>
      <trkpt lat="43.50317" lon="5.73626">
        <ele>295.742676</ele>
        <time>2012-04-09T09:49:59Z</time>
      </trkpt>
      <trkpt lat="43.50321" lon="5.73654">
        <ele>295.261963</ele>
        <time>2012-04-09T09:50:04Z</time>
      </trkpt>
      <trkpt lat="43.50333" lon="5.7368">
        <ele>294.300781</ele>
        <time>2012-04-09T09:50:08Z</time>
      </trkpt>
      <trkpt lat="43.50346" lon="5.73698">
        <ele>292.858765</ele>
        <time>2012-04-09T09:50:11Z</time>
      </trkpt>
      <trkpt lat="43.50357" lon="5.73716">
        <ele>291.897461</ele>
        <time>2012-04-09T09:50:14Z</time>
      </trkpt>
      <trkpt lat="43.50369" lon="5.7372">
        <ele>291.897461</ele>
        <time>2012-04-09T09:50:17Z</time>
      </trkpt>
      <trkpt lat="43.50376" lon="5.73718">
        <ele>291.897461</ele>
        <time>2012-04-09T09:50:19Z</time>
      </trkpt>
      <trkpt lat="43.50383" lon="5.73717">
        <ele>291.897461</ele>
        <time>2012-04-09T09:50:21Z</time>
      </trkpt>
      <trkpt lat="43.50389" lon="5.73726">
        <ele>290.936157</ele>
        <time>2012-04-09T09:50:24Z</time>
      </trkpt>
      <trkpt lat="43.50388" lon="5.73738">
        <ele>290.455566</ele>
        <time>2012-04-09T09:50:26Z</time>
      </trkpt>
      <trkpt lat="43.50386" lon="5.73758">
        <ele>289.974854</ele>
        <time>2012-04-09T09:50:29Z</time>
      </trkpt>
      <trkpt lat="43.50375" lon="5.73771">
        <ele>289.01355</ele>
        <time>2012-04-09T09:50:33Z</time>
      </trkpt>
      <trkpt lat="43.50368" lon="5.73775">
        <ele>289.01355</ele>
        <time>2012-04-09T09:50:38Z</time>
      </trkpt>
    </trkseg>
  </trk>
</gpx>